[[{"header":{"parameterUnit":"m.s-1","parameterCategory":1,"la1":31.0,"la2":29.5877,"lo1":-88.7671,"lo2":-86.6584,"dy":0.0162,"dx":0.0185,"nx":115,"ny":88,"refTime":"2023-04-22T12:00:00:Z","depth":0,"parameterNumber":2,"parameterNumberName":"U-component_of_WINDS"},"data":[0.0,0.0,0.0,0.0,0.0,0.0,0.0,0.0,0.0,0.0,0.0,0.0,0.0,0.0,0.0,0.0,0.0,0.0,0.0,0.0,0.0,0.0,0.0,0.0,0.0,0.0,0.0,0.0,0.0,0.0,0.0,0.0,0.0,0.0,0.0,0.0,0.0,0.0,0.0,0.0,0.0,0.0,0.0,0.0,0.0,0.0,0.0,0.0,0.0,0.0,0.0,0.0,0.0,0.0,0.0,0.0,0.0,0.0,0.0,0.0,0.0,0.0,0.0,0.0,0.0,0.0,0.0,0.0,0.0,0.0,0.0,0.0,0.0,0.0,0.0,0.0,0.0,0.0,0.0,0.0,0.0,0.0,0.0,0.0,0.0,0.0,0.0,0.0,0.0,0.0,0.0,0.0,0.0,0.0,0.0,0.0,0.0,0.0,0.0,0.0,0.0,0.0,0.0,0.0,0.0,0.0,0.0,0.0,0.0,0.0,0.0,0.0,0.0,0.0,0.0,0.0,0.0,0.0,0.0,0.0,0.0,0.0,0.0,0.0,0.0,0.0,0.0,0.0,0.0,0.0,0.0,0.0,0.0,0.0,0.0,0.0,0.0,0.0,0.0,0.0,0.0,0.0,0.0,0.0,0.0,0.0,0.0,0.0,0.0,0.0,0.0,0.0,0.0,0.0,0.0,0.0,0.0,0.0,0.0,0.0,0.0,0.0,0.0,0.0,0.0,0.0,0.0,0.0,0.0,0.0,0.0,0.0,0.0,0.0,0.0,0.0,0.0,0.0,0.0,0.0,0.0,0.0,0.0,0.0,0.0,0.0,0.0,0.0,0.0,0.0,0.0,0.0,0.0,0.0,0.0,0.0,0.0,0.0,0.0,0.0,0.0,0.0,0.0,0.0,0.0,0.0,0.0,0.0,0.0,0.0,0.0,0.0,0.0,0.0,0.0,0.0,0.0,0.0,0.0,0.0,0.0,0.0,0.0,0.0,0.0,0.0,0.0,0.0,0.0,0.0,0.0,0.0,0.0,0.0,0.0,0.0,0.0,0.0,0.0,0.0,0.0,0.0,0.0,0.0,0.0,0.0,0.0,0.0,0.0,0.0,0.0,0.0,0.0,0.0,0.0,0.0,0.0,0.0,0.0,0.0,0.0,0.0,0.0,0.0,0.0,0.0,0.0,0.0,0.0,0.0,0.0,0.0,0.0,0.0,0.0,0.0,0.0,0.0,0.0,0.0,0.0,0.0,0.0,0.0,0.0,0.0,0.0,0.0,0.0,0.0,0.0,0.0,0.0,0.0,0.0,0.0,0.0,0.0,0.0,0.0,0.0,0.0,0.0,0.0,0.0,0.0,0.0,0.0,0.0,0.0,0.0,0.0,0.0,0.0,0.0,0.0,0.0,0.0,0.0,0.0,0.0,0.0,0.0,0.0,0.0,0.0,0.0,0.0,0.0,0.0,0.0,0.0,0.0,0.0,0.0,0.0,0.0,0.0,0.0,0.0,0.0,0.0,0.0,0.0,0.0,0.0,0.0,0.0,0.0,0.0,0.0,0.0,0.0,0.0,0.0,0.0,0.0,0.0,0.0,0.0,0.0,0.0,0.0,0.0,0.0,0.0,0.0,0.0,0.0,0.0,0.0,0.0,0.0,0.0,0.0,0.0,0.0,0.0,0.0,0.0,0.0,0.0,0.0,0.0,0.0,0.0,0.0,0.0,0.0,0.0,0.0,0.0,0.0,0.0,0.0,0.0,0.0,0.0,0.0,0.0,0.0,0.0,0.0,0.0,0.0,0.0,0.0,0.0,0.0,0.0,0.0,0.0,0.0,0.0,0.0,0.0,0.0,0.0,0.0,0.0,0.0,0.0,0.0,0.0,0.0,0.0,0.0,0.0,0.0,0.0,0.0,0.0,0.0,0.0,0.0,0.0,0.0,0.0,0.0,0.0,0.0,0.0,0.0,0.0,0.0,0.0,0.0,0.0,0.0,0.0,0.0,0.0,0.0,0.0,0.0,0.0,0.0,0.0,0.0,0.0,0.0,0.0,0.0,0.0,0.0,0.0,0.0,0.0,0.0,0.0,0.0,0.0,0.0,0.0,0.0,0.0,0.0,0.0,0.0,0.0,0.0,0.0,0.0,0.0,0.0,0.0,0.0,0.0,0.0,0.0,0.0,0.0,0.0,0.0,0.0,0.0,0.0,0.0,0.0,0.0,0.0,0.0,0.0,0.0,0.0,0.0,0.0,0.0,0.0,0.0,0.0,0.0,0.0,0.0,0.0,0.0,0.0,0.0,0.0,0.0,0.0,0.0,0.0,0.0,0.0,0.0,0.0,0.0,0.0,0.0,0.0,0.0,0.0,0.0,0.0,0.0,0.0,0.0,0.0,0.0,0.0,0.0,0.0,0.0,0.0,0.0,0.0,0.0,0.0,0.0,0.0,0.0,0.0,0.0,0.0,0.0,0.0,0.0,0.0,0.0,0.0,0.0,0.0,0.0,0.0,0.0,0.0,0.0,0.0,0.0,0.0,0.0,0.0,0.0,0.0,0.0,0.0,0.0,0.0,0.0,0.0,0.0,0.0,0.0,0.0,0.0,0.0,0.0,0.0,0.0,0.0,0.0,0.0,0.0,0.0,0.0,0.0,0.0,0.0,0.0,0.0,0.0,0.0,0.0,0.0,0.0,0.0,0.0,0.0,0.0,0.0,0.0,0.0,0.0,0.0,0.0,0.0,0.0,0.0,0.0,0.0,0.0,0.0,0.0,0.0,0.0,0.0,0.0,0.0,0.0,0.0,0.0,0.0,0.0,0.0,0.0,0.0,0.0,0.0,0.0,0.0,0.0,0.0,0.0,0.0,0.0,0.0,0.0,0.0,0.0,0.0,0.0,0.0,0.0,0.0,0.0,0.0,0.0,0.0,0.0,0.0,0.0,0.0,0.0,0.0,0.0,0.0,0.0,0.0,0.0,0.0,0.0,0.0,0.0,0.0,0.0,0.0,0.0,0.0,0.0,0.0,0.0,0.0,0.0,0.0,0.0,0.0,0.0,0.0,0.0,0.0,0.0,0.0,0.0,0.0,0.0,0.0,0.0,0.0,0.0,0.0,0.0,0.0,0.0,0.0,0.0,0.0,0.0,0.0,0.0,0.0,0.0,0.0,0.0,0.0,0.0,0.0,0.0,0.0,0.0,0.0,0.0,0.0,0.0,0.0,0.0,0.0,0.0,0.0,0.0,0.0,0.0,0.0,0.0,0.0,0.0,0.0,0.0,0.0,0.0,0.0,0.0,0.0,0.0,0.0,0.0,0.0,0.0,0.0,0.0,0.0,0.0,0.0,0.0,0.0,0.0,0.0,0.0,0.0,0.0,0.0,0.0,0.0,0.0,0.0,0.0,0.0,0.0,0.0,0.0,0.0,0.0,0.0,0.0,0.0,0.0,0.0,0.0,0.0,0.0,0.0,0.0,0.0,0.0,0.0,0.0,0.0,0.0,0.0,0.0,0.0,0.0,0.0,0.0,0.0,0.0,0.0,0.0,0.0,0.0,0.0,0.0,0.0,0.0,0.0,0.0,0.0,0.0,0.0,0.0,0.0,0.0,0.0,0.0,0.0,0.0,0.0,0.0,0.0,0.0,0.0,0.0,0.0,0.0,0.0,0.0,0.0,0.0,0.0,0.0,0.0,0.0,0.0,0.0,0.0,0.0,0.0,0.0,0.0,0.0,0.0,0.0,0.0,0.0,0.0,0.0,0.0,0.0,0.0,0.0,0.0,0.0,0.0,0.0,0.0,0.0,0.0,0.0,0.0,0.0,0.0,0.0,0.0,0.0,0.0,0.0,0.0,0.0,0.0,0.0,0.0,0.0,0.0,0.0,0.0,0.0,0.0,0.0,0.0,0.0,0.0,0.0,0.0,0.0,0.0,0.0,0.0,0.0,0.0,0.0,0.0,0.0,0.0,0.0,0.0,0.0,0.0,0.0,0.0,0.0,0.0,0.0,0.0,0.0,0.0,0.0,0.0,0.0,0.0,0.0,0.0,0.0,0.0,0.0,0.0,0.0,0.0,0.0,0.0,0.0,0.0,0.0,0.0,0.0,0.0,0.0,0.0,0.0,0.0,0.0,0.0,0.0,0.0,0.0,0.0,0.0,0.0,0.0,0.0,0.0,0.0,0.0,0.0,0.0,0.0,0.0,0.0,0.0,0.0,0.0,0.0,0.0,0.0,0.0,0.0,0.0,0.0,0.0,0.0,0.0,0.0,0.0,0.0,0.0,0.0,0.0,3.7555,0.0,0.0,0.0,0.0,0.0,0.0,0.0,0.0,0.0,0.0,0.0,0.0,0.0,0.0,0.0,0.0,0.0,0.0,0.0,0.0,0.0,0.0,0.0,0.0,0.0,0.0,0.0,0.0,0.0,0.0,0.0,0.0,0.0,0.0,0.0,0.0,0.0,0.0,0.0,0.0,0.0,0.0,0.0,0.0,0.0,0.0,0.0,0.0,0.0,0.0,0.0,0.0,0.0,0.0,0.0,0.0,0.0,0.0,0.0,0.0,0.0,0.0,0.0,0.0,0.0,0.0,0.0,0.0,0.0,0.0,0.0,0.0,0.0,0.0,0.0,0.0,0.0,0.0,0.0,0.0,0.0,0.0,0.0,0.0,0.0,0.0,0.0,0.0,0.0,0.0,0.0,0.0,0.0,0.0,0.0,0.0,0.0,0.0,0.0,0.0,0.0,0.0,0.0,0.0,0.0,0.0,0.0,0.0,0.0,0.0,3.6945,3.6945,3.8083,3.8524,3.8187,0.0,0.0,0.0,0.0,0.0,0.0,0.0,0.0,0.0,0.0,0.0,0.0,0.0,0.0,0.0,0.0,0.0,0.0,0.0,0.0,0.0,0.0,0.0,0.0,0.0,0.0,0.0,0.0,0.0,0.0,0.0,0.0,0.0,0.0,0.0,0.0,0.0,0.0,0.0,0.0,0.0,0.0,0.0,0.0,0.0,0.0,0.0,0.0,0.0,0.0,0.0,0.0,0.0,0.0,0.0,0.0,0.0,0.0,0.0,0.0,0.0,0.0,0.0,0.0,0.0,0.0,0.0,0.0,0.0,0.0,0.0,0.0,0.0,0.0,0.0,0.0,0.0,0.0,0.0,0.0,0.0,0.0,0.0,0.0,0.0,0.0,0.0,0.0,0.0,0.0,0.0,0.0,0.0,0.0,0.0,0.0,0.0,0.0,0.0,0.0,0.0,0.0,0.0,0.0,0.0,0.0,0.0,0.0,0.0,0.0,0.0,0.0,3.8377,3.8707,3.8707,0.0,0.0,0.0,0.0,0.0,0.0,0.0,0.0,0.0,0.0,0.0,0.0,0.0,0.0,0.0,0.0,0.0,0.0,0.0,0.0,0.0,0.0,0.0,0.0,0.0,0.0,0.0,0.0,0.0,0.0,0.0,0.0,0.0,0.0,0.0,0.0,0.0,0.0,0.0,0.0,0.0,0.0,0.0,0.0,0.0,0.0,0.0,0.0,0.0,0.0,0.0,0.0,0.0,0.0,0.0,0.0,0.0,0.0,0.0,0.0,0.0,0.0,0.0,0.0,0.0,0.0,0.0,0.0,0.0,0.0,0.0,0.0,0.0,0.0,0.0,0.0,0.0,0.0,0.0,0.0,0.0,0.0,0.0,0.0,0.0,0.0,0.0,0.0,0.0,0.0,0.0,0.0,0.0,0.0,0.0,0.0,0.0,0.0,0.0,0.0,0.0,0.0,0.0,0.0,0.0,0.0,0.0,0.0,0.0,0.0,3.7826,3.856,3.8652,0.0,3.8707,0.0,0.0,0.0,0.0,0.0,0.0,0.0,0.0,0.0,0.0,0.0,0.0,0.0,0.0,0.0,0.0,0.0,0.0,0.0,0.0,0.0,0.0,0.0,0.0,0.0,0.0,0.0,0.0,0.0,0.0,0.0,0.0,0.0,0.0,0.0,0.0,0.0,0.0,0.0,0.0,0.0,0.0,0.0,0.0,0.0,0.0,0.0,0.0,0.0,0.0,0.0,0.0,0.0,0.0,0.0,0.0,0.0,0.0,0.0,0.0,0.0,0.0,0.0,0.0,0.0,0.0,0.0,0.0,0.0,0.0,0.0,0.0,0.0,0.0,0.0,0.0,0.0,0.0,0.0,0.0,0.0,0.0,0.0,0.0,0.0,0.0,0.0,0.0,0.0,0.0,0.0,0.0,0.0,0.0,0.0,0.0,0.0,0.0,0.0,0.0,0.0,0.0,0.0,0.0,0.0,0.0,0.0,0.0,0.0,0.0,3.8358,3.8689,3.8707,3.8707,0.0,0.0,0.0,0.0,0.0,0.0,0.0,0.0,0.0,0.0,0.0,0.0,0.0,0.0,0.0,0.0,0.0,0.0,0.0,0.0,0.0,0.0,0.0,0.0,0.0,0.0,0.0,0.0,0.0,0.0,0.0,0.0,0.0,0.0,0.0,0.0,0.0,0.0,0.0,0.0,0.0,0.0,0.0,0.0,0.0,0.0,0.0,0.0,0.0,0.0,0.0,0.0,0.0,0.0,0.0,0.0,0.0,0.0,0.0,0.0,0.0,0.0,0.0,0.0,0.0,0.0,0.0,0.0,0.0,0.0,0.0,0.0,0.0,0.0,0.0,0.0,0.0,0.0,0.0,0.0,0.0,0.0,0.0,0.0,0.0,0.0,0.0,0.0,0.0,0.0,0.0,0.0,0.0,0.0,0.0,0.0,0.0,0.0,0.0,0.0,0.0,0.0,0.0,0.0,0.0,0.0,0.0,0.0,0.0,0.0,3.8707,3.8707,3.8707,3.8707,3.8732,3.8785,0.0,0.0,0.0,0.0,0.0,0.0,0.0,0.0,0.0,0.0,0.0,0.0,0.0,0.0,0.0,0.0,0.0,0.0,0.0,0.0,0.0,0.0,0.0,0.0,0.0,0.0,0.0,0.0,0.0,0.0,0.0,0.0,0.0,0.0,0.0,0.0,0.0,0.0,0.0,0.0,0.0,0.0,0.0,0.0,0.0,0.0,0.0,0.0,0.0,0.0,0.0,0.0,0.0,0.0,0.0,0.0,0.0,0.0,0.0,0.0,0.0,0.0,0.0,0.0,0.0,0.0,0.0,0.0,0.0,0.0,0.0,0.0,0.0,0.0,0.0,0.0,0.0,0.0,0.0,0.0,0.0,0.0,0.0,0.0,0.0,0.0,0.0,0.0,0.0,0.0,0.0,0.0,0.0,0.0,0.0,0.0,0.0,0.0,0.0,0.0,0.0,0.0,0.0,0.0,0.0,0.0,0.0,0.0,3.8689,3.8689,3.8707,3.8707,3.8707,3.8815,0.0,0.0,0.0,0.0,0.0,0.0,0.0,0.0,0.0,0.0,0.0,0.0,0.0,0.0,0.0,0.0,0.0,0.0,0.0,0.0,0.0,0.0,0.0,0.0,0.0,0.0,0.0,0.0,0.0,0.0,0.0,0.0,0.0,0.0,0.0,0.0,0.0,0.0,0.0,0.0,0.0,0.0,0.0,0.0,0.0,0.0,0.0,0.0,0.0,0.0,0.0,0.0,0.0,0.0,0.0,0.0,0.0,0.0,0.0,0.0,0.0,0.0,0.0,0.0,0.0,0.0,0.0,0.0,0.0,0.0,0.0,0.0,0.0,0.0,0.0,0.0,0.0,0.0,0.0,0.0,0.0,0.0,0.0,0.0,0.0,0.0,0.0,0.0,0.0,0.0,0.0,0.0,0.0,0.0,0.0,0.0,0.0,0.0,0.0,0.0,0.0,0.0,0.0,0.0,0.0,0.0,0.0,0.0,0.0,3.8933,3.8961,3.8884,3.8719,3.8839,3.9026,0.0,0.0,0.0,0.0,0.0,0.0,0.0,0.0,0.0,0.0,0.0,0.0,0.0,0.0,0.0,0.0,0.0,0.0,0.0,0.0,0.0,0.0,0.0,0.0,0.0,0.0,0.0,0.0,0.0,0.0,0.0,0.0,0.0,0.0,0.0,0.0,0.0,0.0,0.0,0.0,0.0,0.0,0.0,0.0,0.0,0.0,0.0,0.0,0.0,0.0,0.0,0.0,0.0,0.0,0.0,0.0,0.0,0.0,0.0,0.0,0.0,0.0,0.0,0.0,0.0,0.0,0.0,0.0,0.0,0.0,0.0,0.0,0.0,0.0,0.0,0.0,0.0,0.0,0.0,0.0,0.0,0.0,0.0,0.0,0.0,0.0,0.0,0.0,0.0,0.0,0.0,0.0,0.0,0.0,0.0,0.0,0.0,0.0,0.0,0.0,0.0,0.0,0.0,0.0,0.0,0.0,0.0,0.0,0.0,3.9257,0.0,3.9063,3.9008,3.9167,3.9308,0.0,0.0,0.0,0.0,0.0,0.0,0.0,0.0,0.0,0.0,0.0,0.0,0.0,0.0,0.0,0.0,0.0,0.0,0.0,0.0,0.0,0.0,0.0,0.0,0.0,0.0,0.0,0.0,0.0,0.0,0.0,0.0,0.0,0.0,0.0,0.0,0.0,0.0,0.0,0.0,0.0,0.0,0.0,0.0,0.0,0.0,0.0,0.0,0.0,0.0,0.0,0.0,0.0,0.0,0.0,0.0,0.0,0.0,0.0,0.0,0.0,0.0,0.0,0.0,0.0,0.0,0.0,0.0,0.0,0.0,0.0,0.0,0.0,0.0,0.0,0.0,0.0,0.0,0.0,0.0,0.0,0.0,0.0,0.0,0.0,0.0,0.0,0.0,0.0,0.0,0.0,0.0,0.0,0.0,0.0,0.0,0.0,0.0,0.0,0.0,0.0,0.0,0.0,0.0,0.0,0.0,0.0,0.0,3.9238,3.9534,3.9282,3.9238,3.9576,3.9576,3.9754,0.0,0.0,0.0,0.0,0.0,0.0,0.0,0.0,0.0,0.0,0.0,0.0,0.0,0.0,0.0,0.0,0.0,0.0,0.0,0.0,0.0,0.0,0.0,0.0,0.0,0.0,0.0,0.0,0.0,0.0,0.0,0.0,0.0,0.0,0.0,0.0,0.0,0.0,0.0,0.0,0.0,0.0,0.0,0.0,0.0,0.0,0.0,0.0,0.0,0.0,0.0,0.0,0.0,0.0,0.0,0.0,0.0,0.0,0.0,0.0,0.0,0.0,0.0,0.0,0.0,0.0,0.0,0.0,0.0,0.0,0.0,0.0,0.0,0.0,0.0,0.0,0.0,0.0,0.0,0.0,0.0,0.0,0.0,0.0,0.0,0.0,0.0,0.0,0.0,0.0,0.0,0.0,0.0,0.0,0.0,0.0,0.0,0.0,0.0,0.0,0.0,0.0,0.0,0.0,0.0,0.0,0.0,0.0,0.0,3.897,3.9275,3.9282,3.9027,3.9377,3.9645,0.0,0.0,0.0,0.0,0.0,0.0,0.0,0.0,0.0,0.0,0.0,0.0,0.0,0.0,0.0,0.0,0.0,0.0,0.0,0.0,0.0,0.0,0.0,0.0,0.0,0.0,0.0,0.0,0.0,0.0,0.0,0.0,0.0,0.0,0.0,0.0,0.0,0.0,0.0,0.0,0.0,0.0,0.0,0.0,0.0,0.0,0.0,0.0,0.0,0.0,0.0,0.0,0.0,0.0,0.0,0.0,0.0,0.0,0.0,0.0,0.0,0.0,0.0,0.0,0.0,0.0,0.0,0.0,0.0,0.0,0.0,0.0,0.0,0.0,0.0,0.0,0.0,0.0,0.0,0.0,0.0,0.0,0.0,0.0,0.0,0.0,0.0,0.0,0.0,0.0,0.0,0.0,0.0,0.0,0.0,0.0,0.0,0.0,0.0,0.0,0.0,0.0,0.0,0.0,0.0,0.0,0.0,0.0,0.0,3.9179,3.961,3.9802,3.9656,4.0024,4.0144,3.9944,0.0,0.0,0.0,0.0,0.0,0.0,0.0,0.0,0.0,0.0,0.0,0.0,0.0,0.0,0.0,0.0,0.0,0.0,0.0,0.0,0.0,0.0,0.0,0.0,0.0,0.0,0.0,0.0,0.0,0.0,0.0,0.0,0.0,0.0,0.0,0.0,0.0,0.0,0.0,0.0,0.0,0.0,0.0,0.0,0.0,0.0,0.0,0.0,0.0,0.0,0.0,0.0,0.0,0.0,0.0,0.0,0.0,0.0,0.0,0.0,0.0,0.0,0.0,0.0,0.0,0.0,0.0,0.0,0.0,0.0,0.0,0.0,0.0,0.0,0.0,0.0,0.0,0.0,0.0,0.0,0.0,0.0,0.0,0.0,0.0,0.0,0.0,0.0,0.0,0.0,0.0,0.0,0.0,0.0,0.0,0.0,0.0,0.0,0.0,0.0,0.0,0.0,0.0,0.0,0.0,0.0,0.0,0.0,4.0018,4.0267,4.0708,4.1254,4.1279,4.1055,0.0,0.0,0.0,0.0,0.0,0.0,0.0,0.0,0.0,0.0,0.0,0.0,0.0,0.0,0.0,0.0,0.0,0.0,0.0,0.0,0.0,0.0,0.0,0.0,0.0,0.0,0.0,0.0,0.0,0.0,0.0,0.0,0.0,0.0,0.0,0.0,0.0,0.0,0.0,0.0,0.0,0.0,0.0,0.0,0.0,0.0,0.0,0.0,0.0,0.0,0.0,0.0,0.0,0.0,0.0,0.0,0.0,0.0,0.0,0.0,0.0,0.0,0.0,0.0,0.0,0.0,0.0,0.0,0.0,0.0,0.0,0.0,0.0,0.0,0.0,0.0,0.0,0.0,0.0,0.0,0.0,0.0,0.0,0.0,0.0,0.0,0.0,0.0,0.0,0.0,0.0,0.0,0.0,0.0,0.0,0.0,0.0,0.0,0.0,0.0,0.0,0.0,0.0,0.0,0.0,0.0,0.0,0.0,0.0,4.1144,4.1582,4.1686,4.1515,4.1374,4.1227,0.0,0.0,0.0,0.0,0.0,0.0,0.0,0.0,0.0,0.0,0.0,0.0,0.0,0.0,0.0,0.0,0.0,0.0,0.0,0.0,0.0,0.0,0.0,0.0,0.0,0.0,0.0,0.0,0.0,0.0,0.0,0.0,0.0,0.0,0.0,0.0,0.0,0.0,0.0,0.0,0.0,0.0,0.0,0.0,0.0,0.0,0.0,0.0,0.0,0.0,0.0,0.0,0.0,0.0,0.0,0.0,0.0,0.0,0.0,0.0,0.0,0.0,0.0,0.0,0.0,0.0,0.0,0.0,0.0,0.0,0.0,0.0,0.0,0.0,0.0,0.0,0.0,0.0,0.0,0.0,0.0,0.0,0.0,0.0,0.0,0.0,0.0,0.0,0.0,0.0,0.0,0.0,0.0,0.0,0.0,0.0,0.0,0.0,0.0,0.0,0.0,0.0,0.0,0.0,0.0,0.0,0.0,0.0,4.1293,4.1825,4.2894,4.3371,4.3076,4.2101,4.1563,0.0,0.0,0.0,0.0,0.0,0.0,0.0,0.0,0.0,0.0,0.0,0.0,0.0,0.0,0.0,0.0,0.0,0.0,0.0,0.0,0.0,0.0,0.0,0.0,0.0,0.0,0.0,0.0,0.0,0.0,0.0,0.0,0.0,0.0,0.0,0.0,0.0,0.0,0.0,0.0,0.0,0.0,0.0,0.0,0.0,0.0,0.0,0.0,0.0,0.0,0.0,0.0,0.0,0.0,0.0,0.0,0.0,0.0,0.0,0.0,0.0,0.0,0.0,0.0,0.0,0.0,0.0,0.0,0.0,0.0,0.0,0.0,0.0,0.0,0.0,0.0,0.0,0.0,0.0,0.0,0.0,0.0,0.0,0.0,0.0,0.0,0.0,0.0,0.0,0.0,0.0,0.0,0.0,0.0,0.0,0.0,0.0,0.0,0.0,0.0,0.0,0.0,0.0,0.0,0.0,0.0,0.0,0.0,4.2096,4.224,4.4037,4.5052,4.5101,4.3175,4.2072,0.0,0.0,0.0,0.0,0.0,0.0,0.0,0.0,0.0,0.0,0.0,0.0,0.0,0.0,0.0,0.0,0.0,0.0,0.0,0.0,0.0,0.0,0.0,0.0,0.0,0.0,0.0,0.0,0.0,0.0,0.0,0.0,0.0,0.0,0.0,0.0,0.0,0.0,0.0,0.0,0.0,0.0,0.0,0.0,0.0,0.0,0.0,0.0,0.0,0.0,0.0,0.0,0.0,0.0,0.0,0.0,0.0,0.0,0.0,0.0,0.0,0.0,0.0,0.0,0.0,0.0,0.0,0.0,0.0,0.0,0.0,0.0,0.0,0.0,0.0,0.0,0.0,0.0,0.0,0.0,0.0,0.0,0.0,0.0,0.0,0.0,0.0,0.0,0.0,0.0,0.0,0.0,0.0,0.0,0.0,0.0,0.0,0.0,0.0,0.0,0.0,0.0,0.0,0.0,0.0,0.0,0.0,0.0,4.2144,4.3014,4.382,4.4644,4.5457,4.3789,4.2867,0.0,0.0,0.0,0.0,0.0,0.0,0.0,0.0,0.0,0.0,0.0,0.0,0.0,0.0,0.0,0.0,0.0,0.0,0.0,0.0,0.0,0.0,0.0,0.0,0.0,0.0,0.0,0.0,0.0,0.0,0.0,0.0,0.0,0.0,0.0,0.0,0.0,0.0,0.0,0.0,0.0,0.0,0.0,0.0,0.0,0.0,0.0,0.0,4.2829,0.0,0.0,0.0,0.0,0.0,0.0,0.0,0.0,0.0,0.0,0.0,0.0,0.0,0.0,0.0,0.0,0.0,0.0,0.0,0.0,0.0,0.0,0.0,0.0,0.0,0.0,0.0,0.0,0.0,0.0,0.0,0.0,0.0,0.0,0.0,0.0,0.0,0.0,0.0,0.0,0.0,0.0,0.0,0.0,0.0,0.0,0.0,0.0,0.0,0.0,0.0,0.0,0.0,0.0,0.0,0.0,0.0,0.0,0.0,4.2788,4.374,4.4421,4.5036,4.551,4.4335,4.347,0.0,0.0,0.0,0.0,0.0,0.0,0.0,0.0,0.0,0.0,0.0,0.0,0.0,0.0,0.0,0.0,0.0,0.0,0.0,0.0,0.0,0.0,0.0,0.0,0.0,0.0,0.0,0.0,0.0,0.0,0.0,0.0,0.0,0.0,0.0,0.0,0.0,0.0,0.0,0.0,0.0,0.0,0.0,0.0,0.0,0.0,0.0,0.0,0.0,0.0,0.0,0.0,0.0,0.0,0.0,0.0,0.0,0.0,0.0,0.0,0.0,0.0,0.0,0.0,0.0,0.0,0.0,0.0,0.0,0.0,0.0,0.0,0.0,0.0,0.0,0.0,0.0,0.0,0.0,0.0,0.0,0.0,0.0,0.0,0.0,0.0,0.0,0.0,0.0,0.0,0.0,0.0,0.0,0.0,0.0,0.0,0.0,0.0,0.0,0.0,0.0,0.0,0.0,0.0,0.0,0.0,0.0,4.2712,4.3441,4.4399,4.5148,4.555,4.5586,4.4739,4.3912,4.3156,0.0,0.0,0.0,0.0,0.0,0.0,0.0,0.0,0.0,0.0,0.0,0.0,0.0,0.0,0.0,0.0,0.0,0.0,0.0,0.0,0.0,0.0,0.0,0.0,0.0,0.0,0.0,0.0,0.0,0.0,0.0,0.0,0.0,0.0,0.0,0.0,0.0,0.0,4.105,4.1774,0.0,0.0,0.0,0.0,0.0,0.0,0.0,0.0,4.4299,0.0,0.0,0.0,0.0,0.0,0.0,0.0,0.0,0.0,0.0,0.0,0.0,0.0,0.0,0.0,0.0,0.0,0.0,0.0,0.0,0.0,0.0,0.0,0.0,0.0,0.0,0.0,0.0,0.0,0.0,0.0,0.0,0.0,0.0,0.0,0.0,0.0,0.0,0.0,0.0,0.0,0.0,0.0,0.0,0.0,0.0,0.0,0.0,0.0,0.0,0.0,0.0,0.0,0.0,0.0,0.0,4.2985,4.2503,4.3149,4.4913,4.5104,4.5322,4.5566,4.4761,4.3953,4.3201,0.0,0.0,0.0,0.0,0.0,0.0,0.0,0.0,0.0,0.0,0.0,0.0,0.0,0.0,0.0,0.0,0.0,0.0,0.0,0.0,0.0,0.0,0.0,0.0,0.0,0.0,0.0,0.0,0.0,0.0,0.0,0.0,0.0,0.0,0.0,0.0,0.0,0.0,0.0,4.2941,4.3371,0.0,0.0,0.0,0.0,0.0,0.0,0.0,0.0,4.5951,0.0,0.0,0.0,0.0,0.0,0.0,0.0,0.0,0.0,0.0,0.0,0.0,0.0,0.0,0.0,0.0,0.0,0.0,0.0,0.0,0.0,0.0,0.0,0.0,0.0,0.0,0.0,0.0,0.0,0.0,0.0,0.0,0.0,0.0,0.0,0.0,0.0,0.0,0.0,0.0,0.0,0.0,0.0,0.0,0.0,0.0,0.0,0.0,0.0,0.0,0.0,0.0,0.0,0.0,0.0,4.356,4.3464,4.4018,4.5304,4.5457,4.5592,4.5682,4.4876,4.407,0.0,0.0,0.0,0.0,0.0,0.0,0.0,0.0,0.0,0.0,0.0,0.0,0.0,0.0,0.0,0.0,0.0,0.0,0.0,0.0,0.0,0.0,0.0,0.0,0.0,0.0,0.0,0.0,0.0,0.0,0.0,0.0,0.0,0.0,0.0,0.0,0.0,0.0,0.0,0.0,4.4292,4.4917,4.5776,0.0,0.0,0.0,0.0,0.0,0.0,4.6593,4.6449,0.0,0.0,0.0,0.0,0.0,0.0,0.0,0.0,0.0,0.0,0.0,0.0,0.0,0.0,0.0,0.0,0.0,0.0,0.0,0.0,0.0,0.0,0.0,0.0,0.0,0.0,0.0,0.0,0.0,0.0,0.0,0.0,0.0,0.0,0.0,0.0,0.0,0.0,0.0,0.0,0.0,0.0,0.0,0.0,0.0,0.0,0.0,0.0,0.0,0.0,0.0,0.0,0.0,0.0,0.0,4.3924,4.435,4.4903,4.5623,4.5811,4.5868,4.5796,4.4831,4.4051,0.0,0.0,0.0,0.0,0.0,0.0,0.0,0.0,0.0,0.0,0.0,0.0,0.0,0.0,0.0,0.0,0.0,0.0,0.0,0.0,0.0,0.0,0.0,0.0,0.0,0.0,0.0,0.0,0.0,0.0,0.0,0.0,0.0,0.0,0.0,0.0,0.0,0.0,0.0,0.0,0.0,4.6417,4.7222,4.7081,0.0,0.0,0.0,0.0,4.7384,4.7233,0.0,0.0,0.0,0.0,0.0,0.0,0.0,0.0,0.0,0.0,0.0,0.0,0.0,0.0,0.0,0.0,0.0,0.0,0.0,0.0,0.0,0.0,0.0,0.0,0.0,0.0,0.0,0.0,0.0,0.0,0.0,0.0,0.0,0.0,0.0,0.0,0.0,0.0,0.0,0.0,0.0,0.0,0.0,0.0,0.0,0.0,0.0,0.0,0.0,0.0,0.0,0.0,0.0,0.0,0.0,0.0,4.3484,4.4273,4.5075,4.5813,4.5911,4.5896,4.5862,4.4356,4.3515,0.0,0.0,0.0,0.0,0.0,0.0,0.0,0.0,0.0,0.0,0.0,0.0,0.0,0.0,0.0,0.0,0.0,0.0,0.0,0.0,0.0,0.0,0.0,0.0,0.0,0.0,0.0,0.0,0.0,0.0,0.0,0.0,0.0,0.0,0.0,0.0,0.0,0.0,0.0,0.0,0.0,4.7279,4.8356,4.7579,4.7006,0.0,0.0,4.82,4.8314,4.8835,0.0,0.0,0.0,0.0,0.0,0.0,0.0,0.0,0.0,0.0,0.0,0.0,0.0,0.0,0.0,0.0,0.0,0.0,0.0,0.0,0.0,0.0,0.0,0.0,0.0,0.0,0.0,0.0,0.0,0.0,0.0,0.0,0.0,0.0,0.0,0.0,0.0,0.0,0.0,0.0,0.0,0.0,0.0,0.0,0.0,0.0,0.0,0.0,0.0,0.0,0.0,0.0,0.0,0.0,0.0,4.3022,4.3424,4.4761,4.5617,4.589,4.6049,4.6105,4.6002,4.4404,4.3518,0.0,0.0,0.0,0.0,0.0,0.0,0.0,0.0,0.0,0.0,0.0,0.0,0.0,0.0,0.0,0.0,0.0,0.0,0.0,0.0,0.0,0.0,0.0,0.0,0.0,0.0,0.0,0.0,0.0,0.0,0.0,0.0,0.0,0.0,0.0,0.0,0.0,0.0,0.0,0.0,0.0,0.0,4.8429,4.8039,0.0,0.0,0.0,4.8118,4.768,0.0,0.0,0.0,0.0,0.0,0.0,0.0,0.0,0.0,0.0,0.0,0.0,0.0,0.0,0.0,0.0,0.0,0.0,0.0,0.0,0.0,0.0,0.0,0.0,0.0,0.0,0.0,0.0,0.0,0.0,0.0,0.0,0.0,0.0,0.0,0.0,0.0,0.0,0.0,0.0,0.0,0.0,0.0,0.0,0.0,0.0,0.0,0.0,0.0,0.0,0.0,0.0,0.0,0.0,0.0,0.0,0.0,4.3475,4.5248,4.6091,4.6014,4.62,4.6249,4.6145,4.4719,0.0,0.0,0.0,0.0,0.0,0.0,0.0,0.0,0.0,0.0,0.0,0.0,0.0,0.0,0.0,0.0,0.0,0.0,0.0,0.0,0.0,0.0,0.0,0.0,0.0,0.0,0.0,4.1289,0.0,0.0,0.0,0.0,0.0,0.0,0.0,0.0,0.0,0.0,0.0,0.0,0.0,0.0,4.8623,4.8439,4.8365,4.8437,0.0,0.0,4.8125,4.768,4.8637,4.8729,0.0,0.0,0.0,0.0,0.0,0.0,0.0,0.0,0.0,0.0,0.0,0.0,0.0,0.0,0.0,0.0,0.0,0.0,0.0,0.0,0.0,0.0,0.0,0.0,0.0,0.0,0.0,0.0,0.0,0.0,0.0,0.0,0.0,0.0,0.0,0.0,0.0,0.0,0.0,0.0,0.0,0.0,0.0,0.0,0.0,0.0,0.0,0.0,0.0,0.0,0.0,0.0,0.0,0.0,4.3588,4.3652,4.5369,4.6287,4.6268,4.6289,4.6289,4.6267,4.5371,4.4426,0.0,0.0,0.0,0.0,0.0,0.0,0.0,0.0,0.0,0.0,0.0,0.0,0.0,0.0,0.0,0.0,0.0,0.0,0.0,0.0,0.0,0.0,0.0,0.0,0.0,0.0,0.0,0.0,0.0,0.0,0.0,0.0,0.0,0.0,0.0,0.0,0.0,0.0,0.0,0.0,0.0,4.8708,4.8669,4.8566,4.8814,0.0,4.8969,4.8546,4.9279,5.0067,4.9769,4.7382,0.0,0.0,0.0,0.0,0.0,0.0,0.0,0.0,0.0,0.0,0.0,0.0,0.0,0.0,0.0,0.0,0.0,0.0,0.0,0.0,0.0,0.0,0.0,0.0,0.0,0.0,0.0,0.0,0.0,0.0,0.0,0.0,0.0,0.0,0.0,0.0,0.0,0.0,0.0,0.0,0.0,0.0,0.0,0.0,0.0,0.0,0.0,0.0,0.0,0.0,0.0,0.0,0.0,4.3478,4.3495,4.5276,4.618,4.6191,4.6111,4.6101,4.6191,4.5332,4.4436,0.0,0.0,0.0,0.0,0.0,0.0,0.0,0.0,0.0,0.0,0.0,0.0,0.0,0.0,0.0,0.0,0.0,0.0,0.0,0.0,0.0,0.0,0.0,0.0,0.0,0.0,0.0,0.0,4.5196,4.539,4.4993,0.0,0.0,0.0,0.0,0.0,0.0,0.0,0.0,0.0,0.0,4.8886,4.941,4.9461,0.0,0.0,4.9434,4.9009,4.874,4.9179,4.8719,4.6205,4.5008,0.0,0.0,0.0,0.0,0.0,0.0,0.0,0.0,0.0,0.0,0.0,0.0,0.0,0.0,0.0,0.0,0.0,0.0,0.0,0.0,0.0,0.0,0.0,0.0,0.0,0.0,0.0,0.0,0.0,0.0,0.0,0.0,0.0,0.0,0.0,0.0,0.0,0.0,0.0,0.0,0.0,0.0,0.0,0.0,0.0,0.0,0.0,0.0,0.0,0.0,0.0,0.0,4.3291,4.3246,4.5092,4.6024,4.6046,4.5957,4.5949,4.6011,4.5481,4.4797,0.0,0.0,0.0,0.0,0.0,0.0,0.0,0.0,0.0,0.0,0.0,0.0,0.0,0.0,0.0,0.0,0.0,0.0,0.0,0.0,0.0,0.0,0.0,0.0,0.0,0.0,0.0,0.0,4.6409,4.6578,4.6241,0.0,0.0,0.0,0.0,0.0,0.0,0.0,0.0,0.0,0.0,4.9216,4.9572,4.9613,4.9568,4.941,4.8842,4.8266,4.7771,4.8018,4.7605,4.569,0.0,0.0,0.0,0.0,0.0,0.0,0.0,0.0,0.0,0.0,0.0,0.0,0.0,0.0,0.0,0.0,0.0,0.0,0.0,0.0,0.0,0.0,0.0,0.0,0.0,0.0,0.0,0.0,0.0,0.0,3.798,0.0,0.0,0.0,0.0,0.0,0.0,0.0,0.0,0.0,0.0,0.0,0.0,0.0,0.0,0.0,0.0,0.0,0.0,0.0,0.0,0.0,0.0,4.3086,4.2845,4.488,4.591,4.5909,4.5909,4.5907,4.5902,4.6008,4.5644,4.4745,0.0,0.0,0.0,0.0,0.0,0.0,0.0,0.0,0.0,0.0,0.0,0.0,0.0,0.0,0.0,0.0,0.0,0.0,0.0,0.0,0.0,0.0,0.0,0.0,0.0,0.0,4.3534,4.4839,4.6126,0.0,0.0,0.0,0.0,0.0,0.0,0.0,0.0,0.0,4.7251,4.8806,4.9645,4.8861,4.8736,4.873,4.8604,4.7048,4.6074,4.68,4.6849,4.6675,0.0,0.0,0.0,0.0,0.0,0.0,0.0,0.0,0.0,0.0,0.0,0.0,0.0,0.0,0.0,0.0,0.0,0.0,0.0,0.0,0.0,0.0,0.0,0.0,0.0,0.0,0.0,3.7626,3.6464,0.0,0.0,0.0,0.0,0.0,0.0,0.0,0.0,0.0,0.0,0.0,4.0504,4.0573,0.0,0.0,0.0,0.0,0.0,0.0,0.0,0.0,0.0,0.0,0.0,0.0,4.3292,4.3288,4.5066,4.602,4.6007,4.595,4.595,4.6046,4.6635,4.6808,4.6504,0.0,0.0,0.0,0.0,0.0,0.0,0.0,0.0,0.0,0.0,0.0,0.0,0.0,0.0,0.0,0.0,0.0,0.0,0.0,0.0,0.0,0.0,0.0,0.0,0.0,4.5951,0.0,0.0,0.0,0.0,0.0,0.0,0.0,0.0,0.0,0.0,0.0,4.7491,4.8106,4.8232,4.8428,4.8776,4.8827,4.8947,0.0,0.0,0.0,0.0,0.0,0.0,0.0,0.0,0.0,0.0,0.0,0.0,0.0,0.0,4.195,4.049,3.9593,3.8877,3.8419,0.0,0.0,0.0,0.0,0.0,0.0,0.0,0.0,0.0,0.0,0.0,0.0,0.0,0.0,3.7537,0.0,3.7795,0.0,0.0,0.0,0.0,0.0,0.0,0.0,0.0,3.8646,3.9323,4.0709,4.1194,4.1702,0.0,4.229,4.1894,0.0,0.0,0.0,0.0,0.0,0.0,0.0,0.0,4.3293,4.331,4.509,4.6192,4.6462,4.6385,4.654,4.6922,4.7494,4.7952,4.8295,4.7289,4.6893,0.0,0.0,0.0,0.0,0.0,0.0,0.0,0.0,0.0,0.0,0.0,0.0,0.0,0.0,0.0,0.0,0.0,0.0,0.0,0.0,0.0,0.0,0.0,4.7085,0.0,0.0,0.0,0.0,0.0,0.0,0.0,0.0,0.0,4.7289,4.7538,4.7953,4.8625,4.847,4.8347,4.8432,0.0,0.0,0.0,0.0,0.0,0.0,0.0,4.4755,4.4077,4.3123,4.2184,4.1474,4.1791,4.1762,4.0598,0.0,0.0,4.0374,3.947,3.884,3.8596,3.7537,3.6768,3.7157,3.6615,3.6247,0.0,0.0,0.0,0.0,0.0,0.0,0.0,0.0,3.6872,3.7185,0.0,3.8328,0.0,0.0,0.0,0.0,0.0,3.908,0.0,0.0,3.96,4.0306,4.0849,4.1914,4.2418,4.2304,4.195,4.1905,4.2303,4.2954,0.0,0.0,0.0,0.0,0.0,0.0,4.315,4.3119,4.5043,4.6402,4.7228,4.7259,4.7665,4.8499,4.8554,4.902,4.9926,4.8955,4.8759,4.9527,4.7969,0.0,0.0,0.0,0.0,0.0,0.0,0.0,0.0,0.0,0.0,0.0,0.0,0.0,0.0,0.0,0.0,0.0,0.0,0.0,0.0,4.7137,0.0,0.0,0.0,0.0,0.0,0.0,0.0,0.0,0.0,0.0,4.7203,4.7999,4.8663,4.8634,0.0,0.0,0.0,0.0,4.8086,4.6483,4.5278,4.4608,4.4647,4.4821,4.5227,4.6041,0.0,0.0,4.416,4.3014,4.1921,4.0268,4.0603,4.0842,4.0603,3.9847,3.9235,3.8608,3.7699,3.7073,3.6921,3.6212,3.5496,3.3982,0.0,0.0,0.0,0.0,3.6538,3.6854,3.7138,3.7183,3.7408,3.7824,3.7965,0.0,0.0,0.0,0.0,0.0,0.0,3.9629,3.9989,3.9721,4.049,4.2117,4.2846,4.3174,4.3149,4.3274,4.3503,4.3907,4.4326,4.4029,4.2988,0.0,0.0,0.0,0.0,4.4568,4.524,4.706,4.815,4.8404,4.8404,4.8782,4.9543,4.9569,4.9946,5.074,5.037,5.0033,4.9753,4.909,0.0,0.0,0.0,0.0,0.0,0.0,0.0,0.0,0.0,0.0,0.0,0.0,0.0,0.0,0.0,0.0,0.0,0.0,0.0,4.7099,4.7707,4.7676,0.0,0.0,0.0,0.0,0.0,0.0,0.0,0.0,0.0,4.8241,4.7942,4.7739,0.0,0.0,4.7166,4.6601,4.7324,4.7904,4.7821,4.7534,0.0,4.7892,4.6765,4.591,4.6153,4.5669,4.4853,4.3699,4.3752,4.3411,4.1703,4.1549,4.1277,3.9982,3.9596,3.9098,3.8206,3.777,3.7269,3.6552,3.6157,3.5913,3.4395,3.5611,3.5876,3.6018,3.6027,3.6324,3.648,3.6495,3.6901,3.7013,3.6969,3.7851,3.7672,3.6803,3.7729,0.0,0.0,0.0,4.0276,4.1078,4.0569,4.1177,4.2691,4.3234,4.3475,4.3532,4.3849,4.4117,4.4364,4.4872,4.4949,4.46,0.0,0.0,4.3864,4.5083,4.5962,4.6577,4.8098,4.9048,4.9333,4.9644,5.0013,5.0418,5.0383,5.0573,5.0991,5.0895,5.0547,4.9944,4.963,4.8938,0.0,0.0,0.0,0.0,0.0,0.0,0.0,0.0,0.0,0.0,0.0,4.7182,4.6683,0.0,0.0,0.0,4.7646,4.7718,4.7731,4.793,0.0,0.0,0.0,0.0,0.0,0.0,0.0,4.7049,4.8052,4.8791,4.8769,4.832,4.8087,4.8354,4.8072,4.7713,4.7265,0.0,4.8574,4.858,4.8496,4.8477,4.8659,4.7742,4.6856,4.6342,4.5472,4.4665,4.4041,4.4041,4.3604,4.2379,4.1723,4.1028,3.9681,3.9424,3.909,3.7994,3.7434,3.6866,3.5828,3.5278,3.4952,3.4857,3.5499,3.5549,3.5535,3.5521,3.5476,3.5491,3.5539,3.6212,3.6152,3.5643,3.777,3.7627,3.5957,3.7136,0.0,3.9853,4.0367,4.1036,4.181,4.181,4.2144,4.2768,4.3258,4.3487,4.3532,4.3804,4.4023,4.414,4.4783,4.5564,4.6454,4.6015,4.5434,4.4954,4.6461,4.7323,4.7437,4.8513,4.9406,5.0065,5.0798,5.1151,5.1081,5.0921,5.0855,5.0817,5.0681,5.044,5.0073,4.9765,4.9245,4.8422,0.0,0.0,0.0,0.0,0.0,0.0,0.0,0.0,0.0,0.0,0.0,0.0,0.0,0.0,4.7957,4.8372,0.0,4.8763,4.803,0.0,0.0,0.0,4.763,4.8443,4.8662,4.8759,4.872,0.0,0.0,4.9006,4.899,4.9336,5.0176,5.0169,4.9782,4.8987,4.9462,4.9721,4.8894,4.8644,4.8373,4.8234,4.8069,4.7646,4.6561,4.5915,4.5233,4.4597,4.3856,4.3047,4.2125,4.1166,4.0093,3.9277,3.8987,3.8752,3.73,3.6576,3.5721,3.4733,3.359,3.2846,3.4692,3.5459,3.5513,3.5531,3.5492,3.5492,3.5469,3.5489,3.5668,3.5627,3.5555,3.6675,3.7524,3.8182,3.9058,3.9696,4.0063,4.0585,4.1182,4.181,4.181,4.2364,4.3322,4.343,4.3487,4.3516,4.3563,4.4073,4.4861,4.5092,4.5587,4.6345,4.6827,4.7222,4.7552,4.7889,4.8416,4.9187,5.0106,5.066,5.0848,5.1018,5.1067,5.0926,5.0627,5.0387,5.0283,4.9963,4.9769,4.9636,4.9549,4.9132,4.8277,4.7637,0.0,0.0,0.0,0.0,0.0,0.0,0.0,0.0,0.0,4.6986,4.6408,0.0,4.7332,0.0,4.8525,4.9359,4.9401,4.9191,0.0,0.0,4.823,4.8234,4.8747,4.9228,4.9364,4.8888,4.9376,4.979,4.9883,4.9896,5.0195,5.0976,5.0019,4.9049,4.8671,4.9401,4.9856,4.9548,4.9856,5.0102,4.9491,4.8659,4.7679,4.6593,4.5865,4.532,4.472,4.3873,4.3047,4.2029,3.9803,3.8018,3.6935,3.6809,3.5741,3.3437,3.3726,3.4561,3.359,3.1765,3.0598,3.5414,3.5923,3.5624,3.5489,3.5489,3.5489,3.5489,3.5489,3.5489,3.5489,3.5489,3.5943,3.7144,3.8854,3.9049,3.9577,4.048,4.1059,4.1639,4.2203,4.2426,4.2885,4.3479,4.3506,4.3594,4.3744,4.411,4.4674,4.5498,4.6393,4.7061,4.748,4.843,4.9097,4.9413,4.8682,4.8591,4.9121,4.9984,5.0621,5.1,5.1005,5.076,5.026,4.9883,4.9454,4.9005,4.8626,4.834,4.8176,4.8305,4.8058,4.7223,4.676,4.6312,0.0,0.0,0.0,0.0,0.0,0.0,0.0,0.0,0.0,0.0,0.0,4.778,4.7682,4.8844,4.9451,4.9052,4.9065,4.908,4.9005,4.9043,4.9275,4.9813,5.0205,5.0276,4.9924,5.0231,5.0526,5.0625,5.0644,5.082,5.1328,5.0605,4.9968,4.9858,5.0205,5.0433,5.0317,5.0429,5.0217,4.9332,4.7864,4.6694,4.6077,4.5511,4.4998,4.4609,4.2664,4.1018,4.0406,3.7594,3.5099,3.4566,3.4512,3.3693,3.1908,3.1562,3.1858,3.1553,3.0418,2.9681,3.6611,3.6552,3.5998,3.5759,3.5759,3.5744,3.5654,3.5489,3.5489,3.5489,3.5504,3.5619,3.6753,3.8564,3.8149,3.8912,4.0651,4.134,4.2021,4.2616,4.3233,4.3499,4.3479,4.3566,4.3781,4.4202,4.5002,4.5621,4.6172,4.7941,4.8853,4.8914,4.9928,5.0433,5.0317,4.899,4.8394,4.8606,4.924,4.9933,5.0664,5.0548,5.0048,4.9202,4.88,4.8226,4.75,4.7081,4.6682,4.6359,4.6667,4.657,4.5993,4.5619,4.5482,0.0,4.492,0.0,0.0,0.0,0.0,0.0,0.0,0.0,0.0,4.8279,4.8394,4.8625,4.9202,4.9317,4.8644,4.8702,4.9029,4.9682,4.9984,5.0367,5.1006,5.1134,5.1145,5.1106,5.1078,5.1111,5.1152,5.1208,5.125,5.1367,5.1328,5.123,5.1316,5.1147,5.1045,5.1068,5.0489,4.9635,4.8435,4.6793,4.5732,4.5597,4.5089,4.457,4.44,4.1581,3.9137,3.8646,3.5709,3.2807,3.2566,3.2409,3.1761,3.0365,2.9647,2.9387,2.9454,2.9039,2.9039,3.724,3.7225,3.7105,3.7045,3.7045,3.7045,3.6462,3.5504,3.5489,3.5489,3.5554,3.6117,3.6615,3.7128,3.823,3.8891,3.937,4.0556,4.1402,4.1997,4.3015,4.3488,4.3532,4.3897,4.4402,4.5046,4.551,4.6458,4.7834,4.8218,4.8548,4.881,4.9034,4.9045,4.876,0.0,0.0,0.0,4.9721,4.9529,4.9644,4.8713,4.8127,4.7914,4.7305,0.0,4.6686,4.5934,4.5455,4.536,4.5457,0.0,0.0,0.0,0.0,0.0,0.0,0.0,0.0,0.0,0.0,0.0,4.7953,4.8157,4.8279,4.8221,4.8471,4.9298,4.9413,4.9663,5.0202,5.0279,5.0375,5.0606,5.0692,5.0826,5.1072,5.1003,5.0991,5.1087,5.1009,5.1001,5.1165,5.1213,5.125,5.1367,5.1387,5.1387,5.1401,5.122,5.1062,5.0913,5.0188,4.9426,4.8826,4.7265,4.6125,4.6094,4.5267,4.4423,4.3604,4.2423,4.1025,4.0201,3.6094,3.2566,3.2481,3.1129,2.9262,2.7148,2.7982,2.9125,2.9282,2.7757,2.6658,3.7898,0.0,3.7539,3.7404,0.0,3.7404,3.7045,3.6432,3.6118,3.5804,3.5504,3.5894,3.629,3.6676,3.7831,3.858,3.8945,4.0314,4.1223,4.1853,4.2713,4.3232,4.3479,4.3734,4.4457,4.5556,4.6148,4.7283,4.8796,4.9296,4.9576,4.9748,4.9739,4.9633,4.9471,4.9433,4.9606,5.0067,4.9625,4.9528,4.971,4.9156,4.8514,4.7903,4.7376,0.0,0.0,0.0,0.0,0.0,0.0,0.0,0.0,4.5485,0.0,4.6342,4.6443,4.6684,4.7073,4.7545,4.8028,4.8555,4.9133,4.9317,4.8894,4.9163,4.9586,5.0087,5.0067,5.0221,5.0625,5.0683,5.0702,5.0779,5.0856,5.0911,5.0906,5.0906,5.0914,5.0895,5.0837,5.0895,5.1029,5.1109,5.1183,5.1289,5.1348,5.1394,5.1382,5.1211,5.0979,5.0545,4.9829,4.9107,4.8472,4.7259,4.6164,4.588,4.5178,4.4293,4.3443,4.1629,4.0016,3.8916,3.5442,3.2324,3.1041,2.9848,2.8392,2.6426,2.6597,2.739,2.7558,2.6562,2.5616,3.8571,3.8527,3.7973,3.7764,3.7764,3.7764,3.7689,3.7539,0.0,0.0,0.0,3.6064,3.6468,3.7263,3.7913,3.8553,3.9197,4.0235,4.115,4.181,4.2302,4.2884,4.3497,4.3729,4.4544,4.5932,4.6844,4.806,4.9508,5.0239,5.0643,5.0683,5.0683,5.0683,5.0683,5.0683,5.0337,4.9663,4.949,4.9584,4.9958,4.9706,4.9048,4.8013,4.7604,4.7033,4.6331,4.5936,4.551,4.5062,4.4939,4.4664,4.4261,4.4721,4.5126,4.5252,4.5833,4.6449,4.7128,4.7611,4.8404,4.9531,5.0205,5.0317,4.9663,5.0279,5.0683,5.0683,5.0683,5.0683,5.0683,5.0683,5.0683,5.0683,5.0798,5.0798,5.0721,5.0779,5.0818,5.0702,5.0702,5.0741,5.0933,5.1048,5.1139,5.123,5.1328,5.1381,5.1349,5.121,5.087,5.0308,4.9759,4.9104,4.8325,4.7168,4.623,4.5958,4.5197,4.431,4.3147,4.1148,3.9267,3.8483,3.5415,3.2827,3.0337,2.95,2.831,2.6167,2.5732,2.5732,2.5732,2.5732,2.5323,3.926,3.926,3.917,3.914,3.914,3.914,3.8796,3.8212,3.7554,3.7667,3.8253,3.8253,3.8732,3.9518,3.9675,3.9824,3.9957,4.012,4.0767,4.181,4.1895,4.2483,4.3516,4.4508,4.5456,4.6445,4.7513,4.8723,4.9887,5.0107,5.0377,5.0663,5.0683,5.0683,5.0683,5.0683,5.0625,5.051,4.9779,4.9433,4.949,4.8142,4.7351,4.7174,4.655,4.6102,4.5937,4.5528,4.516,4.508,4.4525,4.4502,4.5078,4.5131,4.5478,4.6163,4.6809,4.7211,4.736,4.8218,4.9087,4.9923,5.0125,5.0278,5.0509,5.0625,5.0683,5.0683,5.0683,5.0683,5.0683,5.0683,5.0683,5.0683,5.0721,5.0721,5.0683,5.0702,5.0721,5.0683,5.0683,5.0779,5.0991,5.1085,5.116,5.1328,5.1367,5.1366,5.1254,5.1159,5.0871,5.0412,5.0099,4.9777,4.9183,4.7903,4.692,4.6809,4.5544,4.431,4.3426,4.2671,4.1597,4.0415,3.8004,3.5558,3.2697,3.0437,2.8576,2.6512,2.5907,2.5732,2.5732,2.5635,2.5118,3.9424,3.9424,3.9424,3.9424,3.9409,3.9935,3.9682,3.8987,3.913,3.8689,3.805,3.8481,3.8902,3.9345,4.0294,4.0677,4.0717,4.109,4.1747,4.2527,4.217,4.2576,4.363,4.4218,4.521,4.6507,4.7448,4.8577,4.969,4.9773,4.9993,5.0377,5.0585,5.0683,5.0683,5.0683,5.0683,5.0683,5.0298,5.0009,4.9765,4.8852,4.8238,4.8028,4.7494,4.7205,4.7205,4.6978,4.6684,4.6344,4.6072,4.5774,4.5404,4.5693,4.587,4.5947,4.6478,4.7016,4.7384,4.8346,4.9083,4.9412,4.9664,4.9948,5.0336,5.0587,5.0683,5.0683,5.0683,5.0683,5.0683,5.0683,5.0683,5.0683,5.0683,5.0683,5.0683,5.0683,5.0683,5.0683,5.0683,5.076,5.0991,5.1051,5.1136,5.1269,5.1327,5.134,5.1228,5.1139,5.0983,5.0682,5.0506,5.0272,4.9808,4.8404,4.7368,4.703,4.5643,4.4373,4.3426,4.2986,4.2125,4.0946,3.941,3.7526,3.4848,3.2579,3.0283,2.8054,2.6426,2.5907,2.5635,2.4609,2.3384,3.9424,3.9424,3.9424,3.9424,3.9481,4.0115,4.0115,3.9737,4.017,3.9642,3.8635,3.9175,3.9563,3.9866,4.1138,4.172,4.1777,4.2139,4.262,4.3091,4.2604,4.2949,4.4016,4.4281,4.5203,4.6595,4.7441,4.838,4.9251,4.9356,4.9617,5.0068,5.0336,5.0521,5.0699,5.0521,5.0521,5.068,5.0622,5.0442,5.023,4.9746,4.9356,4.9043,4.8532,4.8324,4.8324,4.8324,4.8075,4.7632,4.747,4.6955,4.6032,4.624,4.6143,4.5648,4.6046,4.6677,4.7359,4.8269,4.8785,4.8897,4.9168,4.9523,4.9943,5.0246,5.0464,5.0544,5.0544,5.0504,5.0442,5.0604,5.0644,5.0604,5.0663,5.0683,5.0683,5.0683,5.0683,5.0683,5.0683,5.0741,5.0893,5.0981,5.1097,5.1202,5.1291,5.1303,5.1254,5.1165,5.1063,5.0966,5.0798,5.0584,5.0187,4.8727,4.7607,4.7161,4.569,4.4563,4.368,4.2909,4.2062,4.1198,4.0309,3.8663,3.6508,3.4674,3.2409,3.0039,2.7993,2.6522,2.5713,2.3989,2.2156,3.9424,3.9424,3.9424,3.9424,3.9424,3.9538,3.992,4.0432,3.9864,4.0332,4.1404,4.1677,4.209,4.2813,4.3036,4.3137,4.3086,4.2554,4.2671,4.3212,4.3141,4.3704,4.4862,4.5593,4.6335,4.7077,4.7831,4.8439,4.893,4.8963,4.9337,4.9974,4.9773,4.9997,5.0531,4.9997,4.9952,5.0679,5.0331,5.0294,5.0584,4.9898,4.9493,4.9445,4.8692,4.8324,4.8324,4.8324,4.8267,4.8172,4.7697,4.7342,4.7168,4.671,4.6143,4.5597,4.6063,4.6659,4.7359,4.7992,4.8508,4.8842,4.8932,4.9118,4.9502,4.9598,4.9773,5.0043,5.0135,4.9999,4.9719,5.0249,5.0483,5.0272,5.0483,5.0683,5.0683,5.0683,5.0683,5.0683,5.0683,5.076,5.0875,5.0945,5.1005,5.1187,5.1235,5.1277,5.133,5.12,5.1082,5.1029,5.0895,5.0721,5.0404,4.8912,4.7831,4.7435,4.5945,4.4821,4.4276,4.3621,4.2863,4.1723,4.0946,3.9313,3.7329,3.5607,3.4538,3.1711,2.9647,2.7971,2.6234,2.4412,2.3085,3.9424,3.9424,3.9424,3.9424,3.9481,3.9935,4.0363,4.069,4.0894,4.1362,4.1997,4.252,4.297,4.329,4.3348,4.3612,4.4062,4.3775,4.3803,4.404,4.394,4.4349,4.5163,4.5886,4.6535,4.7149,4.7939,4.8383,4.8568,4.876,4.9094,4.9386,4.9445,4.9684,4.9955,4.9922,4.9694,4.9303,4.9822,5.0068,4.9949,4.9673,4.9386,4.9108,4.8604,4.8324,4.8324,4.8324,4.8324,4.8306,4.8075,4.7775,4.7428,4.7132,4.6728,4.613,4.6238,4.649,4.6793,4.7409,4.7979,4.8526,4.855,4.8711,4.908,4.8915,4.8963,4.9337,4.9589,4.9664,4.9532,4.98,5.0019,5.0092,5.0249,5.0421,5.0683,5.0683,5.0683,5.0683,5.0683,5.0741,5.0875,5.1006,5.1095,5.1208,5.1238,5.1318,5.13,5.1208,5.1106,5.101,5.0895,5.0779,5.0604,4.9516,4.8389,4.7552,4.6436,4.5423,4.4558,4.335,4.2395,4.2062,4.0894,3.9788,3.8502,3.6718,3.5209,3.2908,2.9963,2.7693,2.6004,2.4618,2.3285,3.9424,3.9424,3.9424,3.9424,3.9496,4.006,4.0638,4.108,4.1462,4.2062,4.2707,4.2909,4.3246,4.3621,4.368,4.4006,4.457,4.4759,4.4844,4.4878,4.4906,4.5219,4.5809,4.631,4.6902,4.7441,4.8031,4.8324,4.8344,4.8568,4.8779,4.893,4.9075,4.9271,4.9412,4.958,4.9334,4.8871,4.9465,4.9673,4.9504,4.9386,4.9202,4.8897,4.8513,4.8324,4.8324,4.8324,4.8324,4.8324,4.8324,4.8114,4.7697,4.7656,4.7324,4.6753,4.6672,4.6567,4.6452,4.703,4.7522,4.7775,4.7937,4.8177,4.8402,4.8384,4.8458,4.8709,4.8996,4.9158,4.919,4.9356,4.9589,4.9773,4.9853,5.0068,5.0294,5.0442,5.0523,5.0544,5.0624,5.0721,5.0837,5.0991,5.1104,5.1165,5.1259,5.133,5.1249,5.122,5.1112,5.0979,5.0911,5.0798,5.0624,4.9727,4.8746,4.7776,4.6708,4.5705,4.4801,4.3257,4.2125,4.2062,4.0638,3.9651,3.9045,3.7595,3.6069,3.4278,3.1523,2.8358,2.6744,2.5246,2.3656,3.9424,3.9424,3.9424,3.9424,3.9424,3.9481,4.0462,4.1804,4.1147,4.2173,4.3989,4.2831,4.3031,4.444,4.444,4.457,4.4682,4.5142,4.535,4.5405,4.5988,4.6653,4.7277,4.7335,4.7643,4.8121,4.8233,4.8324,4.8306,4.8344,4.8513,4.8863,4.8568,4.8623,4.8959,4.8713,4.889,4.9495,4.9227,4.9139,4.9386,4.9126,4.8897,4.8829,4.8513,4.8324,4.8324,4.8324,4.8324,4.8324,4.8324,4.8267,4.8267,4.8229,4.7937,4.7414,4.734,4.7056,4.6635,4.7007,4.7142,4.6771,4.716,4.7452,4.7542,4.7901,4.8153,4.8288,4.8233,4.8289,4.8384,4.8945,4.9265,4.9075,4.9326,4.9551,4.9589,4.9949,5.0111,5.0183,5.0421,5.0643,5.0702,5.0818,5.0977,5.1081,5.1175,5.1257,5.1322,5.1232,5.1133,5.1056,5.089,5.0702,5.0605,5.0034,4.8953,4.7813,4.6886,4.58,4.4793,4.3856,4.297,4.2125,4.108,4.0239,3.9666,3.8561,3.7048,3.5318,3.336,3.0714,2.7923,2.6441,2.4664,3.9424,3.9424,3.9424,3.9424,3.9424,3.9424,4.0393,4.1933,4.1658,4.2707,4.4253,4.3931,4.3989,4.457,4.457,4.457,4.4626,4.4797,4.4902,4.5058,4.5932,4.6543,4.6821,4.7569,4.8075,4.8267,4.8324,4.8324,4.8324,4.8324,4.8364,4.8477,4.8364,4.842,4.855,4.8658,4.8783,4.8874,4.8832,4.8829,4.8763,4.8568,4.8513,4.8513,4.8402,4.8324,4.8324,4.8324,4.8324,4.8324,4.8324,4.8324,4.8324,4.8324,4.8035,4.7488,4.7393,4.7275,4.7058,4.6861,4.6883,4.7039,4.6835,4.6774,4.6756,4.6937,4.7088,4.707,4.707,4.7088,4.7288,4.8064,4.8779,4.8897,4.9011,4.9202,4.9445,4.9636,4.9719,4.9773,5.0068,5.0399,5.0643,5.0818,5.096,5.1081,5.1167,5.125,5.1348,5.1328,5.1232,5.1125,5.1026,5.0895,5.0683,5.0486,4.9702,4.8271,4.7057,4.6141,4.5148,4.4037,4.3108,4.2189,4.1346,4.0485,3.9707,3.8368,3.709,3.5411,3.354,3.2043,2.9131,2.7463,2.5411,3.9424,3.9424,3.9424,3.9424,3.9424,3.9424,4.027,4.1528,4.1869,4.2831,4.4064,4.444,4.457,4.457,4.457,4.457,4.4626,4.4814,4.4921,4.502,4.5932,4.6489,4.6817,4.7627,4.8114,4.8267,4.8324,4.8324,4.8324,4.8324,4.8324,4.8306,4.8324,4.8324,4.8344,4.8586,4.8604,4.855,4.8621,4.8604,4.8477,4.8345,4.8324,4.8324,4.8324,4.8324,4.8324,4.8324,4.8324,4.8324,4.8324,4.8324,4.8324,4.8324,4.8114,4.7756,4.7715,4.7603,4.7401,4.6972,4.6769,4.6742,4.6549,4.6318,4.6143,4.6288,4.6365,4.6365,4.6365,4.6365,4.66,4.7349,4.8098,4.8366,4.8403,4.8618,4.9043,4.9252,4.9375,4.9551,4.9898,5.0206,5.0462,5.0739,5.0908,5.105,5.1133,5.125,5.1308,5.1328,5.1304,5.1145,5.1045,5.0914,5.0741,5.0566,5.0077,4.8765,4.7646,4.6639,4.5506,4.4389,4.329,4.2316,4.1412,4.0569,3.9505,3.8175,3.6704,3.5251,3.4383,3.3326,3.0802,2.8419,2.655,3.9424,3.9424,3.9424,3.9424,3.9424,3.9424,3.9935,4.0811,4.1674,4.252,4.3502,4.4196,4.457,4.457,4.457,4.457,4.4665,4.5089,4.5297,4.5391,4.6073,4.6717,4.723,4.747,4.7838,4.8267,4.8324,4.8324,4.8324,4.8324,4.8324,4.8324,4.8324,4.8324,4.8324,4.8364,4.8513,4.8657,4.8532,4.8513,4.8779,4.8495,4.8324,4.8324,4.8324,4.8324,4.8324,4.8324,4.8324,4.8324,4.8324,4.8324,4.8324,4.8324,4.8267,4.8267,4.8267,4.7991,4.7526,4.7379,4.6802,4.6204,4.6145,4.6192,4.5933,4.6063,4.627,4.627,4.624,4.6288,4.6336,4.6819,4.7324,4.7428,4.762,4.7922,4.8309,4.8692,4.9043,4.9416,4.9773,5.0068,5.0202,5.0579,5.0875,5.0938,5.1074,5.1211,5.123,5.123,5.1211,5.1111,5.1053,5.0952,5.0798,5.0625,5.0034,4.9286,4.8255,4.7234,4.6023,4.4847,4.3848,4.2798,4.1674,4.0826,3.9707,3.8442,3.7738,3.647,3.568,3.4532,3.2462,3.0099,2.8168,3.9424,3.9424,3.9424,3.9424,3.9424,3.9424,3.9935,4.0743,4.1609,4.252,4.3366,4.4196,4.457,4.457,4.457,4.457,4.4626,4.4814,4.4916,4.5039,4.5903,4.6465,4.6829,4.7625,4.8114,4.8267,4.8324,4.8324,4.8324,4.8324,4.8324,4.8324,4.8324,4.8324,4.8324,4.8324,4.8402,4.8458,4.8364,4.8364,4.8477,4.8364,4.8324,4.8324,4.8324,4.8324,4.8324,4.8324,4.8324,4.8324,4.8324,4.8324,4.8324,4.8324,4.8324,4.8324,4.8324,4.8269,4.8046,4.7629,4.7252,4.6838,4.6603,4.6336,4.6112,4.5933,4.5815,4.5732,4.5407,4.5178,4.5178,4.532,4.6081,4.7299,4.7756,4.7977,4.8267,4.8421,4.8657,4.9062,4.9445,4.9773,5.0111,5.0519,5.0759,5.0895,5.1033,5.1141,5.1191,5.125,5.1269,5.1187,5.1117,5.1028,5.0874,5.076,5.0402,4.9714,4.8778,4.7701,4.6489,4.5373,4.435,4.318,4.2045,4.0961,3.9778,3.8855,3.8144,3.7266,3.6053,3.4831,3.3682,3.1707,2.9341,3.9424,3.9424,3.9424,3.9424,3.9424,3.9424,3.9666,4.0309,4.1131,4.2126,4.3072,4.3805,4.431,4.4553,4.457,4.457,4.457,4.457,4.457,4.4665,4.532,4.5923,4.6498,4.7711,4.8324,4.8324,4.8324,4.8324,4.8324,4.8324,4.8324,4.8324,4.8324,4.8324,4.8324,4.8324,4.8324,4.8324,4.8324,4.8324,4.8324,4.8324,4.8324,4.8324,4.8324,4.8324,4.8324,4.8324,4.8324,4.8324,4.8324,4.8324,4.8324,4.8324,4.8324,4.8324,4.8324,4.8306,4.8267,4.7959,4.7625,4.7366,4.7017,4.6668,4.6407,4.6014,4.5783,4.5459,4.5232,4.4961,4.4998,4.5178,4.5933,4.7194,4.7428,4.7838,4.8132,4.8324,4.8402,4.8692,4.9011,4.9416,4.9827,5.0225,5.0582,5.0779,5.0933,5.107,5.1148,5.123,5.123,5.123,5.1191,5.1089,5.0935,5.0853,5.0759,5.0054,4.9248,4.8122,4.6958,4.5888,4.4841,4.3267,4.2062,4.1147,4.003,3.9205,3.8457,3.7357,3.6489,3.5346,3.4087,3.2005,2.9919,3.9424,3.9424,3.9424,3.9424,3.9424,3.9424,3.9409,3.9538,4.0378,4.1472,4.2542,4.3207,4.3814,4.444,4.457,4.457,4.457,4.457,4.457,4.457,4.4814,4.5338,4.6611,4.7761,4.8267,4.8324,4.8324,4.8324,4.8324,4.8324,4.8324,4.8324,4.8324,4.8324,4.8324,4.8324,4.8324,4.8324,4.8324,4.8324,4.8324,4.8324,4.8324,4.8324,4.8324,4.8324,4.8324,4.8324,4.8324,4.8324,4.8324,4.8324,4.8324,4.8324,4.8324,4.8382,4.8344,4.8343,4.8343,4.8247,4.8014,4.7603,4.7506,4.7229,4.6775,4.6571,4.6288,4.5883,4.5648,4.5545,4.5648,4.5915,4.6618,4.7132,4.7176,4.7367,4.8075,4.8267,4.8344,4.8383,4.8657,4.9062,4.9475,4.9872,5.0291,5.0542,5.0779,5.0987,5.1078,5.1172,5.1211,5.123,5.125,5.1154,5.1011,5.095,5.0875,5.0418,4.9641,4.866,4.7387,4.6283,4.5181,4.3631,4.2301,4.1311,4.0363,3.9621,3.8929,3.8234,3.719,3.5987,3.4489,3.2684,3.1288,3.9424,3.9424,3.9424,3.9424,3.9424,3.9424,3.9424,3.9481,4.0309,4.0986,4.1726,4.2766,4.3756,4.457,4.457,4.457,4.457,4.457,4.457,4.457,4.457,4.5614,4.6955,4.7897,4.8324,4.8324,4.8324,4.8324,4.8324,4.8324,4.8324,4.8324,4.8324,4.8324,4.8324,4.8324,4.8324,4.8324,4.8324,4.8324,4.8324,4.8324,4.8324,4.8324,4.8324,4.8324,4.8324,4.8324,4.8324,4.8324,4.8324,4.8324,4.8324,4.8306,4.8421,4.8604,4.8458,4.8416,4.8601,4.8434,4.819,4.809,4.8004,4.7968,4.782,4.7367,4.7088,4.6819,4.6478,4.6143,4.6192,4.6336,4.6774,4.7299,4.7512,4.7697,4.7756,4.8035,4.8324,4.8344,4.8657,4.8897,4.9171,4.9617,5.0111,5.031,5.06,5.0933,5.1024,5.1152,5.1191,5.1308,5.1328,5.1211,5.1123,5.108,5.0914,5.0642,5.0016,4.9284,4.7904,4.6504,4.5372,4.4097,4.2961,4.2027,4.0935,3.9935,3.9436,3.921,3.7571,3.6369,3.5548,3.4126,3.2982,3.9424,3.9424,3.9424,3.9424,3.9424,3.9424,3.9424,3.9481,3.992,4.0702,4.1533,4.2345,4.341,4.4514,4.457,4.457,4.457,4.457,4.457,4.4737,4.5125,4.5965,4.6999,4.7797,4.8324,4.8324,4.8324,4.8324,4.8324,4.8324,4.8324,4.8324,4.8324,4.8324,4.8324,4.8324,4.8324,4.8324,4.8324,4.8324,4.8324,4.8324,4.8324,4.8324,4.8324,4.8324,4.8324,4.8324,4.8324,4.8324,4.8324,4.8324,4.8306,4.8477,4.8568,4.8657,4.8568,4.8606,4.8584,4.8416,4.8324,4.8306,4.8324,4.8324,4.8229,4.7937,4.7756,4.7342,4.7017,4.6864,4.6864,4.7044,4.7219,4.7428,4.7937,4.8132,4.7816,4.8132,4.8267,4.8364,4.8513,4.8763,4.8863,4.9356,4.97,5.0043,5.0329,5.0677,5.0931,5.1084,5.1191,5.1289,5.1367,5.1269,5.1162,5.1109,5.1126,5.0836,5.0511,4.9803,4.8635,4.7158,4.5961,4.4858,4.3754,4.2703,4.1787,4.1016,4.0876,4.007,3.8282,3.7118,3.6429,3.5279,3.4247,3.9265,3.9265,3.9337,3.9424,3.9424,3.9424,3.9424,3.9424,3.9595,4.0569,4.1772,4.2109,4.3213,4.457,4.457,4.457,4.457,4.457,4.457,4.4927,4.5545,4.6312,4.6571,4.7738,4.8267,4.8324,4.8324,4.8324,4.8324,4.8324,4.8324,4.8324,4.8324,4.8324,4.8324,4.8324,4.8324,4.8324,4.8324,4.8324,4.8324,4.8324,4.8324,4.8324,4.8324,4.8382,4.8364,4.8364,4.8326,4.8476,4.8364,4.8344,4.8383,4.8709,4.8813,4.8657,4.8813,4.8763,4.8587,4.8569,4.8419,4.842,4.8364,4.8324,4.8267,4.8229,4.8035,4.7656,4.753,4.747,4.753,4.7937,4.7937,4.7756,4.8035,4.8267,4.8324,4.8324,4.8324,4.8324,4.8306,4.8477,4.8728,4.8963,4.9265,4.9827,5.0197,5.0619,5.0875,5.1039,5.1141,5.123,5.1289,5.1328,5.1228,5.1157,5.1183,5.1105,5.0905,5.0374,4.9575,4.8214,4.6877,4.5771,4.4976,4.4019,4.3033,4.2604,4.2232,4.1055,3.9275,3.8521,3.7883,3.6239,3.4966,3.8159,3.8234,3.9017,3.9424,3.9424,3.9424,3.9424,3.9466,4.0115,4.1028,4.1997,4.2724,4.3621,4.457,4.457,4.457,4.457,4.457,4.457,4.4742,4.5486,4.6076,4.6593,4.7697,4.8229,4.8324,4.8324,4.8324,4.8324,4.8324,4.8324,4.8324,4.8324,4.8324,4.8324,4.8324,4.8324,4.8324,4.8324,4.8324,4.8324,4.8324,4.8306,4.8326,4.8306,4.8477,4.8621,4.8458,4.8604,4.8915,4.8692,4.8513,4.8692,4.8621,4.8863,4.9326,4.9139,4.9139,4.9472,4.9086,4.8772,4.8765,4.8514,4.8324,4.8324,4.8306,4.8267,4.8132,4.8114,4.8017,4.8075,4.819,4.821,4.8132,4.8172,4.8324,4.8324,4.8324,4.8324,4.8324,4.8324,4.8344,4.844,4.9043,4.9356,4.9673,5.0087,5.0581,5.0818,5.0985,5.1089,5.1167,5.1249,5.1313,5.1361,5.1353,5.1528,5.1644,5.1504,5.1495,5.0689,4.9547,4.8323,4.7277,4.6333,4.5396,4.4383,4.3485,4.2999,4.1626,4.0505,3.9491,3.8407,3.6924,3.5659,3.7343,3.7843,3.8383,3.8943,3.9352,3.9424,3.9403,3.9561,4.0339,4.1702,4.2954,4.3394,4.3814,4.457,4.457,4.457,4.457,4.457,4.457,4.4725,4.5321,4.5905,4.6518,4.7367,4.7995,4.8229,4.8324,4.8324,4.8324,4.8324,4.8324,4.8324,4.8324,4.8324,4.8324,4.8324,4.8324,4.8324,4.8324,4.8324,4.8324,4.8324,4.8421,4.8477,4.844,4.855,4.9075,4.8821,4.8964,4.9235,4.9075,4.893,4.9152,4.9139,4.9397,4.9589,4.97,4.9504,4.9655,4.9465,4.9198,4.9177,4.8824,4.8643,4.8513,4.8421,4.8324,4.8324,4.8324,4.8324,4.8324,4.8324,4.8324,4.8324,4.8324,4.8324,4.8324,4.8324,4.8324,4.8324,4.8324,4.8324,4.8513,4.922,4.9439,4.9731,5.0063,5.0533,5.074,5.091,5.1015,5.1125,5.1218,5.1308,5.1402,5.1583,5.1948,5.2166,5.2335,5.2583,5.2501,5.1252,4.9916,4.8882,4.7885,4.6817,4.5781,4.4785,4.3919,4.3196,4.2093,4.0512,3.9172,3.8021,3.6662,3.6618,3.7601,3.7753,3.8397,3.9337,3.9424,3.9511,3.9856,4.0557,4.2301,4.412,4.3767,4.4006,4.444,4.457,4.457,4.457,4.457,4.457,4.4703,4.5027,4.5737,4.6436,4.7281,4.7897,4.8267,4.8324,4.8324,4.8324,4.8324,4.8324,4.8324,4.8324,4.8324,4.8324,4.8324,4.8324,4.8324,4.8324,4.8324,4.8324,4.8306,4.8495,4.8709,4.8633,4.8841,4.9334,4.9281,4.922,4.9606,4.9617,4.9617,4.9746,4.9773,5.0019,4.9692,4.9949,4.9968,4.9891,4.9702,4.9593,4.957,4.9224,4.8953,4.8837,4.8604,4.8421,4.8344,4.8324,4.8324,4.8324,4.8324,4.8324,4.8324,4.8324,4.8324,4.8343,4.8379,4.86,4.86,4.8746,4.882,4.9122,4.9666,4.9701,4.9833,5.0247,5.0616,5.0889,5.101,5.127,5.1228,5.1333,5.1699,5.1836,5.2025,5.2348,5.3014,5.3263,5.3593,5.3932,5.3,5.1712,5.0434,4.9407,4.8232,4.7082,4.6069,4.5318,4.4794,4.3434,4.1674,4.0337,3.9231,3.7791,3.5521,3.6526,3.742,3.8397,3.9337,3.9424,3.9935,4.082,4.1446,4.2844,4.4367,4.4406,4.4384,4.457,4.457,4.457,4.457,4.457,4.4626,4.4644,4.4854,4.5356,4.6529,4.7434,4.8075,4.8267,4.8324,4.8324,4.8324,4.8324,4.8324,4.8324,4.8324,4.8324,4.8324,4.8324,4.8324,4.8324,4.8324,4.8324,4.8324,4.8344,4.8513,4.8893,4.88,4.92,4.9714,4.9671,4.974,5.0387,5.0183,5.0206,5.0249,4.9949,4.9974,5.0249,5.0225,5.0225,5.0291,5.0174,5.0032,4.9917,4.9627,4.927,4.9015,4.8813,4.8604,4.8364,4.8324,4.8324,4.8324,4.8324,4.8324,4.8324,4.8324,4.8361,4.8489,4.8857,4.9352,4.9499,4.9499,4.9559,4.9973,5.0424,5.0811,5.114,5.161,5.1893,5.2141,5.2049,5.1933,5.1761,5.151,5.1953,5.2383,5.2578,5.2921,5.395,5.4368,5.4608,5.4762,5.4496,5.354,5.2158,5.0743,4.9482,4.8354,4.7226,4.6077,4.5164,4.3913,4.2629,4.1337,4.0045,3.9169,3.5278,3.6277,3.7343,3.8397,3.9394,3.992,4.0423,4.1204,4.2204,4.3377,4.429,4.4575,4.457,4.457,4.457,4.457,4.457,4.457,4.4759,4.4953,4.4818,4.547,4.673,4.7542,4.7922,4.8192,4.8324,4.8324,4.8324,4.8324,4.8324,4.8324,4.8324,4.8324,4.8324,4.8324,4.8324,4.8324,4.8324,4.8306,4.8306,4.8306,4.8604,4.9014,4.9066,4.9432,5.0144,5.0026,5.0086,5.0509,5.0523,5.0544,5.0504,5.0421,5.0272,5.0565,5.0504,5.0442,5.0663,5.0523,5.044,5.0377,5.0032,4.9757,4.9445,4.9152,4.8797,4.8458,4.8324,4.8324,4.8324,4.8324,4.8324,4.8324,4.8343,4.8563,4.8912,4.9352,4.9939,5.0472,5.0453,5.0577,5.0897,5.1376,5.1949,5.2441,5.2924,5.3155,5.3376,5.305,5.2704,5.2524,5.231,5.2558,5.3086,5.3437,5.3672,5.4597,5.5203,5.5441,5.5297,5.4903,5.4522,5.3695,5.2251,5.0717,4.9282,4.8069,4.6873,4.5586,4.4297,4.3016,4.2015,4.0986,4.0131,3.5292,3.6277,3.7343,3.8383,3.9394,4.0115,4.0671,4.1244,4.2375,4.3426,4.431,4.4497,4.457,4.457,4.457,4.457,4.457,4.457,4.4906,4.5303,4.5265,4.597,4.6944,4.7464,4.7729,4.8249,4.8324,4.8324,4.8324,4.8324,4.8324,4.8324,4.8324,4.8324,4.8324,4.8324,4.8324,4.8324,4.8324,4.8288,4.8383,4.8458,4.8813,4.9522,4.9306,4.9682,5.0467,5.0394,5.0375,5.0606,5.0683,5.0683,5.0683,5.0683,5.0683,5.0683,5.0683,5.0683,5.0683,5.0702,5.0624,5.0604,5.039,5.0193,4.9917,4.9426,4.893,4.8604,4.8458,4.8458,4.8495,4.8382,4.8324,4.8379,4.8508,4.882,4.9407,5.0013,5.0784,5.1151,5.1261,5.1632,5.2084,5.2755,5.3395,5.3579,5.4039,5.4156,5.426,5.3799,5.3475,5.337,5.3273,5.3377,5.3808,5.4433,5.4707,5.522,5.563,5.5843,5.5504,5.5115,5.4722,5.4298,5.3458,5.1943,5.0435,4.8872,4.7603,4.6223,4.4703,4.3491,4.26,4.1767,4.0986,3.5292,3.629,3.7343,3.8383,3.9322,3.961,4.003,4.0883,4.1837,4.2645,4.3621,4.4253,4.457,4.457,4.457,4.457,4.4626,4.472,4.5052,4.5562,4.5888,4.6486,4.7428,4.7977,4.8038,4.8324,4.8324,4.8324,4.8324,4.8324,4.8324,4.8324,4.8324,4.8324,4.8324,4.8324,4.8324,4.8324,4.8306,4.8495,4.8709,4.8779,4.9265,4.9721,4.9963,5.0088,5.0603,5.0587,5.0625,5.0644,5.0683,5.0683,5.0683,5.0683,5.0683,5.0683,5.0683,5.0683,5.0683,5.0683,5.0683,5.0683,5.0603,5.044,5.0111,4.9746,4.9386,4.9386,4.9043,4.8829,4.8797,4.855,4.842,4.8696,4.9122,4.9453,4.9949,5.0855,5.1609,5.2264,5.2471,5.2958,5.3439,5.417,5.4814,5.4944,5.5073,5.5135,5.5088,5.4587,5.4087,5.3898,5.4157,5.4292,5.4414,5.5058,5.543,5.584,5.5959,5.609,5.5685,5.5256,5.4876,5.4396,5.3721,5.3051,5.1712,5.0145,4.845,4.691,4.5507,4.4357,4.3394,4.2534,4.1753,3.5278,3.6277,3.7329,3.8397,3.9394,3.992,4.0293,4.0946,4.2141,4.2925,4.3426,4.4196,4.457,4.457,4.457,4.457,4.4665,4.4961,4.5459,4.5909,4.6369,4.6967,4.7783,4.8172,4.8324,4.8324,4.8324,4.8324,4.8324,4.8324,4.8324,4.8324,4.8324,4.8324,4.8288,4.8306,4.8324,4.8364,4.8477,4.8604,4.8692,4.8996,4.9416,4.9773,5.0001,5.0307,5.0581,5.0683,5.0683,5.0683,5.0683,5.0683,5.0683,5.0683,5.0683,5.0683,5.0683,5.0683,5.0683,5.0683,5.0702,5.0683,5.0663,5.0523,5.0183,4.9949,4.9719,4.9504,4.9356,4.9265,4.9234,4.9094,4.9347,4.9635,4.9942,5.0741,5.1227,5.1733,5.2494,5.3125,5.3681,5.3971,5.4202,5.4491,5.5012,5.5308,5.5378,5.5429,5.5472,5.5318,5.4799,5.4299,5.474,5.521,5.5254,5.5566,5.582,5.6115,5.6046,5.6073,5.5756,5.5375,5.4979,5.4528,5.3975,5.3296,5.2615,5.1063,4.911,4.7666,4.6255,4.5133,4.3989,4.3314,4.226,3.5278,3.6277,3.7329,3.8397,3.9409,4.0115,4.0378,4.0569,4.1869,4.2724,4.3229,4.4047,4.457,4.457,4.4626,4.472,4.4852,4.532,4.5965,4.6411,4.6729,4.7252,4.7947,4.8324,4.8324,4.8324,4.8324,4.8324,4.8344,4.8402,4.8476,4.8306,4.8324,4.8324,4.8327,4.8328,4.8342,4.8581,4.8776,4.8863,4.8963,4.9386,4.9664,4.9891,5.01,5.039,5.0643,5.0683,5.0683,5.0683,5.0683,5.0683,5.0683,5.0683,5.0721,5.0741,5.076,5.0779,5.0798,5.0798,5.076,5.0721,5.0683,5.0584,5.0377,5.0249,5.0183,4.9924,4.9719,4.9673,4.9617,4.9561,4.983,5.0308,5.0885,5.1956,5.2812,5.3042,5.3265,5.3725,5.4176,5.4484,5.4671,5.4671,5.5034,5.5535,5.5684,5.5684,5.5684,5.5665,5.5395,5.4855,5.5248,5.5707,5.5801,5.5976,5.625,5.631,5.6239,5.6055,5.5758,5.5375,5.4979,5.4528,5.4118,5.3336,5.2526,5.1147,4.9777,4.8511,4.716,4.5683,4.4646,4.3849,4.2548,3.5278,3.6277,3.7343,3.8383,3.9409,3.9424,3.9481,3.9681,4.0638,4.1609,4.2645,4.3798,4.457,4.457,4.4665,4.4906,4.5425,4.5511,4.6257,4.6901,4.7222,4.7597,4.8078,4.8324,4.8306,4.8364,4.8402,4.8402,4.8439,4.8797,4.8604,4.8382,4.8511,4.8399,4.8384,4.8472,4.8634,4.889,4.9046,4.9356,4.9617,4.9974,5.0159,5.0462,5.0584,5.0663,5.0683,5.0683,5.0683,5.0683,5.0683,5.0683,5.0683,5.0721,5.076,5.0818,5.0892,5.0931,5.0972,5.0952,5.0895,5.0837,5.0779,5.0741,5.0641,5.0663,5.0623,5.0521,5.0259,5.0106,4.9968,4.9876,5.0201,5.1063,5.182,5.2636,5.3452,5.4004,5.422,5.4428,5.4659,5.4867,5.508,5.5107,5.516,5.5621,5.5684,5.5684,5.5684,5.5684,5.5684,5.5549,5.5818,5.6091,5.615,5.6289,5.6395,5.633,5.622,5.6039,5.5761,5.5369,5.4979,5.4528,5.4065,5.3278,5.2463,5.1319,5.0253,4.9361,4.8015,4.5991,4.4464,4.3506,4.2111,3.4358,3.5278,3.5775,3.7266,3.9424,3.9424,3.9424,3.9681,4.0894,4.2316,4.3545,4.431,4.457,4.4626,4.4626,4.4961,4.5511,4.5915,4.6618,4.7263,4.7684,4.802,4.8306,4.8382,4.8439,4.8604,4.8692,4.8847,4.9075,4.9202,4.9171,4.9057,4.9009,4.8882,4.8816,4.8871,4.9058,4.9174,4.9429,4.9773,4.9719,5.0249,5.0438,5.0298,5.0642,5.0663,5.0683,5.0683,5.0683,5.0683,5.0683,5.0683,5.0721,5.076,5.0837,5.0914,5.096,5.1073,5.1125,5.1087,5.1029,5.1029,5.0991,5.0933,5.0932,5.0933,5.0933,5.0855,5.0778,5.0621,5.0538,5.053,5.0868,5.1873,5.2709,5.3347,5.4116,5.4723,5.4952,5.5102,5.5045,5.5088,5.5306,5.5489,5.5554,5.5662,5.5684,5.5684,5.5684,5.5684,5.5684,5.5742,5.5994,5.6152,5.6205,5.6348,5.6473,5.6359,5.6201,5.6001,5.5758,5.535,5.496,5.4528,5.4011,5.3197,5.24,5.1625,5.0699,4.9729,4.7908,4.577,4.4433,4.3081,4.1587,3.4037,3.4733,3.5035,3.6549,3.8782,3.8943,3.909,3.961,4.0638,4.2189,4.3856,4.4236,4.472,4.4814,4.4906,4.5425,4.6081,4.6589,4.7088,4.7596,4.8075,4.8364,4.8458,4.855,4.8728,4.8996,4.9108,4.9215,4.9416,4.9608,4.9532,4.9537,4.9715,4.9565,4.9244,4.9326,4.9514,4.9701,4.981,5.0111,4.9949,5.0377,5.0623,5.0386,5.0603,5.0663,5.0683,5.0683,5.0683,5.0683,5.0683,5.0702,5.076,5.0837,5.0933,5.0987,5.1067,5.1179,5.1213,5.1169,5.1125,5.1132,5.1091,5.108,5.1073,5.109,5.1041,5.1064,5.1051,5.1054,5.096,5.0931,5.1586,5.256,5.2979,5.3648,5.4837,5.559,5.5657,5.5723,5.5642,5.5533,5.5504,5.5676,5.566,5.5703,5.5684,5.5684,5.5684,5.5684,5.5684,5.5761,5.5936,5.6068,5.6185,5.6337,5.6422,5.631,5.6172,5.602,5.5753,5.532,5.4905,5.4547,5.3885,5.3116,5.2226,5.1325,5.0716,5.0111,4.7928,4.553,4.3557,4.2179,4.0986,3.4581,3.4775,3.5672,3.6753,3.7904,3.7904,3.8442,3.9394,3.9793,4.0842,4.2583,4.3914,4.4852,4.5232,4.5178,4.5783,4.6728,4.7106,4.7512,4.8035,4.8345,4.8568,4.8744,4.8897,4.9094,4.9386,4.9504,4.9532,4.9636,4.9949,4.9879,4.9879,5.0152,5.0201,4.958,4.9504,4.9905,5.0464,5.0252,5.0336,5.0483,5.0643,5.0643,5.0643,5.0643,5.0683,5.0683,5.0721,5.0741,5.0741,5.076,5.0798,5.0895,5.0933,5.1029,5.1151,5.118,5.1261,5.135,5.1252,5.1187,5.1169,5.1132,5.1098,5.1093,5.1093,5.1092,5.1094,5.1113,5.1113,5.1093,5.1194,5.2089,5.2953,5.3358,5.4091,5.5249,5.602,5.6001,5.6018,5.6077,5.609,5.5915,5.5818,5.5761,5.5722,5.5703,5.5703,5.5703,5.5684,5.5684,5.578,5.5917,5.6059,5.6207,5.6325,5.6372,5.6271,5.6145,5.5982,5.56,5.5099,5.476,5.4484,5.3647,5.2685,5.182,5.1016,4.9985,4.8809,4.7441,4.528,4.3135,4.1239,4.0104,3.4024,3.469,3.5067,3.6221,3.7648,3.7826,3.8413,3.9493,4.0569,4.1804,4.2909,4.4121,4.4665,4.4852,4.5089,4.5699,4.6618,4.6756,4.7176,4.8288,4.8532,4.8709,4.8945,4.9215,4.9504,4.98,4.9924,5.0049,5.0336,5.0402,5.0421,5.0462,5.0462,5.0525,5.0358,5.0294,5.0504,5.0643,5.0584,5.0584,5.0683,5.0683,5.0683,5.0683,5.0702,5.0702,5.0721,5.0798,5.0837,5.0856,5.0894,5.097,5.1027,5.1046,5.1083,5.1167,5.1167,5.1199,5.121,5.1148,5.1146,5.1141,5.1122,5.1079,5.1093,5.1093,5.1093,5.1105,5.1132,5.1125,5.1113,5.1143,5.1876,5.3091,5.378,5.4576,5.5475,5.5941,5.6168,5.6149,5.6185,5.6203,5.6076,5.6001,5.5943,5.5885,5.5866,5.5765,5.5763,5.5703,5.5703,5.5799,5.5917,5.6077,5.6207,5.6317,5.6313,5.6244,5.6082,5.5902,5.547,5.4998,5.4689,5.4471,5.3339,5.2177,5.1205,5.0136,4.8574,4.7224,4.5984,4.4492,4.2335,4.0618,3.9278,3.3484,3.4121,3.4515,3.5697,3.7147,3.7661,3.856,3.996,4.1346,4.252,4.3366,4.4196,4.4759,4.4906,4.5232,4.5699,4.671,4.7026,4.7404,4.8477,4.8744,4.9075,4.9337,4.9561,4.9924,5.0183,5.0336,5.0442,5.0604,5.0663,5.0663,5.0624,5.0683,5.0644,5.0624,5.0624,5.0663,5.0683,5.0663,5.0663,5.0683,5.0702,5.0721,5.0741,5.0779,5.0798,5.0837,5.0914,5.097,5.1001,5.1045,5.1102,5.1101,5.1128,5.1128,5.1125,5.1144,5.1141,5.1126,5.1033,5.1043,5.1082,5.1087,5.1095,5.1089,5.1088,5.1088,5.1109,5.1128,5.1121,5.1102,5.1144,5.1738,5.2938,5.3726,5.4487,5.5307,5.5775,5.6227,5.622,5.6235,5.6219,5.622,5.6207,5.6137,5.6084,5.6014,5.5923,5.5847,5.5825,5.5806,5.5902,5.5997,5.6134,5.6223,5.6266,5.6249,5.6201,5.6033,5.584,5.5499,5.5061,5.476,5.4303,5.312,5.185,5.0521,4.9197,4.7572,4.6077,4.4657,4.3135,4.1392,3.9989,3.8644,3.3154,3.3322,3.423,3.5353,3.6484,3.7782,3.9147,4.0758,4.1674,4.252,4.3366,4.4293,4.4944,4.5494,4.6046,4.6664,4.7263,4.7802,4.8327,4.8779,4.9067,4.9464,4.98,5.0087,5.0313,5.0544,5.0644,5.0585,5.0683,5.0683,5.0683,5.0702,5.0721,5.0721,5.0702,5.0741,5.0721,5.0702,5.0721,5.0741,5.0741,5.076,5.0818,5.0875,5.0914,5.0952,5.1006,5.107,5.1087,5.1108,5.1122,5.1108,5.1107,5.1093,5.1084,5.1074,5.1109,5.1064,5.1029,5.0933,5.0895,5.0933,5.0972,5.1029,5.1029,5.1005,5.0984,5.1022,5.1037,5.105,5.107,5.1273,5.1518,5.2399,5.3164,5.4041,5.4982,5.5587,5.6079,5.6241,5.6232,5.623,5.621,5.6207,5.6203,5.6172,5.6113,5.6124,5.6064,5.6091,5.6074,5.6078,5.6175,5.6232,5.6278,5.625,5.6168,5.6101,5.5961,5.5758,5.5437,5.5061,5.464,5.3992,5.2894,5.1518,4.9706,4.8072,4.6581,4.5028,4.359,4.2254,4.0746,3.9453,3.7989,3.3569,3.4288,3.458,3.6058,3.8311,4.0063,4.0826,4.0878,4.2252,4.3108,4.3366,4.4657,4.532,4.5563,4.6143,4.6801,4.7355,4.7864,4.8379,4.8876,4.9431,4.9822,5.0125,5.0374,5.0584,5.0663,5.0683,5.0702,5.0702,5.0702,5.0702,5.0702,5.0798,5.0779,5.0818,5.0875,5.0818,5.0798,5.0818,5.0818,5.0856,5.0913,5.0971,5.1029,5.1029,5.1061,5.1105,5.114,5.1147,5.1159,5.1179,5.1183,5.1166,5.1125,5.108,5.0951,5.0894,5.0818,5.0798,5.0779,5.076,5.076,5.0798,5.0798,5.0818,5.0818,5.0837,5.0895,5.0914,5.0921,5.0948,5.1081,5.1314,5.1864,5.2587,5.3293,5.4198,5.4859,5.5374,5.6046,5.6051,5.6185,5.6188,5.6192,5.62,5.6216,5.6224,5.6224,5.6206,5.6215,5.6216,5.6212,5.6239,5.6265,5.6238,5.6207,5.6096,5.6,5.5803,5.5566,5.5179,5.4819,5.442,5.3477,5.21,5.0415,4.85,4.7039,4.573,4.4067,4.2613,4.1349,4.0131,3.872,3.6944,3.3471,3.414,3.4933,3.6971,3.9714,4.1325,4.1804,4.1917,4.2847,4.3512,4.4249,4.5056,4.5648,4.5965,4.6571,4.714,4.7652,4.8218,4.88,4.9464,4.986,5.0144,5.0393,5.0562,5.0643,5.0683,5.0702,5.0741,5.0779,5.0837,5.0837,5.0779,5.0914,5.0947,5.0951,5.101,5.1014,5.0955,5.0962,5.0964,5.1013,5.1041,5.1093,5.1142,5.1125,5.1139,5.1131,5.1177,5.1189,5.1148,5.1163,5.1148,5.1083,5.0991,5.0914,5.0818,5.0779,5.0721,5.0721,5.0702,5.0683,5.0683,5.0664,5.0702,5.0702,5.0721,5.0721,5.0741,5.0779,5.0779,5.0778,5.0816,5.1083,5.1357,5.1934,5.2502,5.3222,5.3938,5.4705,5.5538,5.5876,5.6078,5.6142,5.6149,5.6194,5.6218,5.6213,5.6201,5.6222,5.6216,5.6209,5.6211,5.6239,5.627,5.62,5.6057,5.5855,5.5698,5.5485,5.5224,5.4895,5.4345,5.3739,5.2553,5.1129,4.9406,4.772,4.6421,4.5091,4.3326,4.1594,4.002,3.872,3.7495,3.5433,3.3081,3.3303,3.5385,3.7881,4.048,4.1609,4.252,4.3306,4.3366,4.4209,4.5285,4.5563,4.5965,4.6524,4.7176,4.7625,4.8104,4.86,4.9171,5.0069,5.0169,5.0355,5.0563,5.0683,5.0683,5.0683,5.0741,5.0817,5.0913,5.0971,5.0972,5.0914,5.1029,5.1101,5.1136,5.1152,5.1162,5.1117,5.1094,5.1074,5.1101,5.1122,5.1122,5.116,5.1166,5.1176,5.1172,5.1189,5.1189,5.1127,5.1058,5.101,5.0906,5.0798,5.0721,5.0682,5.0682,5.0544,5.0504,5.0483,5.0509,5.0528,5.0605,5.0464,5.0358,5.0483,5.0504,5.0565,5.0582,5.0562,5.056,5.0409,5.0514,5.0736,5.113,5.1606,5.2126,5.2973,5.3951,5.4737,5.5288,5.5466,5.5566,5.5503,5.5503,5.583,5.591,5.5849,5.5943,5.5942,5.6064,5.6066,5.6191,5.6164,5.5928,5.5767,5.5558,5.5377,5.5138,5.4838,5.4484,5.3776,5.2978,5.149,4.9924,4.8657,4.7157,4.5873,4.4327,4.2423,4.0576,3.8768,3.7233,3.5906,3.3734,3.3081,3.3411,3.6031,3.8135,3.9702,4.2027,4.3047,4.3383,4.4006,4.4708,4.5494,4.5965,4.6524,4.7106,4.7715,4.8117,4.8365,4.8959,4.9405,4.9891,5.023,5.0504,5.0683,5.0702,5.0702,5.0721,5.0798,5.0924,5.102,5.1064,5.1093,5.1062,5.115,5.1192,5.1217,5.124,5.1249,5.1193,5.1167,5.1127,5.1092,5.1141,5.1162,5.1135,5.111,5.1127,5.1123,5.1111,5.1114,5.1078,5.0982,5.0874,5.076,5.0702,5.0523,5.0358,5.0462,5.0313,5.0111,5.0097,5.0103,4.9893,4.9824,4.9791,4.9872,5.0092,5.0249,5.0336,5.0377,5.0313,5.0225,5.0038,4.991,5.012,5.0304,5.0665,5.1068,5.2096,5.3131,5.3864,5.4495,5.4743,5.4867,5.4943,5.4903,5.4884,5.4866,5.4924,5.5157,5.5274,5.5588,5.5712,5.6058,5.6039,5.5714,5.5418,5.5187,5.4922,5.4659,5.4355,5.4013,5.2941,5.1856,5.022,4.8673,4.7539,4.6475,4.54,4.379,4.172,3.9751,3.7909,3.5338,3.3644,3.149,3.3398,3.4108,3.6535,3.8457,4.0046,4.19,4.2909,4.3426,4.4196,4.4944,4.5563,4.6161,4.6774,4.7446,4.8035,4.8458,4.864,4.9202,4.9568,4.9945,5.032,5.0585,5.0702,5.0741,5.0779,5.0818,5.0952,5.1093,5.1131,5.12,5.1239,5.1181,5.12,5.1203,5.121,5.125,5.1242,5.1164,5.1159,5.1121,5.1047,5.1078,5.1142,5.1114,5.1081,5.107,5.1015,5.1009,5.0966,5.0933,5.0837,5.0622,5.0502,5.0399,5.0206,5.0019,4.9949,4.9993,4.9692,4.9551,4.9556,4.9219,4.939,4.9523,4.8679,4.8909,4.9447,4.9561,4.9827,4.9846,4.9692,4.9522,4.9464,4.955,4.9604,4.9796,5.0334,5.1124,5.2193,5.3099,5.3691,5.4186,5.4387,5.4678,5.4666,5.4666,5.4535,5.4377,5.4534,5.4496,5.4857,5.5189,5.5446,5.5472,5.5102,5.4857,5.4716,5.4458,5.4187,5.3647,5.3079,5.1921,5.0592,4.9171,4.7814,4.6686,4.5674,4.454,4.2942,4.0873,3.8918,3.7038,3.4353,3.1622,2.9704,3.3771,3.5075,3.6852,3.8796,4.071,4.1633,4.252,4.3366,4.4253,4.4961,4.5545,4.6161,4.6756,4.7409,4.8017,4.8477,4.8897,4.9295,4.9689,5.0065,5.0489,5.0683,5.0779,5.0818,5.0895,5.0991,5.1106,5.1145,5.1172,5.1252,5.1267,5.1218,5.1199,5.118,5.1177,5.1141,5.1095,5.1078,5.1057,5.0991,5.0972,5.0991,5.1029,5.1049,5.1049,5.0991,5.0914,5.0856,5.0798,5.0721,5.0642,5.0438,5.0221,5.0087,4.9754,4.9589,4.9608,4.9456,4.9146,4.9077,4.8765,4.8607,4.8983,4.8672,4.7782,4.7844,4.8384,4.8627,4.888,4.9027,4.8898,4.8874,4.8841,4.8911,4.8887,4.898,4.9604,5.0194,5.1115,5.214,5.2615,5.3165,5.3536,5.3894,5.3988,5.4058,5.4129,5.4166,5.4077,5.3849,5.3883,5.4194,5.4482,5.443,5.4392,5.4359,5.4277,5.3961,5.3644,5.2968,5.2226,5.1187,4.9951,4.8382,4.7075,4.5881,4.4598,4.3461,4.1753,3.9871,3.7638,3.5511,3.3081,3.0483,2.8251,3.4175,3.5981,3.6401,3.8148,4.0613,4.1642,4.252,4.3366,4.4253,4.4961,4.5563,4.6161,4.6756,4.7428,4.8035,4.8532,4.9011,4.9386,4.974,5.0095,5.0523,5.0721,5.0837,5.0952,5.101,5.1095,5.1184,5.1233,5.1196,5.1206,5.1233,5.1197,5.1135,5.1106,5.1106,5.1059,5.1015,5.0964,5.0926,5.0875,5.0818,5.0818,5.0837,5.0818,5.0779,5.076,5.0741,5.0721,5.0702,5.0604,5.038,5.0174,4.9981,4.9711,4.9386,4.9019,4.907,4.8649,4.8383,4.8218,4.7868,4.715,4.7346,4.7265,4.6708,4.672,4.7014,4.6908,4.7157,4.7499,4.7514,4.7736,4.7791,4.8104,4.8216,4.8421,4.8862,4.927,4.9834,5.0423,5.0833,5.1228,5.1505,5.1708,5.1726,5.1745,5.1763,5.1915,5.2531,5.266,5.275,5.3047,5.3306,5.3758,5.3851,5.3943,5.3851,5.3505,5.3096,5.2436,5.1656,5.0735,4.9333,4.7604,4.6309,4.5144,4.3852,4.2423,4.0377,3.8439,3.61,3.3808,3.1556,2.9452,2.7416]},{"header":{"parameterUnit":"m.s-1","parameterCategory":1,"la1":31.0,"la2":29.5877,"lo1":-88.7671,"lo2":-86.6584,"dy":0.0162,"dx":0.0185,"nx":115,"ny":88,"refTime":"2023-04-22T12:00:00:Z","depth":0,"parameterNumber":3,"parameterNumberName":"V-component_of_WINDS"},"data":[0.0,0.0,0.0,0.0,0.0,0.0,0.0,0.0,0.0,0.0,0.0,0.0,0.0,0.0,0.0,0.0,0.0,0.0,0.0,0.0,0.0,0.0,0.0,0.0,0.0,0.0,0.0,0.0,0.0,0.0,0.0,0.0,0.0,0.0,0.0,0.0,0.0,0.0,0.0,0.0,0.0,0.0,0.0,0.0,0.0,0.0,0.0,0.0,0.0,0.0,0.0,0.0,0.0,0.0,0.0,0.0,0.0,0.0,0.0,0.0,0.0,0.0,0.0,0.0,0.0,0.0,0.0,0.0,0.0,0.0,0.0,0.0,0.0,0.0,0.0,0.0,0.0,0.0,0.0,0.0,0.0,0.0,0.0,0.0,0.0,0.0,0.0,0.0,0.0,0.0,0.0,0.0,0.0,0.0,0.0,0.0,0.0,0.0,0.0,0.0,0.0,0.0,0.0,0.0,0.0,0.0,0.0,0.0,0.0,0.0,0.0,0.0,0.0,0.0,0.0,0.0,0.0,0.0,0.0,0.0,0.0,0.0,0.0,0.0,0.0,0.0,0.0,0.0,0.0,0.0,0.0,0.0,0.0,0.0,0.0,0.0,0.0,0.0,0.0,0.0,0.0,0.0,0.0,0.0,0.0,0.0,0.0,0.0,0.0,0.0,0.0,0.0,0.0,0.0,0.0,0.0,0.0,0.0,0.0,0.0,0.0,0.0,0.0,0.0,0.0,0.0,0.0,0.0,0.0,0.0,0.0,0.0,0.0,0.0,0.0,0.0,0.0,0.0,0.0,0.0,0.0,0.0,0.0,0.0,0.0,0.0,0.0,0.0,0.0,0.0,0.0,0.0,0.0,0.0,0.0,0.0,0.0,0.0,0.0,0.0,0.0,0.0,0.0,0.0,0.0,0.0,0.0,0.0,0.0,0.0,0.0,0.0,0.0,0.0,0.0,0.0,0.0,0.0,0.0,0.0,0.0,0.0,0.0,0.0,0.0,0.0,0.0,0.0,0.0,0.0,0.0,0.0,0.0,0.0,0.0,0.0,0.0,0.0,0.0,0.0,0.0,0.0,0.0,0.0,0.0,0.0,0.0,0.0,0.0,0.0,0.0,0.0,0.0,0.0,0.0,0.0,0.0,0.0,0.0,0.0,0.0,0.0,0.0,0.0,0.0,0.0,0.0,0.0,0.0,0.0,0.0,0.0,0.0,0.0,0.0,0.0,0.0,0.0,0.0,0.0,0.0,0.0,0.0,0.0,0.0,0.0,0.0,0.0,0.0,0.0,0.0,0.0,0.0,0.0,0.0,0.0,0.0,0.0,0.0,0.0,0.0,0.0,0.0,0.0,0.0,0.0,0.0,0.0,0.0,0.0,0.0,0.0,0.0,0.0,0.0,0.0,0.0,0.0,0.0,0.0,0.0,0.0,0.0,0.0,0.0,0.0,0.0,0.0,0.0,0.0,0.0,0.0,0.0,0.0,0.0,0.0,0.0,0.0,0.0,0.0,0.0,0.0,0.0,0.0,0.0,0.0,0.0,0.0,0.0,0.0,0.0,0.0,0.0,0.0,0.0,0.0,0.0,0.0,0.0,0.0,0.0,0.0,0.0,0.0,0.0,0.0,0.0,0.0,0.0,0.0,0.0,0.0,0.0,0.0,0.0,0.0,0.0,0.0,0.0,0.0,0.0,0.0,0.0,0.0,0.0,0.0,0.0,0.0,0.0,0.0,0.0,0.0,0.0,0.0,0.0,0.0,0.0,0.0,0.0,0.0,0.0,0.0,0.0,0.0,0.0,0.0,0.0,0.0,0.0,0.0,0.0,0.0,0.0,0.0,0.0,0.0,0.0,0.0,0.0,0.0,0.0,0.0,0.0,0.0,0.0,0.0,0.0,0.0,0.0,0.0,0.0,0.0,0.0,0.0,0.0,0.0,0.0,0.0,0.0,0.0,0.0,0.0,0.0,0.0,0.0,0.0,0.0,0.0,0.0,0.0,0.0,0.0,0.0,0.0,0.0,0.0,0.0,0.0,0.0,0.0,0.0,0.0,0.0,0.0,0.0,0.0,0.0,0.0,0.0,0.0,0.0,0.0,0.0,0.0,0.0,0.0,0.0,0.0,0.0,0.0,0.0,0.0,0.0,0.0,0.0,0.0,0.0,0.0,0.0,0.0,0.0,0.0,0.0,0.0,0.0,0.0,0.0,0.0,0.0,0.0,0.0,0.0,0.0,0.0,0.0,0.0,0.0,0.0,0.0,0.0,0.0,0.0,0.0,0.0,0.0,0.0,0.0,0.0,0.0,0.0,0.0,0.0,0.0,0.0,0.0,0.0,0.0,0.0,0.0,0.0,0.0,0.0,0.0,0.0,0.0,0.0,0.0,0.0,0.0,0.0,0.0,0.0,0.0,0.0,0.0,0.0,0.0,0.0,0.0,0.0,0.0,0.0,0.0,0.0,0.0,0.0,0.0,0.0,0.0,0.0,0.0,0.0,0.0,0.0,0.0,0.0,0.0,0.0,0.0,0.0,0.0,0.0,0.0,0.0,0.0,0.0,0.0,0.0,0.0,0.0,0.0,0.0,0.0,0.0,0.0,0.0,0.0,0.0,0.0,0.0,0.0,0.0,0.0,0.0,0.0,0.0,0.0,0.0,0.0,0.0,0.0,0.0,0.0,0.0,0.0,0.0,0.0,0.0,0.0,0.0,0.0,0.0,0.0,0.0,0.0,0.0,0.0,0.0,0.0,0.0,0.0,0.0,0.0,0.0,0.0,0.0,0.0,0.0,0.0,0.0,0.0,0.0,0.0,0.0,0.0,0.0,0.0,0.0,0.0,0.0,0.0,0.0,0.0,0.0,0.0,0.0,0.0,0.0,0.0,0.0,0.0,0.0,0.0,0.0,0.0,0.0,0.0,0.0,0.0,0.0,0.0,0.0,0.0,0.0,0.0,0.0,0.0,0.0,0.0,0.0,0.0,0.0,0.0,0.0,0.0,0.0,0.0,0.0,0.0,0.0,0.0,0.0,0.0,0.0,0.0,0.0,0.0,0.0,0.0,0.0,0.0,0.0,0.0,0.0,0.0,0.0,0.0,0.0,0.0,0.0,0.0,0.0,0.0,0.0,0.0,0.0,0.0,0.0,0.0,0.0,0.0,0.0,0.0,0.0,0.0,0.0,0.0,0.0,0.0,0.0,0.0,0.0,0.0,0.0,0.0,0.0,0.0,0.0,0.0,0.0,0.0,0.0,0.0,0.0,0.0,0.0,0.0,0.0,0.0,0.0,0.0,0.0,0.0,0.0,0.0,0.0,0.0,0.0,0.0,0.0,0.0,0.0,0.0,0.0,0.0,0.0,0.0,0.0,0.0,0.0,0.0,0.0,0.0,0.0,0.0,0.0,0.0,0.0,0.0,0.0,0.0,0.0,0.0,0.0,0.0,0.0,0.0,0.0,0.0,0.0,0.0,0.0,0.0,0.0,0.0,0.0,0.0,0.0,0.0,0.0,0.0,0.0,0.0,0.0,0.0,0.0,0.0,0.0,0.0,0.0,0.0,0.0,0.0,0.0,0.0,0.0,0.0,0.0,0.0,0.0,0.0,0.0,0.0,0.0,0.0,0.0,0.0,0.0,0.0,0.0,0.0,0.0,0.0,0.0,0.0,0.0,0.0,0.0,0.0,0.0,0.0,0.0,0.0,0.0,0.0,0.0,0.0,0.0,0.0,0.0,0.0,0.0,0.0,0.0,0.0,0.0,0.0,0.0,0.0,0.0,0.0,0.0,0.0,0.0,0.0,0.0,0.0,0.0,0.0,0.0,0.0,0.0,0.0,0.0,0.0,0.0,0.0,0.0,0.0,0.0,0.0,0.0,0.0,0.0,0.0,0.0,0.0,0.0,0.0,0.0,0.0,0.0,0.0,0.0,0.0,0.0,0.0,0.0,0.0,0.0,0.0,0.0,0.0,0.0,0.0,0.0,0.0,0.0,0.0,0.0,0.0,0.0,0.0,0.0,0.0,0.0,0.0,0.0,0.0,0.0,0.0,0.0,0.0,0.0,0.0,0.0,0.0,0.0,0.0,0.0,0.0,0.0,0.0,0.0,0.0,0.0,0.0,0.0,0.0,0.0,0.0,0.0,0.0,0.0,0.0,0.0,0.0,0.0,0.0,0.0,0.0,0.0,0.0,0.0,0.0,0.0,0.0,0.0,0.0,0.0,0.0,0.0,0.0,0.0,0.0,0.0,0.0,0.0,0.0,0.0,0.0,0.0,0.0,0.0,0.0,0.0,1.3484,0.0,0.0,0.0,0.0,0.0,0.0,0.0,0.0,0.0,0.0,0.0,0.0,0.0,0.0,0.0,0.0,0.0,0.0,0.0,0.0,0.0,0.0,0.0,0.0,0.0,0.0,0.0,0.0,0.0,0.0,0.0,0.0,0.0,0.0,0.0,0.0,0.0,0.0,0.0,0.0,0.0,0.0,0.0,0.0,0.0,0.0,0.0,0.0,0.0,0.0,0.0,0.0,0.0,0.0,0.0,0.0,0.0,0.0,0.0,0.0,0.0,0.0,0.0,0.0,0.0,0.0,0.0,0.0,0.0,0.0,0.0,0.0,0.0,0.0,0.0,0.0,0.0,0.0,0.0,0.0,0.0,0.0,0.0,0.0,0.0,0.0,0.0,0.0,0.0,0.0,0.0,0.0,0.0,0.0,0.0,0.0,0.0,0.0,0.0,0.0,0.0,0.0,0.0,0.0,0.0,0.0,0.0,0.0,0.0,0.0,1.3447,1.3447,1.3861,1.4021,1.3805,0.0,0.0,0.0,0.0,0.0,0.0,0.0,0.0,0.0,0.0,0.0,0.0,0.0,0.0,0.0,0.0,0.0,0.0,0.0,0.0,0.0,0.0,0.0,0.0,0.0,0.0,0.0,0.0,0.0,0.0,0.0,0.0,0.0,0.0,0.0,0.0,0.0,0.0,0.0,0.0,0.0,0.0,0.0,0.0,0.0,0.0,0.0,0.0,0.0,0.0,0.0,0.0,0.0,0.0,0.0,0.0,0.0,0.0,0.0,0.0,0.0,0.0,0.0,0.0,0.0,0.0,0.0,0.0,0.0,0.0,0.0,0.0,0.0,0.0,0.0,0.0,0.0,0.0,0.0,0.0,0.0,0.0,0.0,0.0,0.0,0.0,0.0,0.0,0.0,0.0,0.0,0.0,0.0,0.0,0.0,0.0,0.0,0.0,0.0,0.0,0.0,0.0,0.0,0.0,0.0,0.0,0.0,0.0,0.0,0.0,0.0,0.0,1.3968,1.4088,1.4088,0.0,0.0,0.0,0.0,0.0,0.0,0.0,0.0,0.0,0.0,0.0,0.0,0.0,0.0,0.0,0.0,0.0,0.0,0.0,0.0,0.0,0.0,0.0,0.0,0.0,0.0,0.0,0.0,0.0,0.0,0.0,0.0,0.0,0.0,0.0,0.0,0.0,0.0,0.0,0.0,0.0,0.0,0.0,0.0,0.0,0.0,0.0,0.0,0.0,0.0,0.0,0.0,0.0,0.0,0.0,0.0,0.0,0.0,0.0,0.0,0.0,0.0,0.0,0.0,0.0,0.0,0.0,0.0,0.0,0.0,0.0,0.0,0.0,0.0,0.0,0.0,0.0,0.0,0.0,0.0,0.0,0.0,0.0,0.0,0.0,0.0,0.0,0.0,0.0,0.0,0.0,0.0,0.0,0.0,0.0,0.0,0.0,0.0,0.0,0.0,0.0,0.0,0.0,0.0,0.0,0.0,0.0,0.0,0.0,0.0,1.3768,1.4035,1.4068,0.0,1.4088,0.0,0.0,0.0,0.0,0.0,0.0,0.0,0.0,0.0,0.0,0.0,0.0,0.0,0.0,0.0,0.0,0.0,0.0,0.0,0.0,0.0,0.0,0.0,0.0,0.0,0.0,0.0,0.0,0.0,0.0,0.0,0.0,0.0,0.0,0.0,0.0,0.0,0.0,0.0,0.0,0.0,0.0,0.0,0.0,0.0,0.0,0.0,0.0,0.0,0.0,0.0,0.0,0.0,0.0,0.0,0.0,0.0,0.0,0.0,0.0,0.0,0.0,0.0,0.0,0.0,0.0,0.0,0.0,0.0,0.0,0.0,0.0,0.0,0.0,0.0,0.0,0.0,0.0,0.0,0.0,0.0,0.0,0.0,0.0,0.0,0.0,0.0,0.0,0.0,0.0,0.0,0.0,0.0,0.0,0.0,0.0,0.0,0.0,0.0,0.0,0.0,0.0,0.0,0.0,0.0,0.0,0.0,0.0,0.0,0.0,1.3961,1.4082,1.4088,1.4088,0.0,0.0,0.0,0.0,0.0,0.0,0.0,0.0,0.0,0.0,0.0,0.0,0.0,0.0,0.0,0.0,0.0,0.0,0.0,0.0,0.0,0.0,0.0,0.0,0.0,0.0,0.0,0.0,0.0,0.0,0.0,0.0,0.0,0.0,0.0,0.0,0.0,0.0,0.0,0.0,0.0,0.0,0.0,0.0,0.0,0.0,0.0,0.0,0.0,0.0,0.0,0.0,0.0,0.0,0.0,0.0,0.0,0.0,0.0,0.0,0.0,0.0,0.0,0.0,0.0,0.0,0.0,0.0,0.0,0.0,0.0,0.0,0.0,0.0,0.0,0.0,0.0,0.0,0.0,0.0,0.0,0.0,0.0,0.0,0.0,0.0,0.0,0.0,0.0,0.0,0.0,0.0,0.0,0.0,0.0,0.0,0.0,0.0,0.0,0.0,0.0,0.0,0.0,0.0,0.0,0.0,0.0,0.0,0.0,0.0,1.4088,1.4088,1.4088,1.4088,1.3906,1.3639,0.0,0.0,0.0,0.0,0.0,0.0,0.0,0.0,0.0,0.0,0.0,0.0,0.0,0.0,0.0,0.0,0.0,0.0,0.0,0.0,0.0,0.0,0.0,0.0,0.0,0.0,0.0,0.0,0.0,0.0,0.0,0.0,0.0,0.0,0.0,0.0,0.0,0.0,0.0,0.0,0.0,0.0,0.0,0.0,0.0,0.0,0.0,0.0,0.0,0.0,0.0,0.0,0.0,0.0,0.0,0.0,0.0,0.0,0.0,0.0,0.0,0.0,0.0,0.0,0.0,0.0,0.0,0.0,0.0,0.0,0.0,0.0,0.0,0.0,0.0,0.0,0.0,0.0,0.0,0.0,0.0,0.0,0.0,0.0,0.0,0.0,0.0,0.0,0.0,0.0,0.0,0.0,0.0,0.0,0.0,0.0,0.0,0.0,0.0,0.0,0.0,0.0,0.0,0.0,0.0,0.0,0.0,0.0,1.4082,1.4082,1.4088,1.4088,1.4088,1.3555,0.0,0.0,0.0,0.0,0.0,0.0,0.0,0.0,0.0,0.0,0.0,0.0,0.0,0.0,0.0,0.0,0.0,0.0,0.0,0.0,0.0,0.0,0.0,0.0,0.0,0.0,0.0,0.0,0.0,0.0,0.0,0.0,0.0,0.0,0.0,0.0,0.0,0.0,0.0,0.0,0.0,0.0,0.0,0.0,0.0,0.0,0.0,0.0,0.0,0.0,0.0,0.0,0.0,0.0,0.0,0.0,0.0,0.0,0.0,0.0,0.0,0.0,0.0,0.0,0.0,0.0,0.0,0.0,0.0,0.0,0.0,0.0,0.0,0.0,0.0,0.0,0.0,0.0,0.0,0.0,0.0,0.0,0.0,0.0,0.0,0.0,0.0,0.0,0.0,0.0,0.0,0.0,0.0,0.0,0.0,0.0,0.0,0.0,0.0,0.0,0.0,0.0,0.0,0.0,0.0,0.0,0.0,0.0,0.0,1.3027,1.2942,1.3294,1.3997,1.3184,1.2492,0.0,0.0,0.0,0.0,0.0,0.0,0.0,0.0,0.0,0.0,0.0,0.0,0.0,0.0,0.0,0.0,0.0,0.0,0.0,0.0,0.0,0.0,0.0,0.0,0.0,0.0,0.0,0.0,0.0,0.0,0.0,0.0,0.0,0.0,0.0,0.0,0.0,0.0,0.0,0.0,0.0,0.0,0.0,0.0,0.0,0.0,0.0,0.0,0.0,0.0,0.0,0.0,0.0,0.0,0.0,0.0,0.0,0.0,0.0,0.0,0.0,0.0,0.0,0.0,0.0,0.0,0.0,0.0,0.0,0.0,0.0,0.0,0.0,0.0,0.0,0.0,0.0,0.0,0.0,0.0,0.0,0.0,0.0,0.0,0.0,0.0,0.0,0.0,0.0,0.0,0.0,0.0,0.0,0.0,0.0,0.0,0.0,0.0,0.0,0.0,0.0,0.0,0.0,0.0,0.0,0.0,0.0,0.0,0.0,1.1815,0.0,1.2504,1.2863,1.1975,1.1364,0.0,0.0,0.0,0.0,0.0,0.0,0.0,0.0,0.0,0.0,0.0,0.0,0.0,0.0,0.0,0.0,0.0,0.0,0.0,0.0,0.0,0.0,0.0,0.0,0.0,0.0,0.0,0.0,0.0,0.0,0.0,0.0,0.0,0.0,0.0,0.0,0.0,0.0,0.0,0.0,0.0,0.0,0.0,0.0,0.0,0.0,0.0,0.0,0.0,0.0,0.0,0.0,0.0,0.0,0.0,0.0,0.0,0.0,0.0,0.0,0.0,0.0,0.0,0.0,0.0,0.0,0.0,0.0,0.0,0.0,0.0,0.0,0.0,0.0,0.0,0.0,0.0,0.0,0.0,0.0,0.0,0.0,0.0,0.0,0.0,0.0,0.0,0.0,0.0,0.0,0.0,0.0,0.0,0.0,0.0,0.0,0.0,0.0,0.0,0.0,0.0,0.0,0.0,0.0,0.0,0.0,0.0,0.0,1.1809,1.0778,1.1729,1.1809,1.0697,1.0697,1.0096,0.0,0.0,0.0,0.0,0.0,0.0,0.0,0.0,0.0,0.0,0.0,0.0,0.0,0.0,0.0,0.0,0.0,0.0,0.0,0.0,0.0,0.0,0.0,0.0,0.0,0.0,0.0,0.0,0.0,0.0,0.0,0.0,0.0,0.0,0.0,0.0,0.0,0.0,0.0,0.0,0.0,0.0,0.0,0.0,0.0,0.0,0.0,0.0,0.0,0.0,0.0,0.0,0.0,0.0,0.0,0.0,0.0,0.0,0.0,0.0,0.0,0.0,0.0,0.0,0.0,0.0,0.0,0.0,0.0,0.0,0.0,0.0,0.0,0.0,0.0,0.0,0.0,0.0,0.0,0.0,0.0,0.0,0.0,0.0,0.0,0.0,0.0,0.0,0.0,0.0,0.0,0.0,0.0,0.0,0.0,0.0,0.0,0.0,0.0,0.0,0.0,0.0,0.0,0.0,0.0,0.0,0.0,0.0,0.0,1.3039,1.1821,1.1729,1.2869,1.1477,1.0438,0.0,0.0,0.0,0.0,0.0,0.0,0.0,0.0,0.0,0.0,0.0,0.0,0.0,0.0,0.0,0.0,0.0,0.0,0.0,0.0,0.0,0.0,0.0,0.0,0.0,0.0,0.0,0.0,0.0,0.0,0.0,0.0,0.0,0.0,0.0,0.0,0.0,0.0,0.0,0.0,0.0,0.0,0.0,0.0,0.0,0.0,0.0,0.0,0.0,0.0,0.0,0.0,0.0,0.0,0.0,0.0,0.0,0.0,0.0,0.0,0.0,0.0,0.0,0.0,0.0,0.0,0.0,0.0,0.0,0.0,0.0,0.0,0.0,0.0,0.0,0.0,0.0,0.0,0.0,0.0,0.0,0.0,0.0,0.0,0.0,0.0,0.0,0.0,0.0,0.0,0.0,0.0,0.0,0.0,0.0,0.0,0.0,0.0,0.0,0.0,0.0,0.0,0.0,0.0,0.0,0.0,0.0,0.0,0.0,1.4163,1.2394,1.1695,1.2313,1.0912,0.9823,0.9314,0.0,0.0,0.0,0.0,0.0,0.0,0.0,0.0,0.0,0.0,0.0,0.0,0.0,0.0,0.0,0.0,0.0,0.0,0.0,0.0,0.0,0.0,0.0,0.0,0.0,0.0,0.0,0.0,0.0,0.0,0.0,0.0,0.0,0.0,0.0,0.0,0.0,0.0,0.0,0.0,0.0,0.0,0.0,0.0,0.0,0.0,0.0,0.0,0.0,0.0,0.0,0.0,0.0,0.0,0.0,0.0,0.0,0.0,0.0,0.0,0.0,0.0,0.0,0.0,0.0,0.0,0.0,0.0,0.0,0.0,0.0,0.0,0.0,0.0,0.0,0.0,0.0,0.0,0.0,0.0,0.0,0.0,0.0,0.0,0.0,0.0,0.0,0.0,0.0,0.0,0.0,0.0,0.0,0.0,0.0,0.0,0.0,0.0,0.0,0.0,0.0,0.0,0.0,0.0,0.0,0.0,0.0,0.0,1.4368,1.3473,1.1865,0.9714,0.9435,0.8633,0.0,0.0,0.0,0.0,0.0,0.0,0.0,0.0,0.0,0.0,0.0,0.0,0.0,0.0,0.0,0.0,0.0,0.0,0.0,0.0,0.0,0.0,0.0,0.0,0.0,0.0,0.0,0.0,0.0,0.0,0.0,0.0,0.0,0.0,0.0,0.0,0.0,0.0,0.0,0.0,0.0,0.0,0.0,0.0,0.0,0.0,0.0,0.0,0.0,0.0,0.0,0.0,0.0,0.0,0.0,0.0,0.0,0.0,0.0,0.0,0.0,0.0,0.0,0.0,0.0,0.0,0.0,0.0,0.0,0.0,0.0,0.0,0.0,0.0,0.0,0.0,0.0,0.0,0.0,0.0,0.0,0.0,0.0,0.0,0.0,0.0,0.0,0.0,0.0,0.0,0.0,0.0,0.0,0.0,0.0,0.0,0.0,0.0,0.0,0.0,0.0,0.0,0.0,0.0,0.0,0.0,0.0,0.0,0.0,1.3369,1.4216,1.3847,1.21,1.022,0.8951,0.0,0.0,0.0,0.0,0.0,0.0,0.0,0.0,0.0,0.0,0.0,0.0,0.0,0.0,0.0,0.0,0.0,0.0,0.0,0.0,0.0,0.0,0.0,0.0,0.0,0.0,0.0,0.0,0.0,0.0,0.0,0.0,0.0,0.0,0.0,0.0,0.0,0.0,0.0,0.0,0.0,0.0,0.0,0.0,0.0,0.0,0.0,0.0,0.0,0.0,0.0,0.0,0.0,0.0,0.0,0.0,0.0,0.0,0.0,0.0,0.0,0.0,0.0,0.0,0.0,0.0,0.0,0.0,0.0,0.0,0.0,0.0,0.0,0.0,0.0,0.0,0.0,0.0,0.0,0.0,0.0,0.0,0.0,0.0,0.0,0.0,0.0,0.0,0.0,0.0,0.0,0.0,0.0,0.0,0.0,0.0,0.0,0.0,0.0,0.0,0.0,0.0,0.0,0.0,0.0,0.0,0.0,0.0,1.2231,1.229,1.2808,1.2641,1.1744,1.0692,0.9596,0.0,0.0,0.0,0.0,0.0,0.0,0.0,0.0,0.0,0.0,0.0,0.0,0.0,0.0,0.0,0.0,0.0,0.0,0.0,0.0,0.0,0.0,0.0,0.0,0.0,0.0,0.0,0.0,0.0,0.0,0.0,0.0,0.0,0.0,0.0,0.0,0.0,0.0,0.0,0.0,0.0,0.0,0.0,0.0,0.0,0.0,0.0,0.0,0.0,0.0,0.0,0.0,0.0,0.0,0.0,0.0,0.0,0.0,0.0,0.0,0.0,0.0,0.0,0.0,0.0,0.0,0.0,0.0,0.0,0.0,0.0,0.0,0.0,0.0,0.0,0.0,0.0,0.0,0.0,0.0,0.0,0.0,0.0,0.0,0.0,0.0,0.0,0.0,0.0,0.0,0.0,0.0,0.0,0.0,0.0,0.0,0.0,0.0,0.0,0.0,0.0,0.0,0.0,0.0,0.0,0.0,0.0,0.0,1.1477,1.1318,1.0674,1.0194,0.9792,1.0665,0.9907,0.0,0.0,0.0,0.0,0.0,0.0,0.0,0.0,0.0,0.0,0.0,0.0,0.0,0.0,0.0,0.0,0.0,0.0,0.0,0.0,0.0,0.0,0.0,0.0,0.0,0.0,0.0,0.0,0.0,0.0,0.0,0.0,0.0,0.0,0.0,0.0,0.0,0.0,0.0,0.0,0.0,0.0,0.0,0.0,0.0,0.0,0.0,0.0,0.0,0.0,0.0,0.0,0.0,0.0,0.0,0.0,0.0,0.0,0.0,0.0,0.0,0.0,0.0,0.0,0.0,0.0,0.0,0.0,0.0,0.0,0.0,0.0,0.0,0.0,0.0,0.0,0.0,0.0,0.0,0.0,0.0,0.0,0.0,0.0,0.0,0.0,0.0,0.0,0.0,0.0,0.0,0.0,0.0,0.0,0.0,0.0,0.0,0.0,0.0,0.0,0.0,0.0,0.0,0.0,0.0,0.0,0.0,0.0,1.2384,1.1526,1.2565,1.1546,0.8528,0.8413,0.8139,0.0,0.0,0.0,0.0,0.0,0.0,0.0,0.0,0.0,0.0,0.0,0.0,0.0,0.0,0.0,0.0,0.0,0.0,0.0,0.0,0.0,0.0,0.0,0.0,0.0,0.0,0.0,0.0,0.0,0.0,0.0,0.0,0.0,0.0,0.0,0.0,0.0,0.0,0.0,0.0,0.0,0.0,0.0,0.0,0.0,0.0,0.0,0.0,-0.0467,0.0,0.0,0.0,0.0,0.0,0.0,0.0,0.0,0.0,0.0,0.0,0.0,0.0,0.0,0.0,0.0,0.0,0.0,0.0,0.0,0.0,0.0,0.0,0.0,0.0,0.0,0.0,0.0,0.0,0.0,0.0,0.0,0.0,0.0,0.0,0.0,0.0,0.0,0.0,0.0,0.0,0.0,0.0,0.0,0.0,0.0,0.0,0.0,0.0,0.0,0.0,0.0,0.0,0.0,0.0,0.0,0.0,0.0,0.0,1.0272,0.9797,1.0665,1.0087,0.8127,0.7818,0.7665,0.0,0.0,0.0,0.0,0.0,0.0,0.0,0.0,0.0,0.0,0.0,0.0,0.0,0.0,0.0,0.0,0.0,0.0,0.0,0.0,0.0,0.0,0.0,0.0,0.0,0.0,0.0,0.0,0.0,0.0,0.0,0.0,0.0,0.0,0.0,0.0,0.0,0.0,0.0,0.0,0.0,0.0,0.0,0.0,0.0,0.0,0.0,0.0,0.0,0.0,0.0,0.0,0.0,0.0,0.0,0.0,0.0,0.0,0.0,0.0,0.0,0.0,0.0,0.0,0.0,0.0,0.0,0.0,0.0,0.0,0.0,0.0,0.0,0.0,0.0,0.0,0.0,0.0,0.0,0.0,0.0,0.0,0.0,0.0,0.0,0.0,0.0,0.0,0.0,0.0,0.0,0.0,0.0,0.0,0.0,0.0,0.0,0.0,0.0,0.0,0.0,0.0,0.0,0.0,0.0,0.0,0.0,0.8013,0.8149,0.8129,0.8266,0.8237,0.8038,0.7889,0.7743,0.7416,0.0,0.0,0.0,0.0,0.0,0.0,0.0,0.0,0.0,0.0,0.0,0.0,0.0,0.0,0.0,0.0,0.0,0.0,0.0,0.0,0.0,0.0,0.0,0.0,0.0,0.0,0.0,0.0,0.0,0.0,0.0,0.0,0.0,0.0,0.0,0.0,0.0,0.0,0.6869,0.7272,0.0,0.0,0.0,0.0,0.0,0.0,0.0,0.0,-0.7215,0.0,0.0,0.0,0.0,0.0,0.0,0.0,0.0,0.0,0.0,0.0,0.0,0.0,0.0,0.0,0.0,0.0,0.0,0.0,0.0,0.0,0.0,0.0,0.0,0.0,0.0,0.0,0.0,0.0,0.0,0.0,0.0,0.0,0.0,0.0,0.0,0.0,0.0,0.0,0.0,0.0,0.0,0.0,0.0,0.0,0.0,0.0,0.0,0.0,0.0,0.0,0.0,0.0,0.0,0.0,0.0,0.9137,1.0204,1.0359,0.9649,0.969,0.9118,0.8035,0.7993,0.7849,0.7617,0.0,0.0,0.0,0.0,0.0,0.0,0.0,0.0,0.0,0.0,0.0,0.0,0.0,0.0,0.0,0.0,0.0,0.0,0.0,0.0,0.0,0.0,0.0,0.0,0.0,0.0,0.0,0.0,0.0,0.0,0.0,0.0,0.0,0.0,0.0,0.0,0.0,0.0,0.0,0.6801,0.755,0.0,0.0,0.0,0.0,0.0,0.0,0.0,0.0,-0.605,0.0,0.0,0.0,0.0,0.0,0.0,0.0,0.0,0.0,0.0,0.0,0.0,0.0,0.0,0.0,0.0,0.0,0.0,0.0,0.0,0.0,0.0,0.0,0.0,0.0,0.0,0.0,0.0,0.0,0.0,0.0,0.0,0.0,0.0,0.0,0.0,0.0,0.0,0.0,0.0,0.0,0.0,0.0,0.0,0.0,0.0,0.0,0.0,0.0,0.0,0.0,0.0,0.0,0.0,0.0,0.8467,0.9041,0.9256,0.9011,0.8939,0.8656,0.8055,0.8014,0.7969,0.0,0.0,0.0,0.0,0.0,0.0,0.0,0.0,0.0,0.0,0.0,0.0,0.0,0.0,0.0,0.0,0.0,0.0,0.0,0.0,0.0,0.0,0.0,0.0,0.0,0.0,0.0,0.0,0.0,0.0,0.0,0.0,0.0,0.0,0.0,0.0,0.0,0.0,0.0,0.0,0.7611,0.8224,0.7969,0.0,0.0,0.0,0.0,0.0,0.0,-0.6548,-0.7253,0.0,0.0,0.0,0.0,0.0,0.0,0.0,0.0,0.0,0.0,0.0,0.0,0.0,0.0,0.0,0.0,0.0,0.0,0.0,0.0,0.0,0.0,0.0,0.0,0.0,0.0,0.0,0.0,0.0,0.0,0.0,0.0,0.0,0.0,0.0,0.0,0.0,0.0,0.0,0.0,0.0,0.0,0.0,0.0,0.0,0.0,0.0,0.0,0.0,0.0,0.0,0.0,0.0,0.0,0.0,0.7449,0.7621,0.7514,0.7226,0.7769,0.7779,0.7253,0.7703,0.7966,0.0,0.0,0.0,0.0,0.0,0.0,0.0,0.0,0.0,0.0,0.0,0.0,0.0,0.0,0.0,0.0,0.0,0.0,0.0,0.0,0.0,0.0,0.0,0.0,0.0,0.0,0.0,0.0,0.0,0.0,0.0,0.0,0.0,0.0,0.0,0.0,0.0,0.0,0.0,0.0,0.0,0.8708,0.8433,0.3705,0.0,0.0,0.0,0.0,-0.6238,-0.7164,0.0,0.0,0.0,0.0,0.0,0.0,0.0,0.0,0.0,0.0,0.0,0.0,0.0,0.0,0.0,0.0,0.0,0.0,0.0,0.0,0.0,0.0,0.0,0.0,0.0,0.0,0.0,0.0,0.0,0.0,0.0,0.0,0.0,0.0,0.0,0.0,0.0,0.0,0.0,0.0,0.0,0.0,0.0,0.0,0.0,0.0,0.0,0.0,0.0,0.0,0.0,0.0,0.0,0.0,0.0,0.0,0.7472,0.7607,0.6536,0.4714,0.6759,0.6859,0.4618,0.6728,0.7967,0.0,0.0,0.0,0.0,0.0,0.0,0.0,0.0,0.0,0.0,0.0,0.0,0.0,0.0,0.0,0.0,0.0,0.0,0.0,0.0,0.0,0.0,0.0,0.0,0.0,0.0,0.0,0.0,0.0,0.0,0.0,0.0,0.0,0.0,0.0,0.0,0.0,0.0,0.0,0.0,0.0,0.8443,0.8744,0.3849,-0.1539,0.0,0.0,-0.8282,-0.8193,-0.8391,0.0,0.0,0.0,0.0,0.0,0.0,0.0,0.0,0.0,0.0,0.0,0.0,0.0,0.0,0.0,0.0,0.0,0.0,0.0,0.0,0.0,0.0,0.0,0.0,0.0,0.0,0.0,0.0,0.0,0.0,0.0,0.0,0.0,0.0,0.0,0.0,0.0,0.0,0.0,0.0,0.0,0.0,0.0,0.0,0.0,0.0,0.0,0.0,0.0,0.0,0.0,0.0,0.0,0.0,0.0,0.2349,0.3608,0.639,0.6614,0.4116,0.3624,0.4338,0.6261,0.4471,0.3425,0.0,0.0,0.0,0.0,0.0,0.0,0.0,0.0,0.0,0.0,0.0,0.0,0.0,0.0,0.0,0.0,0.0,0.0,0.0,0.0,0.0,0.0,0.0,0.0,0.0,0.0,0.0,0.0,0.0,0.0,0.0,0.0,0.0,0.0,0.0,0.0,0.0,0.0,0.0,0.0,0.0,0.0,0.5411,0.2518,0.0,0.0,0.0,-0.7191,-0.8193,0.0,0.0,0.0,0.0,0.0,0.0,0.0,0.0,0.0,0.0,0.0,0.0,0.0,0.0,0.0,0.0,0.0,0.0,0.0,0.0,0.0,0.0,0.0,0.0,0.0,0.0,0.0,0.0,0.0,0.0,0.0,0.0,0.0,0.0,0.0,0.0,0.0,0.0,0.0,0.0,0.0,0.0,0.0,0.0,0.0,0.0,0.0,0.0,0.0,0.0,0.0,0.0,0.0,0.0,0.0,0.0,0.0,0.0379,0.4058,0.5048,0.3016,0.1008,0.1918,0.5768,0.205,0.0,0.0,0.0,0.0,0.0,0.0,0.0,0.0,0.0,0.0,0.0,0.0,0.0,0.0,0.0,0.0,0.0,0.0,0.0,0.0,0.0,0.0,0.0,0.0,0.0,0.0,0.0,-0.7095,0.0,0.0,0.0,0.0,0.0,0.0,0.0,0.0,0.0,0.0,0.0,0.0,0.0,0.0,-0.0955,0.1903,0.1795,0.0106,0.0,0.0,-0.6871,-0.8193,-0.9674,-1.1026,0.0,0.0,0.0,0.0,0.0,0.0,0.0,0.0,0.0,0.0,0.0,0.0,0.0,0.0,0.0,0.0,0.0,0.0,0.0,0.0,0.0,0.0,0.0,0.0,0.0,0.0,0.0,0.0,0.0,0.0,0.0,0.0,0.0,0.0,0.0,0.0,0.0,0.0,0.0,0.0,0.0,0.0,0.0,0.0,0.0,0.0,0.0,0.0,0.0,0.0,0.0,0.0,0.0,0.0,-0.4389,-0.0095,0.0396,0.0404,0.0303,0.0101,0.0202,0.0505,0.0,-0.2037,0.0,0.0,0.0,0.0,0.0,0.0,0.0,0.0,0.0,0.0,0.0,0.0,0.0,0.0,0.0,0.0,0.0,0.0,0.0,0.0,0.0,0.0,0.0,0.0,0.0,0.0,0.0,0.0,0.0,0.0,0.0,0.0,0.0,0.0,0.0,0.0,0.0,0.0,0.0,0.0,0.0,-0.555,-0.0531,0.2545,0.1172,0.0,-0.8304,-0.8342,-0.88,-0.8941,-0.9787,-1.2034,0.0,0.0,0.0,0.0,0.0,0.0,0.0,0.0,0.0,0.0,0.0,0.0,0.0,0.0,0.0,0.0,0.0,0.0,0.0,0.0,0.0,0.0,0.0,0.0,0.0,0.0,0.0,0.0,0.0,0.0,0.0,0.0,0.0,0.0,0.0,0.0,0.0,0.0,0.0,0.0,0.0,0.0,0.0,0.0,0.0,0.0,0.0,0.0,0.0,0.0,0.0,0.0,0.0,-0.5531,-0.2279,-0.3961,-0.4956,-0.4855,-0.3325,-0.1711,0.0,0.0,-0.2232,0.0,0.0,0.0,0.0,0.0,0.0,0.0,0.0,0.0,0.0,0.0,0.0,0.0,0.0,0.0,0.0,0.0,0.0,0.0,0.0,0.0,0.0,0.0,0.0,0.0,0.0,0.0,0.0,-0.6654,-0.6682,-0.8136,0.0,0.0,0.0,0.0,0.0,0.0,0.0,0.0,0.0,0.0,0.0213,-0.4214,-0.1079,0.0,0.0,-0.7498,-0.8531,-0.8594,-0.9448,-1.0801,-1.3031,-1.506,0.0,0.0,0.0,0.0,0.0,0.0,0.0,0.0,0.0,0.0,0.0,0.0,0.0,0.0,0.0,0.0,0.0,0.0,0.0,0.0,0.0,0.0,0.0,0.0,0.0,0.0,0.0,0.0,0.0,0.0,0.0,0.0,0.0,0.0,0.0,0.0,0.0,0.0,0.0,0.0,0.0,0.0,0.0,0.0,0.0,0.0,0.0,0.0,0.0,0.0,0.0,0.0,-0.6181,-0.4069,-0.5836,-0.7187,-0.8016,-0.6152,-0.4323,-0.2411,-0.0794,-0.1564,0.0,0.0,0.0,0.0,0.0,0.0,0.0,0.0,0.0,0.0,0.0,0.0,0.0,0.0,0.0,0.0,0.0,0.0,0.0,0.0,0.0,0.0,0.0,0.0,0.0,0.0,0.0,0.0,-0.6729,-0.665,-0.8258,0.0,0.0,0.0,0.0,0.0,0.0,0.0,0.0,0.0,0.0,0.3441,-0.2381,-0.2709,-0.2815,-0.4214,-0.7627,-0.993,-0.9719,-1.0535,-1.1869,-1.3751,0.0,0.0,0.0,0.0,0.0,0.0,0.0,0.0,0.0,0.0,0.0,0.0,0.0,0.0,0.0,0.0,0.0,0.0,0.0,0.0,0.0,0.0,0.0,0.0,0.0,0.0,0.0,0.0,0.0,0.0,1.5538,0.0,0.0,0.0,0.0,0.0,0.0,0.0,0.0,0.0,0.0,0.0,0.0,0.0,0.0,0.0,0.0,0.0,0.0,0.0,0.0,0.0,0.0,-0.6632,-0.5071,-0.4618,-0.5434,-0.7889,-0.7889,-0.7785,-0.7578,-0.2814,-0.01,-0.0293,0.0,0.0,0.0,0.0,0.0,0.0,0.0,0.0,0.0,0.0,0.0,0.0,0.0,0.0,0.0,0.0,0.0,0.0,0.0,0.0,0.0,0.0,0.0,0.0,0.0,0.0,-0.797,-0.8108,-0.8237,0.0,0.0,0.0,0.0,0.0,0.0,0.0,0.0,0.0,0.7801,0.3413,0.2059,0.6541,-0.117,-0.6632,-0.4466,-0.9252,-1.2994,-1.2103,-1.2225,-1.2725,0.0,0.0,0.0,0.0,0.0,0.0,0.0,0.0,0.0,0.0,0.0,0.0,0.0,0.0,0.0,0.0,0.0,0.0,0.0,0.0,0.0,0.0,0.0,0.0,0.0,0.0,0.0,1.7048,1.7686,0.0,0.0,0.0,0.0,0.0,0.0,0.0,0.0,0.0,0.0,0.0,1.4343,1.5069,0.0,0.0,0.0,0.0,0.0,0.0,0.0,0.0,0.0,0.0,0.0,0.0,-0.8611,-0.6856,-0.6735,-0.7083,-0.8009,-0.7999,-0.7999,-0.8016,-0.6243,-0.3684,-0.0101,0.0,0.0,0.0,0.0,0.0,0.0,0.0,0.0,0.0,0.0,0.0,0.0,0.0,0.0,0.0,0.0,0.0,0.0,0.0,0.0,0.0,0.0,0.0,0.0,0.0,-0.8102,0.0,0.0,0.0,0.0,0.0,0.0,0.0,0.0,0.0,0.0,0.0,0.8588,0.8591,0.6671,0.4663,0.2983,-0.032,-0.3637,0.0,0.0,0.0,0.0,0.0,0.0,0.0,0.0,0.0,0.0,0.0,0.0,0.0,0.0,-2.2071,-2.385,-2.5958,-2.7731,-2.8559,0.0,0.0,0.0,0.0,0.0,0.0,0.0,0.0,0.0,0.0,0.0,0.0,0.0,0.0,1.9126,0.0,1.905,0.0,0.0,0.0,0.0,0.0,0.0,0.0,0.0,1.9268,1.8546,1.6448,1.7169,1.6113,0.0,1.1728,0.8333,0.0,0.0,0.0,0.0,0.0,0.0,0.0,0.0,-0.8808,-0.7442,-0.6839,-0.6595,-0.6633,-0.6622,-0.6644,-0.6594,-0.7522,-0.4512,0.2848,0.4033,0.1945,0.0,0.0,0.0,0.0,0.0,0.0,0.0,0.0,0.0,0.0,0.0,0.0,0.0,0.0,0.0,0.0,0.0,0.0,0.0,0.0,0.0,0.0,0.0,-0.8196,0.0,0.0,0.0,0.0,0.0,0.0,0.0,0.0,0.0,0.4033,0.7105,0.8671,0.8574,0.8438,0.6258,0.074,0.0,0.0,0.0,0.0,0.0,0.0,0.0,-1.4326,-1.5069,-1.7973,-2.1147,-2.3945,-2.4372,-2.4846,-2.6491,0.0,0.0,-2.5721,-2.7637,-2.9268,-2.9749,-3.0397,-3.0989,-3.1317,-3.1411,-3.1509,0.0,0.0,0.0,0.0,0.0,0.0,0.0,0.0,2.3945,2.3236,0.0,2.1136,0.0,0.0,0.0,0.0,0.0,1.8327,0.0,0.0,2.2064,2.1544,1.8831,1.8991,1.7787,1.5398,1.3732,1.2016,0.9864,0.5465,0.0,0.0,0.0,0.0,0.0,0.0,-0.7221,-0.6926,-0.4933,-0.3856,-0.3821,-0.3927,-0.3751,-0.3604,-0.6177,-0.2462,0.8019,0.6119,0.4266,0.3463,-0.0105,0.0,0.0,0.0,0.0,0.0,0.0,0.0,0.0,0.0,0.0,0.0,0.0,0.0,0.0,0.0,0.0,0.0,0.0,0.0,0.0,-0.7888,0.0,0.0,0.0,0.0,0.0,0.0,0.0,0.0,0.0,0.0,-0.3094,0.3988,0.8581,0.7812,0.0,0.0,0.0,0.0,-0.0,-0.0304,-0.4759,-0.8067,-0.8073,-1.1487,-1.426,-1.4406,0.0,0.0,-2.1777,-2.3598,-2.5189,-2.7547,-2.8299,-2.8333,-2.6875,-2.7643,-2.8637,-2.9893,-3.0939,-3.1385,-3.1534,-3.2463,-3.3101,2.5491,0.0,0.0,0.0,0.0,2.25,2.3029,2.4465,2.4147,2.441,2.4916,2.3608,0.0,0.0,0.0,0.0,0.0,0.0,1.8902,1.9504,2.0898,2.0298,1.8095,1.8964,1.8104,1.5705,1.427,1.2886,1.1355,0.9119,0.5211,-0.0188,0.0,0.0,0.0,0.0,-0.5472,-0.6761,-0.3188,-0.1156,-0.1162,-0.1162,0.0851,0.5098,0.0324,0.1199,0.8605,0.809,0.7589,0.7214,0.4295,0.0,0.0,0.0,0.0,0.0,0.0,0.0,0.0,0.0,0.0,0.0,0.0,0.0,0.0,0.0,0.0,0.0,0.0,0.0,-0.6305,-0.5541,-0.5959,0.0,0.0,0.0,0.0,0.0,0.0,0.0,0.0,0.0,-0.6458,0.2513,0.7348,0.0,0.0,0.1956,0.0203,0.0,-0.0732,-0.2925,-0.4577,0.0,-0.8229,-1.1768,-1.4365,-1.4441,-1.7875,-2.1514,-2.3974,-2.488,-2.6084,-2.8528,-2.9093,-2.9579,-3.0958,-3.1355,-3.1944,-3.3066,-3.3563,-3.4002,-3.4687,-3.507,-3.5292,2.7852,2.6835,2.5004,2.4524,2.4993,2.4385,2.4955,2.6394,2.5959,2.6037,2.637,2.5053,2.4,2.3109,2.1564,0.0,0.0,0.0,1.8996,1.9264,2.0007,1.942,1.7792,1.8463,1.7786,1.5737,1.4459,1.3488,1.2721,1.0877,0.7825,0.3608,0.0,0.0,-0.2971,-0.3449,-0.3214,-0.2441,-0.084,0.1177,0.345,0.3471,0.4706,0.6974,0.474,0.5204,0.8762,0.886,0.914,0.9708,0.7639,0.6551,0.0,0.0,0.0,0.0,0.0,0.0,0.0,0.0,0.0,0.0,0.0,0.7367,0.3777,0.0,0.0,0.0,-0.375,-0.47,-0.0521,-0.3352,0.0,0.0,0.0,0.0,0.0,0.0,0.0,-0.5777,-0.6967,-0.7946,-0.7833,-0.0211,0.4101,0.0738,-0.1784,-0.2396,-0.0309,0.0,-0.4143,-0.5965,-0.6169,-0.7029,-0.9458,-1.2125,-1.4549,-1.6982,-2.0603,-2.3624,-2.5044,-2.5942,-2.7115,-2.8855,-2.9761,-3.0777,-3.2711,-3.3081,-3.3386,-3.4511,-3.5061,-3.5601,-3.6618,-3.7175,-3.7482,2.9378,2.9524,2.6788,2.6415,2.7627,2.7717,2.8484,2.9689,2.8676,2.7992,2.7598,2.5837,2.5142,2.506,2.2981,0.0,2.0857,1.9798,1.9354,1.9497,1.9497,1.8764,1.7606,1.7697,1.702,1.5737,1.4657,1.3986,1.3811,1.1477,0.9685,0.84,0.616,0.4575,0.3341,-0.0608,-0.031,0.4359,0.2012,0.3238,0.8378,0.8843,0.7644,0.5031,0.7724,0.9196,0.9075,0.9279,0.9919,1.1101,1.0012,1.0019,1.1737,0.0,0.0,0.0,0.0,0.0,0.0,0.0,0.0,0.0,0.0,0.0,0.0,0.0,0.0,0.1046,-0.1584,0.0,0.6962,-0.1258,0.0,0.0,0.0,-0.4796,-0.7132,-0.7381,-0.7396,-0.739,0.0,0.0,-0.7324,-0.2996,0.0,0.0,-0.4279,-0.5782,-0.1283,-0.5308,-0.8879,-0.8731,-0.8687,-0.9293,-1.0914,-1.2655,-1.5481,-2.0366,-2.2767,-2.4177,-2.5489,-2.6744,-2.7955,-2.9223,-3.0461,-3.1892,-3.3104,-3.3445,-3.3687,-3.5089,-3.5787,-3.6668,-3.7738,-3.8811,-3.9493,3.029,2.9754,2.9015,2.8901,2.9257,2.9257,2.9499,2.9779,2.9534,2.9369,2.918,2.7888,2.6397,2.4796,2.3468,2.2688,2.2436,2.1353,2.0309,1.9497,1.9497,1.8311,1.6305,1.7217,1.702,1.5838,1.5534,1.4961,1.4252,1.3571,1.2109,0.9957,0.9847,0.9072,0.7531,0.5986,0.4982,0.452,0.6041,0.6333,0.5569,0.7739,0.8546,0.7952,1.0761,1.1749,1.0688,1.2341,1.3103,1.2837,1.2469,1.2364,1.271,1.1657,0.0,0.0,0.0,0.0,0.0,0.0,0.0,0.0,0.0,0.3904,0.787,0.0,0.6757,0.0,0.4672,0.3885,0.4322,0.2148,0.0,0.0,-0.295,-0.2528,-0.2022,-0.1719,-0.1724,-0.1921,-0.194,-0.1847,-0.196,-0.0762,0.0,0.0,0.0,-0.3,-0.5868,-0.7714,-0.8903,-0.8848,-0.8903,-0.9399,-1.1199,-1.4183,-1.759,-2.1111,-2.2868,-2.4097,-2.543,-2.6754,-2.7955,-2.9293,-3.1661,-3.3636,-3.505,-3.5237,-3.6211,-3.8296,-3.8121,-3.7552,-3.8811,-4.0293,-4.1162,3.065,3.0143,2.9892,2.9779,2.9779,2.9779,2.9779,2.9779,2.9779,2.9779,2.9779,2.9106,2.736,2.4872,2.4638,2.378,2.2208,2.1033,1.9861,1.868,1.8118,1.7109,1.5825,1.6483,1.6191,1.4956,1.4973,1.4515,1.3369,1.2866,1.1952,1.0526,1.0294,0.9766,0.8935,0.8474,0.7587,0.6358,0.8029,0.8131,0.6601,0.8078,0.8836,0.8862,1.1059,1.1873,1.0864,1.2916,1.409,1.3814,1.3283,1.3441,1.455,1.3078,1.2193,0.0,0.0,0.0,0.0,0.0,0.0,0.0,0.0,0.0,0.0,0.0,0.864,0.8408,0.7736,0.684,0.5806,0.5699,0.4618,0.1925,-0.0107,-0.043,0.174,0.3291,0.4178,0.3929,0.2852,0.1433,0.0,0.0,0.0,0.0,0.0,-0.109,-0.4252,-0.6944,-0.8893,-0.8872,-0.946,-1.0903,-1.3449,-1.7539,-2.079,-2.2349,-2.3692,-2.4815,-2.5625,-2.7971,-2.9938,-3.0726,-3.3701,-3.6346,-3.7068,-3.7171,-3.7916,-3.958,-3.9857,-3.9695,-4.0385,-4.1295,-4.1804,3.0721,3.067,3.0206,3.0005,3.0005,2.9993,2.9917,2.9779,2.9779,2.9779,2.9792,2.9624,2.7947,2.5284,2.5975,2.4671,2.1728,2.0387,1.9039,1.787,1.6595,1.594,1.5825,1.5642,1.4968,1.3937,1.3866,1.3297,1.2264,1.1399,1.083,1.0732,0.9479,0.8893,0.8872,0.8638,0.8533,0.868,0.8793,0.8917,0.8933,0.9027,0.905,0.9008,1.0707,1.1467,1.0966,1.2946,1.4384,1.4951,1.3824,1.4349,1.674,1.5264,1.4231,0.0,1.3733,0.0,0.0,0.0,0.0,0.0,0.0,0.0,0.0,0.8622,0.8533,0.8574,0.8786,0.8807,0.8687,0.8807,0.8866,0.8537,0.4153,0.2089,0.435,0.7073,0.8903,0.8897,0.6611,0.4023,0.0,0.0559,0.0,0.0,0.0,0.0,-0.112,-0.515,-0.8199,-0.8775,-1.0272,-1.2606,-1.6206,-2.0468,-2.3176,-2.3484,-2.4609,-2.5732,-2.6024,-2.9116,-3.1834,-3.2428,-3.5554,-3.8582,-3.8811,-3.8968,-3.9573,-4.0849,-4.1373,-4.1582,-4.1869,-4.2252,-4.2252,3.1248,3.1235,3.1135,3.1085,3.1085,3.1085,3.0595,2.9792,2.9779,2.9779,2.9702,2.8858,2.8096,2.7348,2.5786,2.4777,2.4008,2.1906,2.0305,1.9139,1.7927,1.6802,1.5737,1.4688,1.4213,1.3987,1.305,1.2557,1.2705,1.247,1.188,1.0933,1.1095,1.0313,0.8707,0.0,0.0,0.0,0.8767,0.8733,0.8754,0.969,1.012,1.0184,1.2565,0.0,1.3829,1.6153,1.7563,1.7754,1.7449,0.0,0.0,0.0,0.0,0.0,0.0,0.0,0.0,0.0,0.0,0.0,0.8671,0.7951,0.8513,0.8503,0.8656,0.8804,0.8824,0.8757,0.8852,0.8866,0.8882,0.8809,0.7802,0.6579,0.4918,0.7168,0.8876,0.8893,0.8422,0.785,0.685,0.3132,0.0,0.0,0.0,0.0,-0.3256,-0.4594,-0.627,-0.852,-1.1126,-1.3475,-1.5512,-1.9457,-2.2248,-2.2357,-2.4196,-2.5907,-2.7115,-2.8615,-3.0357,-3.1408,-3.547,-3.8811,-3.8882,-4.0023,-4.1598,-4.3446,-4.268,-4.1789,-4.2013,-4.3152,-4.3931,3.18,0.0,3.1499,3.1386,0.0,3.1386,3.1085,3.057,3.0306,3.0043,2.9792,2.9197,2.8609,2.8016,2.6367,2.5294,2.4692,2.2347,2.0666,1.9405,1.8241,1.7029,1.5825,1.5166,1.4231,1.3171,1.2581,1.1789,1.0818,1.0816,1.0538,0.9895,1.0233,0.9873,0.8834,0.8716,0.8747,0.8828,0.875,0.9068,0.9888,1.0448,1.1089,1.1722,1.3697,0.0,0.0,0.0,0.0,0.0,0.0,0.0,0.0,1.7917,0.0,1.6867,1.5878,1.5281,1.5409,1.5219,1.4113,1.1769,0.9885,0.8696,0.8621,0.8669,0.8743,0.8832,0.8828,0.8855,0.8927,0.8937,0.894,0.8954,0.8967,0.8291,0.7154,0.7949,0.8863,0.886,0.8964,0.886,0.8883,0.5146,0.1676,0.0,0.0,-0.1121,-0.3818,-0.448,-0.5808,-0.9368,-1.1733,-1.3965,-1.6218,-1.9214,-2.1896,-2.275,-2.4402,-2.6091,-2.741,-2.9421,-3.1264,-3.2654,-3.6066,-3.9038,-4.009,-4.1083,-4.2291,-4.398,-4.3831,-4.3201,-4.3257,-4.3989,-4.4592,3.2365,3.2328,3.1863,3.1687,3.1687,3.1687,3.1625,3.1499,0.0,0.0,0.0,2.9729,2.9138,2.7952,2.6794,2.576,2.4732,2.2648,2.0854,1.9497,1.8503,1.7217,1.5832,1.5593,1.4473,1.263,1.2552,1.1317,0.9176,0.9198,0.9158,0.8937,0.8937,0.8937,0.8937,0.8937,0.8876,0.8757,0.8726,0.9302,1.0619,1.1133,1.1889,1.2865,1.444,1.5282,1.5166,1.638,1.7584,1.855,1.8845,1.9536,2.0757,1.9794,1.9155,1.9208,1.7939,1.7367,1.7503,1.6977,1.503,1.1549,1.01,0.9099,0.8757,0.8866,0.8937,0.8937,0.8937,0.8937,0.8937,0.8937,0.8937,0.8937,0.8957,0.8957,0.883,0.8954,0.896,0.894,0.894,0.8947,0.8866,0.6834,0.3913,0.0,0.0,-0.0785,-0.3141,-0.4706,-0.6697,-0.9779,-1.1602,-1.3618,-1.6287,-1.9177,-2.1435,-2.2415,-2.4285,-2.61,-2.762,-2.9759,-3.1798,-3.3013,-3.6039,-3.8436,-4.0626,-4.1358,-4.2369,-4.4202,-4.457,-4.457,-4.457,-4.457,-4.4759,3.2943,3.2943,3.2867,3.2842,3.2842,3.2842,3.2554,3.2064,3.1512,3.0639,2.9618,2.9618,2.8923,2.7671,2.626,2.5493,2.5211,2.3632,2.1676,1.9497,1.9314,1.8033,1.5838,1.4892,1.4441,1.4089,1.3288,1.2148,1.0946,1.0765,1.0135,0.9047,0.8937,0.8937,0.8937,0.8937,0.8927,0.8906,0.8777,0.8828,0.9061,1.1225,1.2467,1.2751,1.5125,1.6439,1.6493,1.7591,1.8361,1.8557,1.9707,2.0516,2.0901,2.0925,2.0966,2.1159,1.999,1.9435,1.9738,1.6839,1.3383,0.9817,1.0198,1.0229,0.902,0.8927,0.8937,0.8937,0.8937,0.8937,0.8937,0.8937,0.8937,0.8937,0.8944,0.8944,0.8937,0.894,0.8944,0.8937,0.8937,0.8954,0.8876,0.832,0.5942,0.0,0.0,-0.0336,-0.1902,-0.5039,-0.8171,-0.923,-1.0421,-1.195,-1.3987,-1.7317,-1.9675,-1.999,-2.3331,-2.61,-2.74,-2.8244,-2.9534,-3.1292,-3.3623,-3.587,-3.8624,-4.0575,-4.2167,-4.3905,-4.4423,-4.457,-4.457,-4.4626,-4.4852,3.3081,3.3081,3.3081,3.3081,3.3068,3.2339,3.2278,3.2569,3.1687,3.1052,3.0538,2.993,2.9315,2.8586,2.667,2.579,2.5691,2.4446,2.2903,2.1203,2.0911,1.9515,1.7296,1.6642,1.5678,1.4552,1.428,1.3471,1.2389,1.2295,1.1542,1.0135,0.9261,0.8937,0.8937,0.8937,0.8937,0.8937,0.8869,0.9156,1.0012,1.1954,1.3378,1.4113,1.6122,1.7181,1.7181,1.7681,1.8389,1.9078,1.9675,2.074,2.2391,2.1795,2.1879,2.2659,2.155,2.02,1.8904,1.7239,1.5476,1.3819,1.2729,1.1302,0.9102,0.892,0.8937,0.8937,0.8937,0.8937,0.8937,0.8937,0.8937,0.8937,0.8937,0.8937,0.8937,0.8937,0.8937,0.8937,0.8937,0.895,0.8876,0.7516,0.6619,0.4485,0.2465,-0.0896,-0.4032,-0.5601,-0.7165,-0.8595,-0.9475,-1.0457,-1.2073,-1.5611,-1.8302,-1.936,-2.3006,-2.5877,-2.74,-2.8049,-2.9223,-3.0855,-3.2487,-3.4386,-3.6883,-3.8826,-4.0739,-4.2586,-4.398,-4.4423,-4.4626,-4.5089,-4.5648,3.3081,3.3081,3.3081,3.3081,3.2982,3.2052,3.2052,3.2612,3.1952,3.1392,3.087,2.9925,2.9409,2.8964,2.6843,2.5817,2.5726,2.4822,2.3746,2.2671,2.2297,2.0832,1.8571,1.8342,1.7239,1.5365,1.5415,1.4907,1.389,1.3804,1.2832,1.1214,1.0241,0.9706,0.9396,0.9706,0.9706,0.9393,0.9382,0.9805,1.0562,1.2403,1.3804,1.4877,1.6711,1.7589,1.7589,1.7589,1.8094,1.9124,1.942,2.0538,2.2576,2.2055,2.2257,2.3384,2.2458,2.0538,1.7943,1.7569,1.7636,1.7556,1.5267,1.2807,1.0502,0.9995,0.9695,0.9482,0.9482,0.9588,0.9805,0.9265,0.9044,0.9265,0.9047,0.8937,0.8937,0.8937,0.8937,0.8937,0.8937,0.8947,0.8402,0.6599,0.5258,0.5382,0.28,-0.2128,-0.7203,-0.685,-0.6723,-0.8072,-0.8957,-0.9375,-1.0668,-1.4434,-1.7445,-1.8935,-2.278,-2.547,-2.703,-2.8132,-2.9315,-3.0485,-3.1777,-3.3462,-3.541,-3.7021,-3.8968,-4.0968,-4.2696,-4.3922,-4.4536,-4.5355,-4.6192,3.3081,3.3081,3.3081,3.3081,3.3081,3.2884,3.2326,3.1589,3.2426,3.1653,2.967,2.9455,2.8793,2.767,2.5987,2.5283,2.5253,2.4692,2.3775,2.2735,2.2577,2.1198,1.8927,1.9002,1.8369,1.7018,1.7173,1.6561,1.531,1.5204,1.3798,1.1538,1.2295,1.2119,1.1202,1.2119,1.2223,1.0888,1.0928,1.0347,0.9375,1.1864,1.3378,1.348,1.6174,1.7589,1.7589,1.7589,1.7687,1.7891,1.8909,1.9731,2.0143,2.1041,2.2257,2.3484,2.2466,2.0531,1.7943,1.7586,1.7655,1.7536,1.6135,1.49,1.4078,1.329,1.2295,1.1324,1.1,1.1428,1.2512,1.0566,0.9699,1.0457,0.9699,0.8937,0.8937,0.8937,0.8937,0.8937,0.8937,0.895,0.8628,0.716,0.4799,0.2907,0.123,-0.1791,-0.6644,-0.8339,-0.8091,-0.8768,-0.886,-0.8944,-0.9798,-1.3795,-1.6703,-1.7853,-2.2038,-2.4973,-2.6081,-2.7125,-2.8236,-2.9761,-3.0855,-3.2696,-3.4658,-3.6234,-3.72,-3.9688,-4.1373,-4.2664,-4.4095,-4.5196,-4.58,3.3081,3.3081,3.3081,3.3081,3.2982,3.2339,3.1677,3.1223,3.0956,3.0328,2.9407,2.868,2.8038,2.7579,2.6825,2.6205,2.5439,2.5273,2.4909,2.4286,2.3363,2.2232,2.118,1.9714,1.8448,1.7277,1.7448,1.7252,1.6605,1.5843,1.4776,1.3696,1.348,1.2965,1.2455,1.21,1.2045,1.2407,1.1502,1.1214,1.1647,1.2615,1.3696,1.4663,1.6499,1.7589,1.7589,1.7589,1.7589,1.7582,1.8094,1.8819,1.9524,2.0128,2.1049,2.2374,2.356,2.2926,2.0225,1.9517,1.8779,1.7662,1.7073,1.618,1.4888,1.5423,1.5204,1.3798,1.294,1.2729,1.3156,1.2186,1.1433,1.1105,1.0566,0.9915,0.8937,0.8937,0.8937,0.8937,0.8937,0.8947,0.8856,0.8193,0.7067,0.4931,0.2685,-0.1008,-0.3587,-0.6515,-0.8782,-0.888,-0.886,-0.8954,-0.9265,-1.2116,-1.5141,-1.7425,-2.0553,-2.3394,-2.5596,-2.7484,-2.8866,-2.9315,-3.0956,-3.2364,-3.3766,-3.5304,-3.662,-3.8701,-4.1241,-4.3054,-4.4367,-4.5106,-4.5699,3.3081,3.3081,3.3081,3.3081,3.2995,3.2152,3.1323,3.0676,3.0124,2.9315,2.8402,2.8132,2.7683,2.7125,2.703,2.6572,2.5732,2.5323,2.5371,2.5391,2.3626,2.2545,2.2096,2.0257,1.8475,1.7502,1.7482,1.7589,1.7477,1.6605,1.5849,1.531,1.477,1.4245,1.3819,1.3053,1.2989,1.3209,1.2562,1.2615,1.3264,1.3696,1.4341,1.5417,1.6823,1.7589,1.7589,1.7589,1.7589,1.7589,1.7589,1.7989,1.8909,1.9013,1.9723,2.1183,2.3525,2.437,2.2782,2.1186,1.9806,1.8819,1.8401,1.7535,1.6548,1.7015,1.7041,1.6062,1.5097,1.4561,1.4454,1.3804,1.294,1.2295,1.1969,1.1214,1.0347,0.9805,0.9592,0.9482,0.9154,0.8944,0.8964,0.8762,0.8323,0.685,0.4597,0.1344,-0.0224,-0.4369,-0.7639,-0.7733,-0.8291,-0.8957,-0.9154,-1.148,-1.4093,-1.6801,-1.9827,-2.2663,-2.5089,-2.7558,-2.9223,-2.9315,-3.1323,-3.2686,-3.3348,-3.46,-3.5912,-3.7572,-3.9987,-4.2642,-4.3856,-4.4623,-4.5442,3.3081,3.3081,3.3081,3.3081,3.3081,3.2982,3.1613,2.9681,3.0586,2.912,2.6562,2.8215,2.7945,2.5917,2.5917,2.5732,2.5538,2.451,2.4495,2.5168,2.2929,2.1261,2.0434,1.9849,1.8887,1.7634,1.7555,1.7589,1.7582,1.7477,1.6823,1.5524,1.6605,1.6624,1.5672,1.6299,1.5885,1.3959,1.4465,1.4556,1.3696,1.4669,1.5417,1.563,1.6823,1.7589,1.7589,1.7589,1.7589,1.7589,1.7589,1.7687,1.7687,1.7793,1.8401,1.9761,2.1824,2.3847,2.4536,2.217,2.0743,2.1191,2.0261,1.9413,1.9088,1.8387,1.7884,1.7575,1.7555,1.7457,1.7134,1.5198,1.4126,1.477,1.3911,1.3161,1.294,1.1647,1.1109,1.0781,0.9915,0.9158,0.894,0.896,0.7619,0.6272,0.6624,0.5953,0.0784,-0.2797,-0.4474,-0.5817,-0.7265,-0.894,-0.9151,-1.0635,-1.3576,-1.6697,-1.9301,-2.2338,-2.4701,-2.6744,-2.8038,-2.9223,-3.0676,-3.1865,-3.2698,-3.3817,-3.5157,-3.6732,-3.8545,-4.0758,-4.2998,-4.3788,-4.4724,3.3081,3.3081,3.3081,3.3081,3.3081,3.3081,3.1701,2.9498,2.9852,2.8402,2.6197,2.6658,2.6562,2.5732,2.5732,2.5732,2.5635,2.5216,2.438,2.3207,2.2155,2.0601,1.868,1.8379,1.8094,1.7687,1.7589,1.7589,1.7589,1.7589,1.7364,1.6929,1.7364,1.7265,1.6836,1.6399,1.6086,1.5998,1.5749,1.563,1.5962,1.6605,1.6823,1.6823,1.7259,1.7589,1.7589,1.7589,1.7589,1.7589,1.7589,1.7589,1.7589,1.7589,1.8199,1.9428,2.0362,2.1545,2.2698,2.1976,2.2112,2.3838,2.2214,2.0947,2.0939,2.0531,2.0231,2.0223,2.0223,2.0231,1.9708,1.7732,1.5849,1.5417,1.4984,1.4341,1.348,1.2837,1.2512,1.2295,1.1214,1.0025,0.9158,0.896,0.773,0.5031,0.3802,0.0,0.0,0.0,-0.2797,-0.6391,-0.8196,-0.886,-0.8937,-0.9471,-1.1589,-1.5452,-1.8774,-2.1393,-2.3879,-2.633,-2.7861,-2.9131,-3.0316,-3.1488,-3.2587,-3.4095,-3.5197,-3.6669,-3.8414,-3.9747,-4.2189,-4.3108,-4.4236,3.3081,3.3081,3.3081,3.3081,3.3081,3.3081,3.1889,3.0033,2.959,2.8215,2.6476,2.5917,2.5732,2.5732,2.5732,2.5732,2.5635,2.5226,2.4263,2.2939,2.2155,2.0577,1.8796,1.8282,1.7989,1.7687,1.7589,1.7589,1.7589,1.7589,1.7589,1.7582,1.7589,1.7589,1.7477,1.6611,1.6499,1.6717,1.6387,1.6499,1.6929,1.7358,1.7589,1.7589,1.7589,1.7589,1.7589,1.7589,1.7589,1.7589,1.7589,1.7589,1.7589,1.7589,1.7989,1.8812,1.8916,1.9354,2.0243,2.079,2.2307,2.5247,2.3335,2.1845,2.2257,2.1954,2.1744,2.1744,2.1744,2.1744,2.1237,1.9612,1.7864,1.689,1.6785,1.615,1.4877,1.4239,1.3809,1.3161,1.1864,1.0672,0.9809,0.9175,0.8063,0.6042,0.0,0.0,0.0,0.0,-0.1567,-0.6393,-0.8199,-0.8749,-0.8947,-0.9258,-1.053,-1.4098,-1.7224,-2.0038,-2.3061,-2.5499,-2.7579,-2.8947,-3.0226,-3.1412,-3.271,-3.4223,-3.56,-3.6824,-3.7688,-3.8677,-4.0691,-4.2532,-4.3539,3.3081,3.3081,3.3081,3.3081,3.3081,3.3081,3.2339,3.1033,2.9863,2.868,2.7315,2.6294,2.5732,2.5732,2.5732,2.5732,2.5528,2.4609,2.4594,2.5032,2.2846,2.1167,2.0048,1.942,1.8603,1.7687,1.7589,1.7589,1.7589,1.7589,1.7589,1.7589,1.7589,1.7589,1.7589,1.7364,1.6823,1.628,1.6829,1.6823,1.5849,1.6935,1.7589,1.7589,1.7589,1.7589,1.7589,1.7589,1.7589,1.7589,1.7589,1.7589,1.7589,1.7589,1.7687,1.7687,1.7687,1.7705,1.7888,1.9022,2.1452,2.3797,2.3007,2.2156,2.2776,2.2466,2.1946,2.1946,2.2055,2.1954,2.1853,2.0845,1.9723,1.9524,1.8998,1.8276,1.7345,1.6174,1.4877,1.3588,1.2295,1.1214,1.0785,0.9717,0.8628,0.7613,0.0,0.0,0.0,0.0,0.0,-0.4023,-0.6948,-0.887,-0.8957,-0.904,-1.0635,-1.2632,-1.5563,-1.8487,-2.1829,-2.4604,-2.6607,-2.8193,-2.9863,-3.1045,-3.2587,-3.4011,-3.4733,-3.5839,-3.6626,-3.7685,-3.938,-4.1238,-4.2557,3.3081,3.3081,3.3081,3.3081,3.3081,3.3081,3.2339,3.1122,2.9954,2.868,2.7494,2.6294,2.5732,2.5732,2.5732,2.5732,2.5635,2.5226,2.5283,2.5223,2.3011,2.1298,2.024,1.888,1.7989,1.7687,1.7589,1.7589,1.7589,1.7589,1.7589,1.7589,1.7589,1.7589,1.7589,1.7589,1.7259,1.7041,1.7364,1.7364,1.6929,1.7364,1.7589,1.7589,1.7589,1.7589,1.7589,1.7589,1.7589,1.7589,1.7589,1.7589,1.7589,1.7589,1.7589,1.7589,1.7589,1.7569,1.7725,1.8762,1.9693,2.0366,2.0993,2.1853,2.2366,2.2776,2.2968,2.3176,2.389,2.4402,2.4402,2.4097,2.2475,1.9834,1.8812,1.8297,1.7687,1.7147,1.628,1.4883,1.348,1.2295,1.1109,0.982,0.9064,0.886,0.6945,0.4812,0.0,0.0,0.0,-0.1564,-0.526,-0.8425,-0.8513,-0.8722,-0.9911,-1.1706,-1.4333,-1.7244,-2.0577,-2.3619,-2.5605,-2.7641,-2.9304,-3.0866,-3.25,-3.3628,-3.4345,-3.521,-3.6369,-3.7515,-3.8576,-4.004,-4.171,3.3081,3.3081,3.3081,3.3081,3.3081,3.3081,3.2698,3.1777,3.0574,2.936,2.8239,2.6976,2.61,2.5723,2.5732,2.5732,2.5732,2.5732,2.5732,2.5528,2.4097,2.2398,2.0702,1.8554,1.7589,1.7589,1.7589,1.7589,1.7589,1.7589,1.7589,1.7589,1.7589,1.7589,1.7589,1.7589,1.7589,1.7589,1.7589,1.7589,1.7589,1.7589,1.7589,1.7589,1.7589,1.7589,1.7589,1.7589,1.7589,1.7589,1.7589,1.7589,1.7589,1.7589,1.7589,1.7589,1.7589,1.7582,1.7687,1.829,1.888,1.8897,1.9596,2.0656,2.1517,2.2567,2.3076,2.3791,2.4304,2.4922,2.4815,2.4402,2.2776,2.0033,1.9524,1.8603,1.7996,1.7589,1.7259,1.6174,1.4984,1.3588,1.2077,1.0676,0.9489,0.9068,0.8866,0.7519,0.2904,0.0,0.0,0.0,-0.2459,-0.5144,-0.7499,-0.8282,-0.9064,-1.1097,-1.3311,-1.6218,-1.9331,-2.2381,-2.4856,-2.7432,-2.9315,-3.0586,-3.2127,-3.3189,-3.4024,-3.5142,-3.6015,-3.7084,-3.8192,-3.9878,-4.1369,3.3081,3.3081,3.3081,3.3081,3.3081,3.3081,3.3068,3.2884,3.1689,3.0408,2.9238,2.7925,2.6849,2.5917,2.5732,2.5732,2.5732,2.5732,2.5732,2.5732,2.5226,2.398,2.1119,1.8693,1.7687,1.7589,1.7589,1.7589,1.7589,1.7589,1.7589,1.7589,1.7589,1.7589,1.7589,1.7589,1.7589,1.7589,1.7589,1.7589,1.7589,1.7589,1.7589,1.7589,1.7589,1.7589,1.7589,1.7589,1.7589,1.7589,1.7589,1.7589,1.7589,1.7589,1.7589,1.7371,1.7477,1.7595,1.7595,1.7799,1.8311,1.9354,1.8594,1.8604,2.0703,2.1347,2.1954,2.2876,2.3384,2.3583,2.3384,2.2767,2.1245,2.0128,2.0025,1.962,1.8094,1.7687,1.7477,1.7252,1.628,1.4883,1.3372,1.1973,1.046,0.9596,0.9068,0.7279,0.5256,0.0,0.0,0.0,0.0,-0.3129,-0.5699,-0.8298,-0.8971,-1.0029,-1.2262,-1.4993,-1.8309,-2.1459,-2.415,-2.6737,-2.9073,-3.0429,-3.1677,-3.2661,-3.3543,-3.4275,-3.5292,-3.6462,-3.7803,-3.9298,-4.0591,3.3081,3.3081,3.3081,3.3081,3.3081,3.3081,3.3081,3.2982,3.1777,3.0606,2.9352,2.8172,2.6945,2.5732,2.5732,2.5732,2.5732,2.5732,2.5732,2.5732,2.5732,2.3493,2.0538,1.8506,1.7589,1.7589,1.7589,1.7589,1.7589,1.7589,1.7589,1.7589,1.7589,1.7589,1.7589,1.7589,1.7589,1.7589,1.7589,1.7589,1.7589,1.7589,1.7589,1.7589,1.7589,1.7589,1.7589,1.7589,1.7589,1.7589,1.7589,1.7589,1.7589,1.7582,1.7147,1.6499,1.7041,1.7622,1.7569,1.7629,1.7898,1.822,1.7948,1.7934,1.8596,1.962,2.0231,2.0845,2.155,2.2257,2.2156,2.1853,2.0947,1.9834,1.9317,1.8909,1.8812,1.8199,1.7589,1.7477,1.628,1.5417,1.4449,1.2832,1.1109,1.0464,0.9607,0.8638,0.6717,0.0,0.0,0.0,0.0,0.0,-0.436,-0.7179,-0.8863,-0.9272,-1.1088,-1.3552,-1.7199,-2.1071,-2.3493,-2.5846,-2.8301,-2.9839,-3.1128,-3.2339,-3.2945,-3.3785,-3.5343,-3.6688,-3.7134,-3.8235,-3.9481,3.3081,3.3081,3.3081,3.3081,3.3081,3.3081,3.3081,3.2982,3.2326,3.095,2.9489,2.8696,2.7389,2.583,2.5732,2.5732,2.5732,2.5732,2.5732,2.544,2.4501,2.2667,2.0436,1.8708,1.7589,1.7589,1.7589,1.7589,1.7589,1.7589,1.7589,1.7589,1.7589,1.7589,1.7589,1.7589,1.7589,1.7589,1.7589,1.7589,1.7589,1.7589,1.7589,1.7589,1.7589,1.7589,1.7589,1.7589,1.7589,1.7589,1.7589,1.7589,1.7582,1.6929,1.6605,1.628,1.6605,1.6855,1.7444,1.7622,1.7589,1.7582,1.7589,1.7589,1.7793,1.8401,1.8812,1.9731,2.0444,2.0743,2.0743,2.0333,1.9922,1.9524,1.8401,1.7996,1.8715,1.7996,1.7687,1.7364,1.6823,1.5962,1.5524,1.3804,1.2507,1.1324,1.0468,0.9621,0.8409,0.4357,0.0,0.0,0.0,0.0,-0.4589,-0.7524,-0.8785,-0.9193,-1.0162,-1.2417,-1.6037,-2.0017,-2.2541,-2.4865,-2.7208,-2.9349,-3.0639,-3.2046,-3.3101,-3.4223,-3.5698,-3.6796,-3.7396,-3.8165,-3.9223,3.324,3.324,3.3154,3.3081,3.3081,3.3081,3.3081,3.3081,3.2785,3.1412,2.9659,2.9212,2.7662,2.5732,2.5732,2.5732,2.5732,2.5732,2.5732,2.4903,2.3457,2.1719,2.1347,1.8805,1.7687,1.7589,1.7589,1.7589,1.7589,1.7589,1.7589,1.7589,1.7589,1.7589,1.7589,1.7589,1.7589,1.7589,1.7589,1.7589,1.7589,1.7589,1.7589,1.7589,1.7589,1.7371,1.7364,1.7364,1.747,1.7047,1.7364,1.7477,1.7252,1.6062,1.5743,1.628,1.5743,1.5962,1.673,1.6961,1.7384,1.7265,1.7364,1.7589,1.7687,1.7793,1.8199,1.9013,1.9324,1.942,1.9324,1.8401,1.8401,1.8812,1.8199,1.7687,1.7589,1.7589,1.7589,1.7589,1.7582,1.6929,1.6068,1.5204,1.4126,1.2077,1.0899,0.961,0.8856,0.6606,0.3016,0.0,0.0,0.0,-0.4933,-0.7988,-0.8565,-0.9126,-0.978,-1.163,-1.4803,-1.8387,-2.124,-2.3827,-2.6625,-2.886,-3.0413,-3.167,-3.2996,-3.4449,-3.5831,-3.7037,-3.8048,-3.9032,-4.0047,3.4358,3.4275,3.3471,3.3081,3.3081,3.3081,3.3081,3.297,3.2052,3.0777,2.9407,2.8412,2.7125,2.5732,2.5732,2.5732,2.5732,2.5732,2.5732,2.5314,2.2927,2.1854,2.1111,1.8909,1.7793,1.7589,1.7589,1.7589,1.7589,1.7589,1.7589,1.7589,1.7589,1.7589,1.7589,1.7589,1.7589,1.7589,1.7589,1.7589,1.7589,1.7589,1.7582,1.747,1.7582,1.6929,1.6387,1.7041,1.6499,1.5423,1.6174,1.6823,1.6174,1.6387,1.5524,1.3911,1.4556,1.4556,1.3604,1.5595,1.7032,1.608,1.6942,1.7589,1.7589,1.7582,1.7687,1.7996,1.7989,1.8192,1.8094,1.7898,1.7786,1.7996,1.7891,1.7589,1.7589,1.7589,1.7589,1.7589,1.7589,1.7477,1.7035,1.4877,1.3804,1.2615,1.1219,0.9603,0.8732,0.8075,0.5144,0.1563,-0.0335,-0.1232,-0.2579,-0.5624,-0.7356,-0.8527,-0.9662,-1.0711,-1.3819,-1.706,-2.0016,-2.3186,-2.6348,-2.8229,-2.9936,-3.1593,-3.2994,-3.4466,-3.5836,-3.715,-3.8407,-3.9596,-4.0661,3.5129,3.4677,3.4108,3.3556,3.3167,3.3081,3.2771,3.2179,3.1517,3.0159,2.8701,2.7778,2.6849,2.5732,2.5732,2.5732,2.5732,2.5732,2.5732,2.5304,2.3592,2.2389,2.1322,1.962,1.8304,1.7793,1.7589,1.7589,1.7589,1.7589,1.7589,1.7589,1.7589,1.7589,1.7589,1.7589,1.7589,1.7589,1.7589,1.7589,1.7589,1.7589,1.7147,1.6929,1.7035,1.6717,1.477,1.3539,1.3464,1.3654,1.477,1.531,1.4443,1.4556,1.3583,1.294,1.2507,1.3264,1.3073,1.4418,1.563,1.4567,1.6336,1.6868,1.706,1.7147,1.7589,1.7589,1.7589,1.7589,1.7589,1.7589,1.7589,1.7589,1.7589,1.7589,1.7589,1.7589,1.7589,1.7589,1.7589,1.7589,1.6823,1.5166,1.3943,1.3093,1.1673,1.0052,0.9061,0.8177,0.649,0.3575,0.1118,-0.0224,-0.0673,-0.2816,-0.5575,-0.7448,-0.9464,-1.0459,-1.2483,-1.5669,-1.8912,-2.202,-2.4927,-2.7578,-2.9447,-3.1214,-3.2945,-3.436,-3.5793,-3.7285,-3.8663,-4.0066,-4.1077,3.5828,3.491,3.4746,3.4121,3.3154,3.3081,3.2426,3.1279,3.098,2.962,2.7838,2.7482,2.6572,2.5917,2.5732,2.5732,2.5732,2.5732,2.5732,2.5421,2.3815,2.2555,2.1407,1.9826,1.8506,1.7687,1.7589,1.7589,1.7589,1.7589,1.7589,1.7589,1.7589,1.7589,1.7589,1.7589,1.7589,1.7589,1.7589,1.7589,1.7589,1.7582,1.6935,1.6062,1.5919,1.5399,1.2989,1.1151,1.0238,1.2483,1.2832,1.2832,1.2403,1.2295,1.1433,1.262,1.1647,1.1651,1.1978,1.3202,1.3753,1.3166,1.5285,1.638,1.5986,1.6499,1.7147,1.7477,1.7589,1.7589,1.7589,1.7589,1.7589,1.7589,1.7589,1.7589,1.7595,1.7609,1.7689,1.7689,1.7742,1.7769,1.7154,1.5898,1.4722,1.3469,1.1832,1.0528,0.9547,0.8651,0.7091,0.4933,0.2353,0.0,0.0,-0.0795,-0.3431,-0.6392,-0.8674,-1.0175,-1.1464,-1.4325,-1.7428,-2.0377,-2.317,-2.6188,-2.8993,-3.0928,-3.2624,-3.4216,-3.5804,-3.7196,-3.8783,-4.0448,-4.1241,3.6944,3.5894,3.5047,3.4121,3.3154,3.3081,3.2339,3.1181,3.0112,2.8899,2.7589,2.655,2.6014,2.5732,2.5732,2.5732,2.5732,2.5732,2.5635,2.513,2.3474,2.1999,2.1204,1.9406,1.8094,1.7687,1.7589,1.7589,1.7589,1.7589,1.7589,1.7589,1.7589,1.7589,1.7589,1.7589,1.7589,1.7589,1.7589,1.7589,1.7589,1.7477,1.6823,1.5299,1.4803,1.3414,1.1706,0.988,0.9106,0.968,1.0781,1.0672,1.0566,1.1647,1.1538,1.0566,1.0676,1.0676,1.046,1.1008,1.1551,1.1869,1.3181,1.4595,1.5102,1.5743,1.6499,1.7364,1.7589,1.7589,1.7589,1.7589,1.7589,1.7589,1.7589,1.7602,1.7649,1.7782,1.7963,1.8016,1.8016,1.7793,1.6963,1.5899,1.433,1.2869,1.1206,1.0322,0.9546,0.9061,0.8458,0.6012,0.3376,0.0,0.0,0.0,-0.1732,-0.5195,-0.7641,-0.9506,-1.1017,-1.3209,-1.5859,-1.847,-2.2064,-2.5622,-2.8199,-3.0377,-3.2264,-3.3726,-3.5402,-3.7057,-3.8379,-3.9697,-4.0561,3.7175,3.6119,3.5129,3.4121,3.3056,3.2326,3.144,3.0212,2.9006,2.7768,2.6744,2.5995,2.5732,2.5732,2.5732,2.5732,2.5732,2.5732,2.5323,2.4408,2.3331,2.181,2.0805,1.9088,1.8276,1.7779,1.7589,1.7589,1.7589,1.7589,1.7589,1.7589,1.7589,1.7589,1.7589,1.7589,1.7589,1.7589,1.7589,1.7582,1.7582,1.7582,1.6499,1.4635,1.3607,1.221,1.0202,0.9385,0.8944,0.9133,0.9592,0.9482,0.9588,0.9915,1.0457,0.9372,0.9588,0.9805,0.9047,0.9592,0.9919,1.0135,1.1551,1.2521,1.348,1.4443,1.5855,1.7041,1.7589,1.7589,1.7589,1.7589,1.7589,1.7589,1.7595,1.7675,1.7802,1.7963,1.8176,1.837,1.8364,1.7786,1.666,1.5462,1.3798,1.2227,1.0647,0.9972,0.9412,0.9235,0.9056,0.7148,0.4462,0.0,0.0,0.0,0.0,-0.4297,-0.7145,-0.9029,-1.0624,-1.2675,-1.4227,-1.616,-2.0188,-2.4191,-2.7037,-2.9025,-3.1025,-3.312,-3.4921,-3.6577,-3.7665,-3.8725,-3.961,3.719,3.6119,3.5129,3.4108,3.3056,3.2052,3.0927,2.9692,2.8582,2.74,2.61,2.582,2.5732,2.5732,2.5732,2.5732,2.5732,2.5732,2.502,2.3962,2.3188,2.1804,2.0169,1.9177,1.8561,1.7681,1.7589,1.7589,1.7589,1.7589,1.7589,1.7589,1.7589,1.7589,1.7589,1.7589,1.7589,1.7589,1.7589,1.7575,1.7252,1.7041,1.5743,1.327,1.3096,1.1928,0.9467,0.8999,0.8882,0.8923,0.8937,0.8937,0.8937,0.8937,0.8937,0.8937,0.8937,0.8937,0.8937,0.894,0.9154,0.9265,1.0366,1.1013,1.1869,1.3475,1.531,1.6499,1.7041,1.7041,1.6935,1.7371,1.7589,1.7609,1.7655,1.7769,1.7983,1.8203,1.8484,1.8617,1.8657,1.7904,1.6672,1.463,1.2942,1.2247,1.0749,1.0037,0.9568,0.9486,0.9069,0.7857,0.5482,0.2097,0.0,0.0,0.0,-0.4346,-0.72,-0.947,-1.0789,-1.2093,-1.3517,-1.5058,-1.7628,-2.1383,-2.4463,-2.7651,-2.9746,-3.1917,-3.4302,-3.6011,-3.7031,-3.7939,-3.8725,3.719,3.6132,3.5129,3.4108,3.3142,3.2797,3.2127,3.0808,2.9567,2.8495,2.7125,2.6197,2.5732,2.5732,2.5732,2.5732,2.5635,2.543,2.4716,2.3466,2.2381,2.1063,1.9524,1.8297,1.808,1.7589,1.7589,1.7589,1.7589,1.7589,1.7589,1.7589,1.7589,1.7589,1.7589,1.7589,1.7589,1.7589,1.7582,1.6935,1.6062,1.5849,1.4126,1.2743,1.2341,1.191,0.9379,0.892,0.8927,0.893,0.8937,0.8937,0.8937,0.8937,0.8937,0.8937,0.8937,0.8937,0.8937,0.8937,0.8937,0.8937,0.9379,0.9919,1.1109,1.2403,1.3696,1.3696,1.4877,1.563,1.5855,1.6717,1.7265,1.7364,1.7154,1.7391,1.7688,1.7759,1.8149,1.7869,1.7684,1.7335,1.6465,1.4262,1.2277,1.1679,1.0955,1.0219,0.9713,0.9625,0.9537,0.8537,0.701,0.3916,0.0,0.0,0.0,0.0,-0.7243,-0.9764,-1.0572,-1.1619,-1.3048,-1.4703,-1.6938,-1.9047,-2.2084,-2.5138,-2.8114,-3.0756,-3.3063,-3.4812,-3.625,-3.7137,-3.7926,3.7175,3.6119,3.5116,3.4121,3.3056,3.2326,3.1765,3.0855,2.9235,2.8143,2.74,2.6294,2.5732,2.5732,2.5732,2.5732,2.5528,2.4922,2.3791,2.2515,2.1131,1.9816,1.8582,1.7891,1.7589,1.7589,1.7589,1.7589,1.7589,1.7589,1.7589,1.7589,1.7589,1.7589,1.7575,1.7582,1.7589,1.7364,1.6929,1.6499,1.6174,1.5097,1.3588,1.2295,1.2351,1.1038,0.9603,0.8937,0.8937,0.8937,0.8937,0.8937,0.8937,0.8937,0.8937,0.8937,0.8937,0.8937,0.8937,0.8937,0.894,0.8937,0.9047,0.9592,1.0781,1.1647,1.2512,1.3264,1.3804,1.4126,1.4234,1.4776,1.5087,1.5412,1.5867,1.5998,1.6275,1.7059,1.7183,1.6878,1.654,1.5987,1.5542,1.4346,1.2196,1.0876,1.0514,1.0023,0.9781,0.9754,0.9663,0.9574,0.7937,0.5925,0.0,0.0,0.0,-0.4416,-0.7627,-0.9635,-1.0082,-1.114,-1.2693,-1.4356,-1.6245,-1.8351,-2.0329,-2.3406,-2.6943,-2.9497,-3.1939,-3.3702,-3.5463,-3.6345,-3.7389,3.7175,3.6119,3.5116,3.4121,3.3068,3.2052,3.1689,3.1412,2.959,2.8412,2.7673,2.6466,2.5732,2.5732,2.5635,2.543,2.5118,2.4097,2.2667,2.1273,2.0076,1.8971,1.8046,1.7589,1.7589,1.7589,1.7589,1.7589,1.7477,1.7259,1.7047,1.7582,1.7589,1.7589,1.7351,1.6641,1.6175,1.6137,1.5731,1.5524,1.5204,1.3696,1.2729,1.1978,1.1337,1.0366,0.9158,0.8937,0.8937,0.8937,0.8937,0.8937,0.8937,0.8937,0.8944,0.8947,0.895,0.8954,0.8957,0.8957,0.895,0.8944,0.8937,0.9375,1.0135,1.0566,1.0781,1.1755,1.2512,1.2615,1.2832,1.3048,1.3702,1.3952,1.3992,1.3922,1.4274,1.5335,1.6031,1.5787,1.5279,1.4217,1.3885,1.3885,1.2453,1.0418,0.9819,0.9819,0.9819,0.9815,0.9768,0.9796,0.9121,0.721,0.0,0.0,0.0,-0.4432,-0.7654,-0.9506,-0.9957,-1.114,-1.2693,-1.4356,-1.5902,-1.8235,-2.0558,-2.3174,-2.5775,-2.8008,-3.0335,-3.2887,-3.4569,-3.5667,-3.715,3.7175,3.6119,3.5129,3.4108,3.3068,3.3081,3.2982,3.2711,3.1323,2.9954,2.8495,2.6839,2.5732,2.5732,2.5528,2.502,2.3899,2.3692,2.2064,2.0515,1.956,1.8629,1.7975,1.7589,1.7582,1.7364,1.7259,1.7259,1.7153,1.5855,1.6499,1.7371,1.7417,1.7496,1.6778,1.5399,1.4406,1.4366,1.4528,1.3804,1.2832,1.1538,1.0891,0.9809,0.9375,0.9047,0.8937,0.8937,0.8937,0.8937,0.8937,0.8937,0.8937,0.8944,0.895,0.896,0.8288,0.8409,0.8759,0.887,0.886,0.8964,0.8954,0.8947,0.9386,0.9161,0.9268,0.9706,1.0798,1.1223,1.1651,1.2205,1.2517,1.2613,1.256,1.2758,1.3203,1.3966,1.4528,1.4584,1.4009,1.3172,1.2337,1.2217,1.1976,1.0058,0.9819,0.9819,0.9819,0.9819,0.9819,0.9795,0.9842,0.8008,0.5159,0.2089,-0.1107,-0.4433,-0.7651,-0.9001,-0.9832,-1.1265,-1.2693,-1.4356,-1.6015,-1.8345,-2.0666,-2.2983,-2.5055,-2.6522,-2.885,-3.2353,-3.4739,-3.6023,-3.7586,3.8159,3.7175,3.6724,3.521,3.3081,3.3081,3.3081,3.2711,3.0956,2.8947,2.721,2.61,2.5732,2.5635,2.5635,2.4922,2.3692,2.2767,2.1245,1.9819,1.8783,1.8073,1.7582,1.7371,1.7153,1.6499,1.6174,1.5636,1.477,1.4341,1.4449,1.5232,1.6398,1.6712,1.5861,1.436,1.349,1.3061,1.3014,1.2295,1.2512,1.0566,1.0033,1.0806,0.9272,0.9047,0.8937,0.8937,0.8937,0.8937,0.8937,0.8937,0.8944,0.895,0.8964,0.8634,0.773,0.7633,0.8555,0.8778,0.8883,0.8883,0.8876,0.8752,0.8523,0.8752,0.8866,0.9196,0.9182,0.9496,0.9824,1.0166,1.0465,1.0908,1.1204,1.1583,1.1997,1.276,1.2813,1.2595,1.2582,1.2213,1.1378,1.066,1.0422,0.994,0.9819,0.9819,0.9819,0.9819,0.9819,0.9829,0.9747,0.8267,0.5412,0.2091,-0.1109,-0.4312,-0.7649,-0.887,-0.9957,-1.1261,-1.2689,-1.4356,-1.6127,-1.8577,-2.0773,-2.2581,-2.4454,-2.6163,-2.9215,-3.2798,-3.4715,-3.6471,-3.8107,3.8472,3.7738,3.7244,3.576,3.3713,3.3556,3.3386,3.2797,3.1323,2.9131,2.6744,2.6187,2.543,2.5226,2.502,2.3899,2.2475,2.1355,2.0231,1.9109,1.8094,1.7364,1.7041,1.6717,1.6068,1.5097,1.4663,1.4228,1.3588,1.2945,1.3156,1.3738,1.4256,1.4213,1.4821,1.3911,1.292,1.1932,1.1729,1.1109,1.1647,1.0135,0.9268,1.048,0.9379,0.9047,0.8937,0.8937,0.8937,0.8937,0.8937,0.894,0.895,0.8964,0.8866,0.819,0.7404,0.6738,0.7882,0.6964,0.6391,0.5487,0.6953,0.7179,0.7633,0.7522,0.7173,0.729,0.7516,0.763,0.773,0.8409,0.9212,0.986,1.0058,1.0307,1.0535,1.1058,1.0819,1.0579,1.069,1.1046,1.0789,1.0193,1.0065,0.9822,0.9819,0.9819,0.9819,0.9819,0.9819,0.9832,0.9737,0.7755,0.541,0.1844,-0.1601,-0.4432,-0.7271,-0.8998,-1.0207,-1.1507,-1.2928,-1.4361,-1.6474,-1.8809,-2.1101,-2.3255,-2.4599,-2.5809,-2.937,-3.3231,-3.5746,-3.7481,-3.8725,3.7904,3.762,3.6142,3.5183,3.4581,3.4581,3.4011,3.3056,3.2513,3.1057,2.8588,2.6648,2.5118,2.4304,2.4402,2.3076,2.1049,2.0238,1.9317,1.8199,1.7358,1.6605,1.5956,1.5417,1.4776,1.3696,1.3264,1.3156,1.2837,1.1647,1.186,1.186,1.1463,1.1244,1.3053,1.3264,1.1751,0.9695,1.0453,1.0241,0.9699,0.9158,0.9158,0.9158,0.9158,0.8937,0.8937,0.8944,0.8947,0.8947,0.895,0.8957,0.886,0.8866,0.8539,0.7644,0.7307,0.7432,0.8018,0.3135,0.067,0.0558,0.2009,0.3685,0.4246,0.4246,0.4021,0.3461,0.4247,0.4472,0.5483,0.6626,0.7437,0.8387,0.8451,0.8567,0.8751,0.8873,0.8619,0.8372,0.9133,0.9764,0.9859,0.9842,0.9832,0.9825,0.9822,0.9822,0.9822,0.9819,0.9819,0.9836,0.9734,0.8754,0.6156,0.1598,-0.1969,-0.4676,-0.7018,-0.8867,-1.0808,-1.2341,-1.3526,-1.4599,-1.7172,-2.0092,-2.213,-2.3925,-2.5882,-2.8038,-3.0223,-3.3505,-3.6194,-3.8456,-3.9582,3.8457,3.7857,3.7935,3.6698,3.4802,3.391,3.3392,3.2846,3.1412,2.9681,2.8132,2.638,2.5528,2.5118,2.4609,2.3285,2.1245,2.0939,2.0025,1.7575,1.6711,1.6062,1.5198,1.4228,1.3264,1.2186,1.1755,1.121,1.0241,0.9911,0.9915,0.9809,0.9809,0.9478,1.0131,1.0347,0.9588,0.9158,0.9375,0.9375,0.8937,0.8937,0.8937,0.8937,0.894,0.894,0.8944,0.8957,0.885,0.8624,0.8517,0.8415,0.831,0.8313,0.6725,0.3242,0.067,-0.1788,-0.1453,-0.3801,-0.5714,-0.4812,-0.3015,-0.1226,-0.1449,-0.1449,-0.1449,-0.0892,0.0335,0.0892,0.2008,0.2233,0.3173,0.5346,0.589,0.5977,0.6198,0.625,0.6151,0.6149,0.6526,0.7774,0.8381,0.8619,0.8735,0.8976,0.8848,0.9582,0.9707,0.9822,0.9822,0.9839,0.9734,0.9258,0.715,0.1844,-0.2459,-0.5416,-0.7508,-0.9355,-1.116,-1.2697,-1.3889,-1.4723,-1.8106,-2.1479,-2.3471,-2.5546,-2.8327,-3.0668,-3.2498,-3.4449,-3.7127,-3.9054,-4.032,3.9031,3.8397,3.8333,3.7127,3.5251,3.4209,3.3372,3.2215,3.0316,2.868,2.7494,2.6294,2.5323,2.502,2.4304,2.3285,2.1041,2.0326,1.9273,1.6929,1.5956,1.477,1.3798,1.3048,1.1755,1.0781,1.0241,0.9805,0.9265,0.9047,0.9047,0.9154,0.8937,0.9044,0.9154,0.9154,0.9047,0.8937,0.9047,0.9047,0.8937,0.894,0.8944,0.8947,0.8954,0.8957,0.8964,0.8749,0.8415,0.785,0.7287,0.6728,0.6274,0.5148,0.3239,-0.1674,-0.5375,-0.7301,-0.6844,-0.6945,-0.8084,-0.8091,-0.6839,-0.6161,-0.6047,-0.5708,-0.5708,-0.5146,-0.3799,-0.2679,-0.1785,-0.1674,0.0113,0.2311,0.0703,0.0713,0.2657,0.2679,0.1595,0.184,0.1964,0.3808,0.6033,0.715,0.7391,0.7633,0.7997,0.8482,0.897,0.9342,0.9339,0.9355,0.9496,0.9268,0.653,0.1596,-0.2579,-0.6031,-0.8,-0.9721,-1.0914,-1.2333,-1.3526,-1.5187,-1.868,-2.2009,-2.4777,-2.727,-3.0016,-3.2264,-3.4267,-3.6194,-3.8262,-3.9642,-4.0901,3.9337,3.9015,3.7192,3.6291,3.5853,3.4772,3.3288,3.1134,2.9863,2.868,2.7494,2.6091,2.4913,2.3683,2.2458,2.1143,1.9819,1.8589,1.7351,1.5849,1.5001,1.3485,1.2186,1.1219,1.0351,0.9482,0.9044,0.9261,0.8937,0.8937,0.8937,0.894,0.8944,0.8944,0.894,0.8947,0.8944,0.894,0.8944,0.8947,0.8947,0.895,0.896,0.8856,0.8863,0.8526,0.8193,0.7519,0.6839,0.571,0.4136,0.212,0.0781,-0.0223,-0.223,-0.4468,-0.7524,-0.8202,-0.8539,-0.8752,-0.886,-0.8866,-0.8759,-0.8768,-0.8539,-0.8078,-0.7961,-0.7967,-0.7059,-0.6042,-0.5142,-0.3698,-0.2137,-0.3549,-0.6292,-0.4847,-0.204,-0.2063,-0.3553,-0.4056,-0.4179,-0.2578,0.0368,0.2208,0.3438,0.3313,0.3309,0.4048,0.5028,0.8008,0.813,0.8631,0.8772,0.9158,0.5667,0.0123,-0.3681,-0.751,-0.8488,-0.9957,-1.1027,-1.2333,-1.4004,-1.6121,-1.9252,-2.2534,-2.629,-2.9171,-3.1567,-3.3777,-3.5614,-3.7219,-3.9006,-4.0148,-4.1457,3.8958,3.8248,3.8405,3.6693,3.3746,3.1867,3.1045,3.0944,2.9039,2.7861,2.7494,2.5266,2.4097,2.3592,2.2257,2.0837,1.9494,1.8373,1.7609,1.6117,1.3825,1.2422,1.1227,1.0249,0.9375,0.9047,0.8937,0.894,0.894,0.894,0.894,0.894,0.8957,0.8954,0.8732,0.8856,0.8732,0.8729,0.8732,0.8732,0.8624,0.852,0.8644,0.8768,0.8883,0.7973,0.5371,0.3352,0.324,0.6281,-0.1117,-0.538,-0.6056,-0.6391,-0.7179,-0.7388,-0.8517,-0.8846,-0.8957,-0.8954,-0.895,-0.895,-0.8957,-0.8957,-0.8846,-0.896,-0.8964,-0.886,-0.8977,-0.7724,-0.7274,-0.6272,-0.5054,-0.6139,-0.8329,-0.7846,-0.5457,-0.5524,-0.7044,-0.7627,-0.7877,-0.6526,-0.3683,-0.2945,-0.184,-0.1963,-0.1718,-0.0859,0.0736,0.3561,0.5289,0.5536,0.6035,0.579,0.2824,-0.2208,-0.5525,-0.8494,-0.9589,-1.0675,-1.1981,-1.3287,-1.4837,-1.7505,-2.105,-2.4726,-2.8569,-3.0987,-3.2921,-3.4896,-3.6718,-3.8222,-3.961,-4.0802,-4.2313,3.9017,3.8589,3.9139,3.5858,3.0474,2.9613,2.9681,2.9487,2.8226,2.7189,2.5935,2.4464,2.3384,2.2667,2.1347,2.001,1.8651,1.7193,1.5974,1.4067,1.2432,1.1232,1.0253,0.9599,0.9158,0.8937,0.894,0.8947,0.884,0.885,0.8964,0.8954,0.8863,0.8069,0.7388,0.6829,0.6943,0.7502,0.7844,0.7958,0.751,0.7173,0.7636,0.8329,0.8555,0.5601,0.0446,-0.2346,-0.0447,0.2904,-0.5377,-0.753,-0.8205,-0.8762,-0.8749,-0.8732,-0.884,-0.8944,-0.8944,-0.894,-0.8937,-0.8937,-0.8933,-0.894,-0.894,-0.8944,-0.8944,-0.8947,-0.8954,-0.8954,-0.9182,-0.9189,-0.8205,-0.7446,-0.8691,-0.9849,-0.9384,-0.8905,-0.9523,-1.0293,-0.9852,-0.8631,-0.7641,-0.7143,-0.6775,-0.6405,-0.628,-0.6031,-0.4301,-0.1963,-0.0491,0.0123,0.1104,0.1473,-0.184,-0.4658,-0.7726,-1.0072,-1.0785,-1.1864,-1.3053,-1.4816,-1.6815,-1.978,-2.3166,-2.6686,-2.9964,-3.1905,-3.3824,-3.5874,-3.7781,-3.95,-4.0802,-4.1826,-4.3561,3.9424,3.9339,3.9127,3.4258,2.7304,2.8597,2.868,2.7589,2.7494,2.6041,2.4079,2.3592,2.2667,2.1448,2.0025,1.888,1.7508,1.6143,1.4449,1.1905,1.1122,1.0245,0.9485,0.8937,0.8937,0.8937,0.8719,0.8504,0.852,0.853,0.8759,0.8749,0.8883,0.8094,0.6619,0.5489,0.4364,0.1897,0.3461,0.4244,0.391,0.4136,0.481,0.6735,0.6056,0.3691,-0.4477,-0.765,-0.765,-0.5712,-0.5254,-0.6829,-0.7949,-0.8957,-0.8944,-0.9051,-0.9051,-0.9482,-0.9588,-0.9699,-0.9133,-0.9137,-0.9151,-0.9695,-1.0131,-0.9699,-0.9588,-0.9372,-0.9489,-0.9599,-0.9713,-1.037,-1.0048,-0.9518,-1.0054,-1.0852,-1.0842,-1.0898,-1.1837,-1.226,-1.1752,-1.0781,-1.0675,-1.0162,-1.0162,-1.0221,-1.011,-1.0225,-0.8986,-0.6745,-0.5645,-0.4782,-0.3929,-0.3435,-0.5632,-0.8334,-1.0297,-1.1897,-1.235,-1.3292,-1.4599,-1.6698,-1.9021,-2.2255,-2.5575,-2.795,-3.0771,-3.2721,-3.4788,-3.6878,-3.8843,-4.0675,-4.2085,-4.3172,-4.4767,3.9424,3.9119,3.6665,3.3739,3.1158,2.8884,2.7955,2.7505,2.6572,2.5294,2.3683,2.2667,2.1448,2.0238,1.8916,1.7871,1.7127,1.5085,1.3701,1.1978,1.0562,0.9588,0.8937,0.894,0.894,0.8944,0.8615,0.7838,0.6604,0.729,0.7636,0.627,0.6507,0.6172,0.5609,0.437,0.1454,-0.2795,-0.3242,-0.0781,0.0446,-0.3016,-0.4364,-0.1339,-0.0558,0.0781,-0.4585,-0.6956,-0.7753,-0.7862,-0.7847,-0.8399,-0.8836,-0.894,-0.9592,-1.0131,-0.9809,-1.0351,-1.1109,-1.0992,-1.0307,-1.0264,-1.059,-1.1724,-1.1973,-1.1105,-1.0566,-1.0241,-1.0135,-1.0351,-1.0676,-1.1437,-1.1982,-1.1686,-1.1498,-1.193,-1.226,-1.2989,-1.3988,-1.3805,-1.3461,-1.3269,-1.3172,-1.3191,-1.3435,-1.343,-1.3426,-1.3186,-1.2354,-1.0744,-0.9802,-0.8948,-0.8503,-0.8625,-1.02,-1.1023,-1.2487,-1.3439,-1.4009,-1.5074,-1.6256,-1.9008,-2.1745,-2.4902,-2.796,-2.9995,-3.1792,-3.3441,-3.5461,-3.773,-3.9578,-4.1371,-4.3638,-4.5055,-4.6468,3.9104,3.8383,3.5746,3.4024,3.2574,2.9749,2.8132,2.74,2.6294,2.4913,2.3592,2.2265,2.0947,1.9531,1.8199,1.7041,1.6393,1.4341,1.2474,1.0958,1.0123,0.9261,0.894,0.8947,0.8954,0.8846,0.8755,0.7636,0.4923,0.4142,0.4145,0.459,0.4817,0.1676,0.1453,-0.0112,-0.1677,-0.6396,-0.8103,-0.673,-0.357,-0.6611,-0.8329,-0.5824,-0.5031,-0.3795,-0.4688,-0.7396,-0.8072,-0.8866,-0.8735,-0.9382,-0.9702,-1.0025,-1.0672,-1.1433,-1.1647,-1.1542,-1.262,-1.2699,-1.1783,-1.193,-1.1972,-1.3038,-1.6762,-1.5891,-1.3249,-1.2817,-1.2077,-1.2082,-1.262,-1.327,-1.3485,-1.3393,-1.364,-1.4044,-1.4077,-1.4298,-1.4966,-1.5351,-1.4764,-1.3887,-1.3812,-1.4013,-1.4138,-1.4138,-1.4485,-1.4697,-1.4103,-1.4094,-1.3297,-1.2741,-1.2039,-1.1918,-1.2595,-1.3297,-1.4023,-1.4847,-1.5666,-1.7172,-1.8796,-2.1639,-2.4675,-2.7116,-2.9444,-3.1342,-3.3032,-3.4642,-3.6514,-3.8787,-4.0478,-4.2049,-4.4368,-4.6662,-4.7768,3.8679,3.7286,3.5588,3.4023,3.2528,3.0387,2.868,2.7494,2.6197,2.4922,2.3583,2.2265,2.0939,1.9517,1.8192,1.681,1.5417,1.4019,1.1815,1.03,0.9244,0.8937,0.8954,0.896,0.886,0.8876,0.8782,0.6393,0.3466,0.1342,0.0447,0.3357,-0.1117,-0.8221,-0.7991,-0.6733,-0.5822,-0.6611,-0.7744,-0.8762,-0.8759,-0.8876,-0.8768,-0.8772,-0.8886,-0.8876,-0.8863,-0.8853,-0.8957,-0.9058,-0.9272,-1.0033,-1.0789,-1.1219,-1.229,-1.294,-1.2945,-1.3367,-1.4325,-1.4421,-1.4098,-1.3938,-1.4046,-1.605,-1.9792,-1.933,-1.666,-1.5683,-1.4944,-1.4522,-1.495,-1.5293,-1.5399,-1.5304,-1.5767,-1.5797,-1.564,-1.5586,-1.6239,-1.669,-1.6086,-1.5119,-1.5099,-1.52,-1.5226,-1.5119,-1.5011,-1.5022,-1.5124,-1.5568,-1.5451,-1.5284,-1.4981,-1.5095,-1.5084,-1.5203,-1.5564,-1.6626,-1.756,-1.9279,-2.1101,-2.3462,-2.5864,-2.8499,-3.0717,-3.2576,-3.4376,-3.5986,-3.7926,-3.9871,-4.1618,-4.327,-4.5324,-4.739,-4.8686,3.7955,3.5668,3.5771,3.4048,3.1163,2.9841,2.868,2.7494,2.6197,2.4922,2.3592,2.2265,2.0939,1.9524,1.8199,1.6711,1.4984,1.3696,1.2748,1.145,0.9592,0.9058,0.8964,0.887,0.888,0.775,0.6398,0.5272,0.1229,-0.3805,-0.6631,-0.5043,-0.2792,-0.6842,-0.8782,-0.7859,-0.7624,-0.7958,-0.7952,-0.8856,-0.896,-0.896,-0.8964,-0.896,-0.8954,-0.895,-0.8947,-0.8944,-0.894,-0.9265,-1.0021,-1.1008,-1.1769,-1.2625,-1.3696,-1.4753,-1.4652,-1.5807,-1.6542,-1.6721,-1.6599,-1.7161,-1.7702,-1.9457,-2.1656,-2.1538,-1.9956,-2.0153,-1.9412,-1.8233,-1.8358,-1.8324,-1.8345,-1.7508,-1.743,-1.6909,-1.6468,-1.7085,-1.7892,-1.8104,-1.8001,-1.7639,-1.7735,-1.7804,-1.7811,-1.7817,-1.7824,-1.7623,-1.7068,-1.7365,-1.765,-1.7749,-1.7836,-1.7208,-1.685,-1.6621,-1.6979,-1.8163,-1.9325,-2.0787,-2.2461,-2.4471,-2.7065,-2.9891,-3.1827,-3.3557,-3.5353,-3.7204,-3.9163,-4.1041,-4.2832,-4.4662,-4.6565,-4.8061,-4.9206]}]]